[[{"header":{"parameterUnit":"m.s-1","parameterCategory":1,"la1":31.0,"la2":29.5877,"lo1":-88.7671,"lo2":-86.6584,"dy":0.0162,"dx":0.0185,"nx":115,"ny":88,"refTime":"2024-08-01T00:00:00:Z","depth":0,"parameterNumber":2,"parameterNumberName":"U-component_of_WINDS"},"data":[0.0,0.0,0.0,0.0,0.0,0.0,0.0,0.0,0.0,0.0,0.0,0.0,0.0,0.0,0.0,0.0,0.0,0.0,0.0,0.0,0.0,0.0,0.0,0.0,0.0,0.0,0.0,0.0,0.0,0.0,0.0,0.0,0.0,0.0,0.0,0.0,0.0,0.0,0.0,0.0,0.0,0.0,0.0,0.0,0.0,0.0,0.0,0.0,0.0,0.0,0.0,0.0,0.0,0.0,0.0,0.0,0.0,0.0,0.0,0.0,0.0,0.0,0.0,0.0,0.0,0.0,0.0,0.0,0.0,0.0,0.0,0.0,0.0,0.0,0.0,0.0,0.0,0.0,0.0,0.0,0.0,0.0,0.0,0.0,0.0,0.0,0.0,0.0,0.0,0.0,0.0,0.0,0.0,0.0,0.0,0.0,0.0,0.0,0.0,0.0,0.0,0.0,0.0,0.0,0.0,0.0,0.0,0.0,0.0,0.0,0.0,0.0,0.0,0.0,0.0,0.0,0.0,0.0,0.0,0.0,0.0,0.0,0.0,0.0,0.0,0.0,0.0,0.0,0.0,0.0,0.0,0.0,0.0,0.0,0.0,0.0,0.0,0.0,0.0,0.0,0.0,0.0,0.0,0.0,0.0,0.0,0.0,0.0,0.0,0.0,0.0,0.0,0.0,0.0,0.0,0.0,0.0,0.0,0.0,0.0,0.0,0.0,0.0,0.0,0.0,0.0,0.0,0.0,0.0,0.0,0.0,0.0,0.0,0.0,0.0,0.0,0.0,0.0,0.0,0.0,0.0,0.0,0.0,0.0,0.0,0.0,0.0,0.0,0.0,0.0,0.0,0.0,0.0,0.0,0.0,0.0,0.0,0.0,0.0,0.0,0.0,0.0,0.0,0.0,0.0,0.0,0.0,0.0,0.0,0.0,0.0,0.0,0.0,0.0,0.0,0.0,0.0,0.0,0.0,0.0,0.0,0.0,0.0,0.0,0.0,0.0,0.0,0.0,0.0,0.0,0.0,0.0,0.0,0.0,0.0,0.0,0.0,0.0,0.0,0.0,0.0,0.0,0.0,0.0,0.0,0.0,0.0,0.0,0.0,0.0,0.0,0.0,0.0,0.0,0.0,0.0,0.0,0.0,0.0,0.0,0.0,0.0,0.0,0.0,0.0,0.0,0.0,0.0,0.0,0.0,0.0,0.0,0.0,0.0,0.0,0.0,0.0,0.0,0.0,0.0,0.0,0.0,0.0,0.0,0.0,0.0,0.0,0.0,0.0,0.0,0.0,0.0,0.0,0.0,0.0,0.0,0.0,0.0,0.0,0.0,0.0,0.0,0.0,0.0,0.0,0.0,0.0,0.0,0.0,0.0,0.0,0.0,0.0,0.0,0.0,0.0,0.0,0.0,0.0,0.0,0.0,0.0,0.0,0.0,0.0,0.0,0.0,0.0,0.0,0.0,0.0,0.0,0.0,0.0,0.0,0.0,0.0,0.0,0.0,0.0,0.0,0.0,0.0,0.0,0.0,0.0,0.0,0.0,0.0,0.0,0.0,0.0,0.0,0.0,0.0,0.0,0.0,0.0,0.0,0.0,0.0,0.0,0.0,0.0,0.0,0.0,0.0,0.0,0.0,0.0,0.0,0.0,0.0,0.0,0.0,0.0,0.0,0.0,0.0,0.0,0.0,0.0,0.0,0.0,0.0,0.0,0.0,0.0,0.0,0.0,0.0,0.0,0.0,0.0,0.0,0.0,0.0,0.0,0.0,0.0,0.0,0.0,0.0,0.0,0.0,0.0,0.0,0.0,0.0,0.0,0.0,0.0,0.0,0.0,0.0,0.0,0.0,0.0,0.0,0.0,0.0,0.0,0.0,0.0,0.0,0.0,0.0,0.0,0.0,0.0,0.0,0.0,0.0,0.0,0.0,0.0,0.0,0.0,0.0,0.0,0.0,0.0,0.0,0.0,0.0,0.0,0.0,0.0,0.0,0.0,0.0,0.0,0.0,0.0,0.0,0.0,0.0,0.0,0.0,0.0,0.0,0.0,0.0,0.0,0.0,0.0,0.0,0.0,0.0,0.0,0.0,0.0,0.0,0.0,0.0,0.0,0.0,0.0,0.0,0.0,0.0,0.0,0.0,0.0,0.0,0.0,0.0,0.0,0.0,0.0,0.0,0.0,0.0,0.0,0.0,0.0,0.0,0.0,0.0,0.0,0.0,0.0,0.0,0.0,0.0,0.0,0.0,0.0,0.0,0.0,0.0,0.0,0.0,0.0,0.0,0.0,0.0,0.0,0.0,0.0,0.0,0.0,0.0,0.0,0.0,0.0,0.0,0.0,0.0,0.0,0.0,0.0,0.0,0.0,0.0,0.0,0.0,0.0,0.0,0.0,0.0,0.0,0.0,0.0,0.0,0.0,0.0,0.0,0.0,0.0,0.0,0.0,0.0,0.0,0.0,0.0,0.0,0.0,0.0,0.0,0.0,0.0,0.0,0.0,0.0,0.0,0.0,0.0,0.0,0.0,0.0,0.0,0.0,0.0,0.0,0.0,0.0,0.0,0.0,0.0,0.0,0.0,0.0,0.0,0.0,0.0,0.0,0.0,0.0,0.0,0.0,0.0,0.0,0.0,0.0,0.0,0.0,0.0,0.0,0.0,0.0,0.0,0.0,0.0,0.0,0.0,0.0,0.0,0.0,0.0,0.0,0.0,0.0,0.0,0.0,0.0,0.0,0.0,0.0,0.0,0.0,0.0,0.0,0.0,0.0,0.0,0.0,0.0,0.0,0.0,0.0,0.0,0.0,0.0,0.0,0.0,0.0,0.0,0.0,0.0,0.0,0.0,0.0,0.0,0.0,0.0,0.0,0.0,0.0,0.0,0.0,0.0,0.0,0.0,0.0,0.0,0.0,0.0,0.0,0.0,0.0,0.0,0.0,0.0,0.0,0.0,0.0,0.0,0.0,0.0,0.0,0.0,0.0,0.0,0.0,0.0,0.0,0.0,0.0,0.0,0.0,0.0,0.0,0.0,0.0,0.0,0.0,0.0,0.0,0.0,0.0,0.0,0.0,0.0,0.0,0.0,0.0,0.0,0.0,0.0,0.0,0.0,0.0,0.0,0.0,0.0,0.0,0.0,0.0,0.0,0.0,0.0,0.0,0.0,0.0,0.0,0.0,0.0,0.0,0.0,0.0,0.0,0.0,0.0,0.0,0.0,0.0,0.0,0.0,0.0,0.0,0.0,0.0,0.0,0.0,0.0,0.0,0.0,0.0,0.0,0.0,0.0,0.0,0.0,0.0,0.0,0.0,0.0,0.0,0.0,0.0,0.0,0.0,0.0,0.0,0.0,0.0,0.0,0.0,0.0,0.0,0.0,0.0,0.0,0.0,0.0,0.0,0.0,0.0,0.0,0.0,0.0,0.0,0.0,0.0,0.0,0.0,0.0,0.0,0.0,0.0,0.0,0.0,0.0,0.0,0.0,0.0,0.0,0.0,0.0,0.0,0.0,0.0,0.0,0.0,0.0,0.0,0.0,0.0,0.0,0.0,0.0,0.0,0.0,0.0,0.0,0.0,0.0,0.0,0.0,0.0,0.0,0.0,0.0,0.0,0.0,0.0,0.0,0.0,0.0,0.0,0.0,0.0,0.0,0.0,0.0,0.0,0.0,0.0,0.0,0.0,0.0,0.0,0.0,0.0,0.0,0.0,0.0,0.0,0.0,0.0,0.0,0.0,0.0,0.0,0.0,0.0,0.0,0.0,0.0,0.0,0.0,0.0,0.0,0.0,0.0,0.0,0.0,0.0,0.0,0.0,0.0,0.0,0.0,0.0,0.0,0.0,0.0,0.0,0.0,0.0,0.0,0.0,0.0,0.0,0.0,0.0,0.0,0.0,0.0,0.0,0.0,0.0,0.0,0.0,0.0,0.0,0.0,0.0,0.0,0.0,0.0,0.0,0.0,0.0,0.0,0.0,0.0,0.0,0.0,0.0,0.0,0.0,0.0,0.0,0.0,0.0,0.0,0.0,0.0,0.0,0.0,0.0,0.0,0.0,0.0,0.0,0.0,0.0,0.0,0.0,0.0,0.0,0.0,0.0,0.0,0.0,0.0,0.0,0.0,0.0,0.0,0.0,0.0,0.0,0.0,0.0,0.0,0.0,0.0,0.0,0.0,0.0,0.0,0.0,0.0,0.0,0.0,0.0,0.0,0.0,0.0,0.0,0.0,0.0,0.0,0.0,0.0,0.0,0.0,0.0,0.0,0.0,0.0,0.0,0.0,-1.5313,0.0,0.0,0.0,0.0,0.0,0.0,0.0,0.0,0.0,0.0,0.0,0.0,0.0,0.0,0.0,0.0,0.0,0.0,0.0,0.0,0.0,0.0,0.0,0.0,0.0,0.0,0.0,0.0,0.0,0.0,0.0,0.0,0.0,0.0,0.0,0.0,0.0,0.0,0.0,0.0,0.0,0.0,0.0,0.0,0.0,0.0,0.0,0.0,0.0,0.0,0.0,0.0,0.0,0.0,0.0,0.0,0.0,0.0,0.0,0.0,0.0,0.0,0.0,0.0,0.0,0.0,0.0,0.0,0.0,0.0,0.0,0.0,0.0,0.0,0.0,0.0,0.0,0.0,0.0,0.0,0.0,0.0,0.0,0.0,0.0,0.0,0.0,0.0,0.0,0.0,0.0,0.0,0.0,0.0,0.0,0.0,0.0,0.0,0.0,0.0,0.0,0.0,0.0,0.0,0.0,0.0,0.0,0.0,0.0,0.0,-1.5288,-1.5283,-1.5326,-1.5326,-1.5299,0.0,0.0,0.0,0.0,0.0,0.0,0.0,0.0,0.0,0.0,0.0,0.0,0.0,0.0,0.0,0.0,0.0,0.0,0.0,0.0,0.0,0.0,0.0,0.0,0.0,0.0,0.0,0.0,0.0,0.0,0.0,0.0,0.0,0.0,0.0,0.0,0.0,0.0,0.0,0.0,0.0,0.0,0.0,0.0,0.0,0.0,0.0,0.0,0.0,0.0,0.0,0.0,0.0,0.0,0.0,0.0,0.0,0.0,0.0,0.0,0.0,0.0,0.0,0.0,0.0,0.0,0.0,0.0,0.0,0.0,0.0,0.0,0.0,0.0,0.0,0.0,0.0,0.0,0.0,0.0,0.0,0.0,0.0,0.0,0.0,0.0,0.0,0.0,0.0,0.0,0.0,0.0,0.0,0.0,0.0,0.0,0.0,0.0,0.0,0.0,0.0,0.0,0.0,0.0,0.0,0.0,0.0,0.0,0.0,0.0,0.0,0.0,-1.5961,-1.5875,-1.5875,0.0,0.0,0.0,0.0,0.0,0.0,0.0,0.0,0.0,0.0,0.0,0.0,0.0,0.0,0.0,0.0,0.0,0.0,0.0,0.0,0.0,0.0,0.0,0.0,0.0,0.0,0.0,0.0,0.0,0.0,0.0,0.0,0.0,0.0,0.0,0.0,0.0,0.0,0.0,0.0,0.0,0.0,0.0,0.0,0.0,0.0,0.0,0.0,0.0,0.0,0.0,0.0,0.0,0.0,0.0,0.0,0.0,0.0,0.0,0.0,0.0,0.0,0.0,0.0,0.0,0.0,0.0,0.0,0.0,0.0,0.0,0.0,0.0,0.0,0.0,0.0,0.0,0.0,0.0,0.0,0.0,0.0,0.0,0.0,0.0,0.0,0.0,0.0,0.0,0.0,0.0,0.0,0.0,0.0,0.0,0.0,0.0,0.0,0.0,0.0,0.0,0.0,0.0,0.0,0.0,0.0,0.0,0.0,0.0,0.0,-1.6386,-1.8568,-1.7941,0.0,-1.7587,0.0,0.0,0.0,0.0,0.0,0.0,0.0,0.0,0.0,0.0,0.0,0.0,0.0,0.0,0.0,0.0,0.0,0.0,0.0,0.0,0.0,0.0,0.0,0.0,0.0,0.0,0.0,0.0,0.0,0.0,0.0,0.0,0.0,0.0,0.0,0.0,0.0,0.0,0.0,0.0,0.0,0.0,0.0,0.0,0.0,0.0,0.0,0.0,0.0,0.0,0.0,0.0,0.0,0.0,0.0,0.0,0.0,0.0,0.0,0.0,0.0,0.0,0.0,0.0,0.0,0.0,0.0,0.0,0.0,0.0,0.0,0.0,0.0,0.0,0.0,0.0,0.0,0.0,0.0,0.0,0.0,0.0,0.0,0.0,0.0,0.0,0.0,0.0,0.0,0.0,0.0,0.0,0.0,0.0,0.0,0.0,0.0,0.0,0.0,0.0,0.0,0.0,0.0,0.0,0.0,0.0,0.0,0.0,0.0,0.0,0.0,-1.8215,-1.7908,-1.7744,0.0,0.0,0.0,0.0,0.0,0.0,0.0,0.0,0.0,0.0,0.0,0.0,0.0,0.0,0.0,0.0,0.0,0.0,0.0,0.0,0.0,0.0,0.0,0.0,0.0,0.0,0.0,0.0,0.0,0.0,0.0,0.0,0.0,0.0,0.0,0.0,0.0,0.0,0.0,0.0,0.0,0.0,0.0,0.0,0.0,0.0,0.0,0.0,0.0,0.0,0.0,0.0,0.0,0.0,0.0,0.0,0.0,0.0,0.0,0.0,0.0,0.0,0.0,0.0,0.0,0.0,0.0,0.0,0.0,0.0,0.0,0.0,0.0,0.0,0.0,0.0,0.0,0.0,0.0,0.0,0.0,0.0,0.0,0.0,0.0,0.0,0.0,0.0,0.0,0.0,0.0,0.0,0.0,0.0,0.0,0.0,0.0,0.0,0.0,0.0,0.0,0.0,0.0,0.0,0.0,0.0,0.0,0.0,0.0,0.0,-1.8054,0.0,-1.843,-1.8427,-1.8199,-1.7722,0.0,0.0,0.0,0.0,0.0,0.0,0.0,0.0,0.0,0.0,0.0,0.0,0.0,0.0,0.0,0.0,0.0,0.0,0.0,0.0,0.0,0.0,0.0,0.0,0.0,0.0,0.0,0.0,0.0,0.0,0.0,0.0,0.0,0.0,0.0,0.0,0.0,0.0,0.0,0.0,0.0,0.0,0.0,0.0,0.0,0.0,0.0,0.0,0.0,0.0,0.0,0.0,0.0,0.0,0.0,0.0,0.0,0.0,0.0,0.0,0.0,0.0,0.0,0.0,0.0,0.0,0.0,0.0,0.0,0.0,0.0,0.0,0.0,0.0,0.0,0.0,0.0,0.0,0.0,0.0,0.0,0.0,0.0,0.0,0.0,0.0,0.0,0.0,0.0,0.0,0.0,0.0,0.0,0.0,0.0,0.0,0.0,0.0,0.0,0.0,0.0,0.0,0.0,0.0,0.0,0.0,0.0,0.0,0.0,-1.893,-1.8542,-2.0154,-2.0173,-1.9408,0.0,0.0,0.0,0.0,0.0,0.0,0.0,0.0,0.0,0.0,0.0,0.0,0.0,0.0,0.0,0.0,0.0,0.0,0.0,0.0,0.0,0.0,0.0,0.0,0.0,0.0,0.0,0.0,0.0,0.0,0.0,0.0,0.0,0.0,0.0,0.0,0.0,0.0,0.0,0.0,0.0,0.0,0.0,0.0,0.0,0.0,0.0,0.0,0.0,0.0,0.0,0.0,0.0,0.0,0.0,0.0,0.0,0.0,0.0,0.0,0.0,0.0,0.0,0.0,0.0,0.0,0.0,0.0,0.0,0.0,0.0,0.0,0.0,0.0,0.0,0.0,0.0,0.0,0.0,0.0,0.0,0.0,0.0,0.0,0.0,0.0,0.0,0.0,0.0,0.0,0.0,0.0,0.0,0.0,0.0,0.0,0.0,0.0,0.0,0.0,0.0,0.0,0.0,0.0,0.0,0.0,0.0,0.0,0.0,-1.7385,-1.7584,-1.9315,0.0,-2.0085,-1.8873,0.0,0.0,0.0,0.0,0.0,0.0,0.0,0.0,0.0,0.0,0.0,0.0,0.0,0.0,0.0,0.0,0.0,0.0,0.0,0.0,0.0,0.0,0.0,0.0,0.0,0.0,0.0,0.0,0.0,0.0,0.0,0.0,0.0,0.0,0.0,0.0,0.0,0.0,0.0,0.0,0.0,0.0,0.0,0.0,0.0,0.0,0.0,0.0,0.0,0.0,0.0,0.0,0.0,0.0,0.0,0.0,0.0,0.0,0.0,0.0,0.0,0.0,0.0,0.0,0.0,0.0,0.0,0.0,0.0,0.0,0.0,0.0,0.0,0.0,0.0,0.0,0.0,0.0,0.0,0.0,0.0,0.0,0.0,0.0,0.0,0.0,0.0,0.0,0.0,0.0,0.0,0.0,0.0,0.0,0.0,0.0,0.0,0.0,0.0,0.0,0.0,0.0,0.0,0.0,0.0,0.0,0.0,0.0,0.0,-1.6846,0.0,-2.0489,0.0,-2.0085,-1.8581,0.0,0.0,0.0,0.0,0.0,0.0,0.0,0.0,0.0,0.0,0.0,0.0,0.0,0.0,0.0,0.0,0.0,0.0,0.0,0.0,0.0,0.0,0.0,0.0,0.0,0.0,0.0,0.0,0.0,0.0,0.0,0.0,0.0,0.0,0.0,0.0,0.0,0.0,0.0,0.0,0.0,0.0,0.0,0.0,0.0,0.0,0.0,0.0,0.0,0.0,0.0,0.0,0.0,0.0,0.0,0.0,0.0,0.0,0.0,0.0,0.0,0.0,0.0,0.0,0.0,0.0,0.0,0.0,0.0,0.0,0.0,0.0,0.0,0.0,0.0,0.0,0.0,0.0,0.0,0.0,0.0,0.0,0.0,0.0,0.0,0.0,0.0,0.0,0.0,0.0,0.0,0.0,0.0,0.0,0.0,0.0,0.0,0.0,0.0,0.0,0.0,0.0,0.0,0.0,0.0,0.0,0.0,0.0,0.0,-2.0096,-2.1758,-2.1932,-2.0442,-2.025,-1.8692,0.0,0.0,0.0,0.0,0.0,0.0,0.0,0.0,0.0,0.0,0.0,0.0,0.0,0.0,0.0,0.0,0.0,0.0,0.0,0.0,0.0,0.0,0.0,0.0,0.0,0.0,0.0,0.0,0.0,0.0,0.0,0.0,0.0,0.0,0.0,0.0,0.0,0.0,0.0,0.0,0.0,0.0,0.0,0.0,0.0,0.0,0.0,0.0,0.0,0.0,0.0,0.0,0.0,0.0,0.0,0.0,0.0,0.0,0.0,0.0,0.0,0.0,0.0,0.0,0.0,0.0,0.0,0.0,0.0,0.0,0.0,0.0,0.0,0.0,0.0,0.0,0.0,0.0,0.0,0.0,0.0,0.0,0.0,0.0,0.0,0.0,0.0,0.0,0.0,0.0,0.0,0.0,0.0,0.0,0.0,0.0,0.0,0.0,0.0,0.0,0.0,0.0,0.0,0.0,0.0,0.0,0.0,0.0,0.0,-1.8561,-2.0716,-2.2216,-2.2778,-2.0046,-1.8831,0.0,0.0,0.0,0.0,0.0,0.0,0.0,0.0,0.0,0.0,0.0,0.0,0.0,0.0,0.0,0.0,0.0,0.0,0.0,0.0,0.0,0.0,0.0,0.0,0.0,0.0,0.0,0.0,0.0,0.0,0.0,0.0,0.0,0.0,0.0,0.0,0.0,0.0,0.0,0.0,0.0,0.0,0.0,0.0,0.0,0.0,0.0,0.0,0.0,0.0,0.0,0.0,0.0,0.0,0.0,0.0,0.0,0.0,0.0,0.0,0.0,0.0,0.0,0.0,0.0,0.0,0.0,0.0,0.0,0.0,0.0,0.0,0.0,0.0,0.0,0.0,0.0,0.0,0.0,0.0,0.0,0.0,0.0,0.0,0.0,0.0,0.0,0.0,0.0,0.0,0.0,0.0,0.0,0.0,0.0,0.0,0.0,0.0,0.0,0.0,0.0,0.0,0.0,0.0,0.0,0.0,0.0,0.0,0.0,-2.0235,-2.2581,-2.3947,-2.4105,-2.0854,-1.9427,-1.9985,0.0,0.0,0.0,0.0,0.0,0.0,0.0,0.0,0.0,0.0,0.0,0.0,0.0,0.0,0.0,0.0,0.0,0.0,0.0,0.0,0.0,0.0,0.0,0.0,0.0,0.0,0.0,0.0,0.0,0.0,0.0,0.0,0.0,0.0,0.0,0.0,0.0,0.0,0.0,0.0,0.0,0.0,0.0,0.0,0.0,0.0,0.0,0.0,0.0,0.0,0.0,0.0,0.0,0.0,0.0,0.0,0.0,0.0,0.0,0.0,0.0,0.0,0.0,0.0,0.0,0.0,0.0,0.0,0.0,0.0,0.0,0.0,0.0,0.0,0.0,0.0,0.0,0.0,0.0,0.0,0.0,0.0,0.0,0.0,0.0,0.0,0.0,0.0,0.0,0.0,0.0,0.0,0.0,0.0,0.0,0.0,0.0,0.0,0.0,0.0,0.0,0.0,0.0,0.0,0.0,0.0,0.0,0.0,-2.4139,-2.6697,-2.6856,-2.4495,-2.2566,-2.0446,0.0,0.0,0.0,0.0,0.0,0.0,0.0,0.0,0.0,0.0,0.0,0.0,0.0,0.0,0.0,0.0,0.0,0.0,0.0,0.0,0.0,0.0,0.0,0.0,0.0,0.0,0.0,0.0,0.0,0.0,0.0,0.0,0.0,0.0,0.0,0.0,0.0,0.0,0.0,0.0,0.0,0.0,0.0,0.0,0.0,0.0,0.0,0.0,0.0,0.0,0.0,0.0,0.0,0.0,0.0,0.0,0.0,0.0,0.0,0.0,0.0,0.0,0.0,0.0,0.0,0.0,0.0,0.0,0.0,0.0,0.0,0.0,0.0,0.0,0.0,0.0,0.0,0.0,0.0,0.0,0.0,0.0,0.0,0.0,0.0,0.0,0.0,0.0,0.0,0.0,0.0,0.0,0.0,0.0,0.0,0.0,0.0,0.0,0.0,0.0,0.0,0.0,0.0,0.0,0.0,0.0,0.0,0.0,0.0,-2.4867,-2.8038,-2.9121,-2.7761,-2.4317,-2.2143,0.0,0.0,0.0,0.0,0.0,0.0,0.0,0.0,0.0,0.0,0.0,0.0,0.0,0.0,0.0,0.0,0.0,0.0,0.0,0.0,0.0,0.0,0.0,0.0,0.0,0.0,0.0,0.0,0.0,0.0,0.0,0.0,0.0,0.0,0.0,0.0,0.0,0.0,0.0,0.0,0.0,0.0,0.0,0.0,0.0,0.0,0.0,0.0,0.0,0.0,0.0,0.0,0.0,0.0,0.0,0.0,0.0,0.0,0.0,0.0,0.0,0.0,0.0,0.0,0.0,0.0,0.0,0.0,0.0,0.0,0.0,0.0,0.0,0.0,0.0,0.0,0.0,0.0,0.0,0.0,0.0,0.0,0.0,0.0,0.0,0.0,0.0,0.0,0.0,0.0,0.0,0.0,0.0,0.0,0.0,0.0,0.0,0.0,0.0,0.0,0.0,0.0,0.0,0.0,0.0,0.0,0.0,0.0,-2.4081,-2.674,-2.9034,-3.0043,-2.966,-2.6236,-2.3716,0.0,0.0,0.0,0.0,0.0,0.0,0.0,0.0,0.0,0.0,0.0,0.0,0.0,0.0,0.0,0.0,0.0,0.0,0.0,0.0,0.0,0.0,0.0,0.0,0.0,0.0,0.0,0.0,0.0,0.0,0.0,0.0,0.0,0.0,0.0,0.0,0.0,0.0,0.0,0.0,0.0,0.0,0.0,0.0,0.0,0.0,0.0,0.0,0.0,0.0,0.0,0.0,0.0,0.0,0.0,0.0,0.0,0.0,0.0,0.0,0.0,0.0,0.0,0.0,0.0,0.0,0.0,0.0,0.0,0.0,0.0,0.0,0.0,0.0,0.0,0.0,0.0,0.0,0.0,0.0,0.0,0.0,0.0,0.0,0.0,0.0,0.0,0.0,0.0,0.0,0.0,0.0,0.0,0.0,0.0,0.0,0.0,0.0,0.0,0.0,0.0,0.0,0.0,0.0,0.0,0.0,0.0,0.0,-2.5192,-2.8795,-2.9625,-3.0122,-3.0259,-2.7995,-2.5154,0.0,0.0,0.0,0.0,0.0,0.0,0.0,0.0,0.0,0.0,0.0,0.0,0.0,0.0,0.0,0.0,0.0,0.0,0.0,0.0,0.0,0.0,0.0,0.0,0.0,0.0,0.0,0.0,0.0,0.0,0.0,0.0,0.0,0.0,0.0,0.0,0.0,0.0,0.0,0.0,0.0,0.0,0.0,0.0,0.0,0.0,0.0,0.0,0.0,0.0,0.0,0.0,0.0,0.0,0.0,0.0,0.0,0.0,0.0,0.0,0.0,0.0,0.0,0.0,0.0,0.0,0.0,0.0,0.0,0.0,0.0,0.0,0.0,0.0,0.0,0.0,0.0,0.0,0.0,0.0,0.0,0.0,0.0,0.0,0.0,0.0,0.0,0.0,0.0,0.0,0.0,0.0,0.0,0.0,0.0,0.0,0.0,0.0,0.0,0.0,0.0,0.0,0.0,0.0,0.0,0.0,0.0,0.0,-2.5319,-2.7562,-2.9159,-3.0021,-3.0082,-2.8476,-2.6277,0.0,0.0,0.0,0.0,0.0,0.0,0.0,0.0,0.0,0.0,0.0,0.0,0.0,0.0,0.0,0.0,0.0,0.0,0.0,0.0,0.0,0.0,0.0,0.0,0.0,0.0,0.0,0.0,0.0,0.0,0.0,0.0,0.0,0.0,0.0,0.0,0.0,0.0,0.0,0.0,0.0,0.0,0.0,0.0,0.0,0.0,0.0,0.0,-1.7321,0.0,0.0,0.0,0.0,0.0,0.0,0.0,0.0,0.0,0.0,0.0,0.0,0.0,0.0,0.0,0.0,0.0,0.0,0.0,0.0,0.0,0.0,0.0,0.0,0.0,0.0,0.0,0.0,0.0,0.0,0.0,0.0,0.0,0.0,0.0,0.0,0.0,0.0,0.0,0.0,0.0,0.0,0.0,0.0,0.0,0.0,0.0,0.0,0.0,0.0,0.0,0.0,0.0,0.0,0.0,0.0,0.0,0.0,0.0,-2.6049,-2.8313,-2.9252,-2.9804,-2.9961,-2.9257,-2.7273,0.0,0.0,0.0,0.0,0.0,0.0,0.0,0.0,0.0,0.0,0.0,0.0,0.0,0.0,0.0,0.0,0.0,0.0,0.0,0.0,0.0,0.0,0.0,0.0,0.0,0.0,0.0,0.0,0.0,0.0,0.0,0.0,0.0,0.0,0.0,0.0,0.0,0.0,0.0,0.0,0.0,0.0,0.0,0.0,0.0,0.0,0.0,0.0,0.0,0.0,0.0,0.0,0.0,0.0,0.0,0.0,0.0,0.0,0.0,0.0,0.0,0.0,0.0,0.0,0.0,0.0,0.0,0.0,0.0,0.0,0.0,0.0,0.0,0.0,0.0,0.0,0.0,0.0,0.0,0.0,0.0,0.0,0.0,0.0,0.0,0.0,0.0,0.0,0.0,0.0,0.0,0.0,0.0,0.0,0.0,0.0,0.0,0.0,0.0,0.0,0.0,0.0,0.0,0.0,0.0,0.0,0.0,-2.4321,-2.6634,-2.9439,-2.9465,-2.9561,-2.9901,-2.9969,-2.8086,-2.4086,0.0,0.0,0.0,0.0,0.0,0.0,0.0,0.0,0.0,0.0,0.0,0.0,0.0,0.0,0.0,0.0,0.0,0.0,0.0,0.0,0.0,0.0,0.0,0.0,0.0,0.0,0.0,0.0,0.0,0.0,0.0,0.0,0.0,0.0,0.0,0.0,0.0,0.0,-1.6953,-1.9336,0.0,0.0,0.0,0.0,0.0,0.0,0.0,0.0,-1.8945,0.0,0.0,0.0,0.0,0.0,0.0,0.0,0.0,0.0,0.0,0.0,0.0,0.0,0.0,0.0,0.0,0.0,0.0,0.0,0.0,0.0,0.0,0.0,0.0,0.0,0.0,0.0,0.0,0.0,0.0,0.0,0.0,0.0,0.0,0.0,0.0,0.0,0.0,0.0,0.0,0.0,0.0,0.0,0.0,0.0,0.0,0.0,0.0,0.0,0.0,0.0,0.0,0.0,0.0,0.0,0.0,-2.4531,-2.4472,-2.5929,-2.9023,-2.931,-2.9434,-2.9504,-2.9829,-2.8226,-2.4602,0.0,0.0,0.0,0.0,0.0,0.0,0.0,0.0,0.0,0.0,0.0,0.0,0.0,0.0,0.0,0.0,0.0,0.0,0.0,0.0,0.0,0.0,0.0,0.0,0.0,0.0,0.0,0.0,0.0,0.0,0.0,0.0,0.0,0.0,0.0,0.0,0.0,0.0,0.0,-2.1034,-2.2461,0.0,0.0,0.0,0.0,0.0,0.0,0.0,0.0,-1.9656,0.0,0.0,0.0,0.0,0.0,0.0,0.0,0.0,0.0,0.0,0.0,0.0,0.0,0.0,0.0,0.0,0.0,0.0,0.0,0.0,0.0,0.0,0.0,0.0,0.0,0.0,0.0,0.0,0.0,0.0,0.0,0.0,0.0,0.0,0.0,0.0,0.0,0.0,0.0,0.0,0.0,0.0,0.0,0.0,0.0,0.0,0.0,0.0,0.0,0.0,0.0,0.0,0.0,0.0,0.0,-2.3135,-2.5092,-2.7016,-2.8913,-2.9134,-2.9257,-2.9365,-2.8743,-2.7169,0.0,0.0,0.0,0.0,0.0,0.0,0.0,0.0,0.0,0.0,0.0,0.0,0.0,0.0,0.0,0.0,0.0,0.0,0.0,0.0,0.0,0.0,0.0,0.0,0.0,0.0,0.0,0.0,0.0,0.0,0.0,0.0,0.0,0.0,0.0,0.0,0.0,0.0,0.0,0.0,-2.2714,-2.3945,-2.4431,0.0,0.0,0.0,0.0,0.0,0.0,-2.1994,-2.1285,0.0,0.0,0.0,0.0,0.0,0.0,0.0,0.0,0.0,0.0,0.0,0.0,0.0,0.0,0.0,0.0,0.0,0.0,0.0,0.0,0.0,0.0,0.0,0.0,0.0,0.0,0.0,0.0,0.0,0.0,0.0,0.0,0.0,0.0,0.0,0.0,0.0,0.0,0.0,0.0,0.0,0.0,0.0,0.0,0.0,0.0,0.0,0.0,0.0,0.0,0.0,0.0,0.0,0.0,0.0,-2.1514,-2.5319,-2.786,-2.8932,-2.8987,-2.91,-2.9272,-2.8089,-2.6404,0.0,0.0,0.0,0.0,0.0,0.0,0.0,0.0,0.0,0.0,0.0,0.0,0.0,0.0,0.0,0.0,0.0,0.0,0.0,0.0,0.0,0.0,0.0,0.0,0.0,0.0,0.0,0.0,0.0,0.0,0.0,0.0,0.0,0.0,0.0,0.0,0.0,0.0,0.0,0.0,0.0,-2.5819,-2.6815,-2.5761,0.0,0.0,0.0,0.0,-2.3862,-2.3905,0.0,0.0,0.0,0.0,0.0,0.0,0.0,0.0,0.0,0.0,0.0,0.0,0.0,0.0,0.0,0.0,0.0,0.0,0.0,0.0,0.0,0.0,0.0,0.0,0.0,0.0,0.0,0.0,0.0,0.0,0.0,0.0,0.0,0.0,0.0,0.0,0.0,0.0,0.0,0.0,0.0,0.0,0.0,0.0,0.0,0.0,0.0,0.0,0.0,0.0,0.0,0.0,0.0,0.0,0.0,0.0,-2.1243,-2.4162,-2.6751,-2.8858,-2.8987,-2.9017,-2.9062,-2.9093,-2.7249,0.0,0.0,0.0,0.0,0.0,0.0,0.0,0.0,0.0,0.0,0.0,0.0,0.0,0.0,0.0,0.0,0.0,0.0,0.0,0.0,0.0,0.0,0.0,0.0,0.0,0.0,0.0,0.0,0.0,0.0,0.0,0.0,0.0,0.0,0.0,0.0,0.0,0.0,0.0,0.0,0.0,-2.8416,-2.7092,-2.6781,-2.6652,0.0,0.0,-2.5781,-2.7351,-2.6958,0.0,0.0,0.0,0.0,0.0,0.0,0.0,0.0,0.0,0.0,0.0,0.0,0.0,0.0,0.0,0.0,0.0,0.0,0.0,0.0,0.0,0.0,0.0,0.0,0.0,0.0,0.0,0.0,0.0,0.0,0.0,0.0,0.0,0.0,0.0,0.0,0.0,0.0,0.0,0.0,0.0,0.0,0.0,0.0,0.0,0.0,0.0,0.0,0.0,0.0,0.0,0.0,0.0,0.0,0.0,-2.0365,-2.1898,-2.5535,-2.7941,-2.895,-2.8987,-2.8987,-2.8987,-2.822,-2.6304,0.0,0.0,0.0,0.0,0.0,0.0,0.0,0.0,0.0,0.0,0.0,0.0,0.0,0.0,0.0,0.0,0.0,0.0,0.0,0.0,0.0,0.0,0.0,0.0,0.0,0.0,0.0,0.0,0.0,0.0,0.0,0.0,0.0,0.0,0.0,0.0,0.0,0.0,0.0,0.0,0.0,0.0,-2.894,-2.8711,0.0,0.0,0.0,-2.7893,-2.8095,0.0,0.0,0.0,0.0,0.0,0.0,0.0,0.0,0.0,0.0,0.0,0.0,0.0,0.0,0.0,0.0,0.0,0.0,0.0,0.0,0.0,0.0,0.0,0.0,0.0,0.0,0.0,0.0,0.0,0.0,0.0,0.0,0.0,0.0,0.0,0.0,0.0,0.0,0.0,0.0,0.0,0.0,0.0,0.0,0.0,0.0,0.0,0.0,0.0,0.0,0.0,0.0,0.0,0.0,0.0,0.0,0.0,-2.2357,-2.6727,-2.8987,-2.8987,-2.8987,-2.8987,-2.8968,-2.7831,0.0,0.0,0.0,0.0,0.0,0.0,0.0,0.0,0.0,0.0,0.0,0.0,0.0,0.0,0.0,0.0,0.0,0.0,0.0,0.0,0.0,0.0,0.0,0.0,0.0,0.0,0.0,-1.2776,0.0,0.0,0.0,0.0,0.0,0.0,0.0,0.0,0.0,0.0,0.0,0.0,0.0,0.0,-2.8226,-3.013,-3.0055,-2.9809,0.0,0.0,-2.9471,-2.8786,-2.9175,-2.833,0.0,0.0,0.0,0.0,0.0,0.0,0.0,0.0,0.0,0.0,0.0,0.0,0.0,0.0,0.0,0.0,0.0,0.0,0.0,0.0,0.0,0.0,0.0,0.0,0.0,0.0,0.0,0.0,0.0,0.0,0.0,0.0,0.0,0.0,0.0,0.0,0.0,0.0,0.0,0.0,0.0,0.0,0.0,0.0,0.0,0.0,0.0,0.0,0.0,0.0,0.0,0.0,0.0,0.0,0.0,-2.2422,-2.6709,-2.8987,-2.8987,-2.8987,-2.8987,-2.8987,-2.8913,-2.7005,0.0,0.0,0.0,0.0,0.0,0.0,0.0,0.0,0.0,0.0,0.0,0.0,0.0,0.0,0.0,0.0,0.0,0.0,0.0,0.0,0.0,0.0,0.0,0.0,0.0,0.0,0.0,0.0,0.0,0.0,0.0,0.0,0.0,0.0,0.0,0.0,0.0,0.0,0.0,0.0,0.0,-2.9318,-2.9545,-3.0171,-3.0618,0.0,0.0,-3.0461,-3.0354,-3.0372,-2.9173,-2.5539,0.0,0.0,0.0,0.0,0.0,0.0,0.0,0.0,0.0,0.0,0.0,0.0,0.0,0.0,0.0,0.0,0.0,0.0,0.0,0.0,0.0,0.0,0.0,0.0,0.0,0.0,0.0,0.0,0.0,0.0,0.0,0.0,0.0,0.0,0.0,0.0,0.0,0.0,0.0,0.0,0.0,0.0,0.0,0.0,0.0,0.0,0.0,0.0,0.0,0.0,0.0,0.0,0.0,-2.178,-2.3015,-2.697,-2.8987,-2.8987,-2.8987,-2.8987,-2.8987,-2.8987,-2.7354,0.0,0.0,0.0,0.0,0.0,0.0,0.0,0.0,0.0,0.0,0.0,0.0,0.0,0.0,0.0,0.0,0.0,0.0,0.0,0.0,0.0,0.0,0.0,0.0,0.0,0.0,0.0,0.0,-1.4494,-1.4631,-1.4871,0.0,0.0,0.0,0.0,0.0,0.0,0.0,0.0,0.0,0.0,-3.0288,-3.0847,-3.1201,0.0,0.0,-3.1398,-3.1146,-3.0585,-3.0766,-3.0158,-2.7733,-2.6963,0.0,0.0,0.0,0.0,0.0,0.0,0.0,0.0,0.0,0.0,0.0,0.0,0.0,0.0,0.0,0.0,0.0,0.0,0.0,0.0,0.0,0.0,0.0,0.0,0.0,0.0,0.0,0.0,0.0,0.0,0.0,0.0,0.0,0.0,0.0,0.0,0.0,0.0,0.0,0.0,0.0,0.0,0.0,0.0,0.0,0.0,0.0,0.0,0.0,0.0,0.0,0.0,-2.1807,-2.3421,-2.6975,-2.8893,-2.8987,-2.8987,-2.8987,-2.8987,-2.8987,-2.7703,0.0,0.0,0.0,0.0,0.0,0.0,0.0,0.0,0.0,0.0,0.0,0.0,0.0,0.0,0.0,0.0,0.0,0.0,0.0,0.0,0.0,0.0,0.0,0.0,0.0,0.0,0.0,0.0,-1.4956,-1.4894,-1.4713,0.0,0.0,0.0,0.0,0.0,0.0,0.0,0.0,0.0,0.0,-3.0434,-3.1316,-3.1429,-3.1487,-3.1712,-3.1414,-3.103,-3.0677,-3.0932,-3.0592,-2.8878,0.0,0.0,0.0,0.0,0.0,0.0,0.0,0.0,0.0,0.0,0.0,0.0,0.0,0.0,0.0,0.0,0.0,0.0,0.0,0.0,0.0,0.0,0.0,0.0,0.0,0.0,0.0,0.0,0.0,0.0,-1.3673,0.0,0.0,0.0,0.0,0.0,0.0,0.0,0.0,0.0,0.0,0.0,0.0,0.0,0.0,0.0,0.0,0.0,0.0,0.0,0.0,0.0,0.0,0.0,-2.341,-2.6723,-2.8615,-2.8975,-2.8987,-2.8987,-2.8987,-2.8987,-2.8216,-2.6528,0.0,0.0,0.0,0.0,0.0,0.0,0.0,0.0,0.0,0.0,0.0,0.0,0.0,0.0,0.0,0.0,0.0,0.0,0.0,0.0,0.0,0.0,0.0,0.0,0.0,0.0,-1.4895,-1.4885,-1.4859,0.0,0.0,0.0,0.0,0.0,0.0,0.0,0.0,0.0,0.0,-2.8159,-2.961,-3.0545,-3.0457,-3.0671,-3.1385,-3.0529,-3.0052,-3.0807,-3.0931,-3.0264,0.0,0.0,0.0,0.0,0.0,0.0,0.0,0.0,0.0,0.0,0.0,0.0,0.0,0.0,0.0,0.0,0.0,0.0,0.0,0.0,0.0,0.0,0.0,0.0,0.0,0.0,0.0,-1.8933,-1.8067,0.0,0.0,0.0,0.0,0.0,0.0,0.0,0.0,0.0,0.0,0.0,-2.4037,-2.5737,0.0,0.0,0.0,0.0,0.0,0.0,0.0,0.0,0.0,0.0,0.0,0.0,-2.2536,-2.4189,-2.7194,-2.8863,-2.9005,-2.8987,-2.8987,-2.8987,-2.8987,-2.7996,-2.587,0.0,0.0,0.0,0.0,0.0,0.0,0.0,0.0,0.0,0.0,0.0,0.0,0.0,0.0,0.0,0.0,0.0,0.0,0.0,0.0,0.0,0.0,0.0,0.0,0.0,-1.4841,0.0,0.0,0.0,0.0,0.0,0.0,0.0,0.0,0.0,0.0,0.0,-2.7541,-2.8198,-3.0739,-3.2428,-3.2182,-3.2553,-3.2891,0.0,0.0,0.0,0.0,0.0,0.0,0.0,0.0,0.0,0.0,0.0,0.0,0.0,0.0,-2.8521,-2.4538,-2.3318,-2.3033,-2.3327,0.0,0.0,0.0,0.0,0.0,0.0,0.0,0.0,0.0,0.0,0.0,0.0,0.0,0.0,-2.1797,0.0,-2.0598,0.0,0.0,0.0,0.0,0.0,0.0,0.0,0.0,-2.5654,-2.7304,-2.7429,-2.9111,-2.9067,0.0,-2.6974,-2.5021,0.0,0.0,0.0,0.0,0.0,0.0,0.0,0.0,-2.3341,-2.5124,-2.752,-2.8851,-2.8994,-2.8987,-2.8987,-2.8987,-2.8987,-2.8124,-2.6292,-2.4961,-2.3354,0.0,0.0,0.0,0.0,0.0,0.0,0.0,0.0,0.0,0.0,0.0,0.0,0.0,0.0,0.0,0.0,0.0,0.0,0.0,0.0,0.0,0.0,0.0,-1.5017,0.0,0.0,0.0,0.0,0.0,0.0,0.0,0.0,0.0,-2.5031,-2.7555,-2.9774,-3.075,-3.2436,-3.3508,-3.324,0.0,0.0,0.0,0.0,0.0,0.0,0.0,-3.2808,-3.2555,-3.2146,-3.1861,-3.1806,-3.2234,-3.2357,-3.1544,0.0,0.0,-2.7376,-2.6484,-2.6355,-2.6641,-2.6982,-2.6974,-2.6265,-2.6609,-2.6728,0.0,0.0,0.0,0.0,0.0,0.0,0.0,0.0,-2.3827,-2.3754,0.0,-2.283,0.0,0.0,0.0,0.0,0.0,-2.3676,0.0,0.0,-2.9582,-3.1376,-3.1345,-3.1351,-3.119,-3.085,-3.0764,-2.9793,-2.7814,-2.3244,0.0,0.0,0.0,0.0,0.0,0.0,-2.4008,-2.6186,-2.7676,-2.8602,-2.8975,-2.8987,-2.8987,-2.8987,-2.8987,-2.862,-2.7842,-2.7016,-2.5519,-2.3226,-2.1465,0.0,0.0,0.0,0.0,0.0,0.0,0.0,0.0,0.0,0.0,0.0,0.0,0.0,0.0,0.0,0.0,0.0,0.0,0.0,0.0,-1.4956,0.0,0.0,0.0,0.0,0.0,0.0,0.0,0.0,0.0,0.0,-2.788,-2.9411,-3.143,-3.3795,0.0,0.0,0.0,0.0,-3.2568,-3.4108,-3.3407,-3.3301,-3.4798,-3.4986,-3.4724,-3.4009,0.0,0.0,-3.3005,-3.2693,-3.2472,-3.1678,-3.1635,-3.1488,-3.1415,-3.0595,-3.0338,-3.1011,-3.0727,-3.0849,-3.1514,-3.1325,-3.1599,-2.9911,0.0,0.0,0.0,0.0,-2.777,-2.8987,-3.1071,-3.0747,-2.963,-2.8037,-2.7973,0.0,0.0,0.0,0.0,0.0,0.0,-2.7773,-2.8888,-3.0543,-3.1428,-3.1748,-3.1696,-3.1671,-3.1661,-3.1657,-3.112,-3.0024,-2.8298,-2.5274,-2.1062,0.0,0.0,0.0,0.0,-2.5799,-2.6989,-2.8209,-2.8875,-2.8987,-2.8987,-2.8987,-2.8987,-2.8987,-2.8895,-2.8668,-2.7879,-2.6869,-2.5593,-2.3465,0.0,0.0,0.0,0.0,0.0,0.0,0.0,0.0,0.0,0.0,0.0,0.0,0.0,0.0,0.0,0.0,0.0,0.0,0.0,-1.5734,-1.6172,-1.6832,0.0,0.0,0.0,0.0,0.0,0.0,0.0,0.0,0.0,-3.2185,-3.3106,-3.3639,0.0,0.0,-3.5434,-3.4499,-3.5066,-3.5679,-3.5957,0.0,0.0,0.0,-3.5408,-3.5151,-3.5514,-3.5771,-3.5771,-3.5312,-3.4729,-3.4252,-3.3977,-3.3513,-3.3109,-3.3036,-3.199,-3.1201,-3.1342,-3.1268,-3.1254,-3.1457,-3.1584,-3.1612,-3.5708,-3.3316,-3.1222,-3.0694,-3.1217,-3.1044,-3.209,-3.3921,-3.3564,-3.2739,-3.1636,-3.1491,-2.9586,-2.6488,-2.6657,0.0,0.0,0.0,-3.0372,-3.128,-3.2396,-3.2945,-3.3036,-3.3404,-3.3307,-3.283,-3.2704,-3.2344,-3.1726,-3.08,-2.852,-2.501,0.0,0.0,-2.4703,-2.6589,-2.7948,-2.8675,-2.9521,-2.9794,-2.9482,-2.917,-2.8987,-2.8987,-2.8987,-2.8987,-2.8987,-2.8558,-2.7915,-2.709,-2.5071,-2.3033,0.0,0.0,0.0,0.0,0.0,0.0,0.0,0.0,0.0,0.0,0.0,-1.6633,0.0,0.0,0.0,0.0,-1.6901,-1.7411,-1.7943,-1.8895,0.0,0.0,0.0,0.0,0.0,0.0,0.0,-3.0157,-3.2437,-3.421,-3.5044,-3.5736,-3.5939,-3.5367,-3.6246,-3.6696,-3.6002,0.0,-3.6832,-3.7002,-3.703,-3.7077,-3.7213,-3.6835,-3.6637,-3.7165,-3.6978,-3.678,-3.6758,-3.6083,-3.5536,-3.5426,-3.4853,-3.427,-3.427,-3.322,-3.2339,-3.237,-3.2357,-3.2339,-3.2339,-3.2357,-3.2357,-4.0538,-3.9451,-3.45,-3.2722,-3.3081,-3.3277,-3.3846,-3.4544,-3.3738,-3.3906,-3.4675,-3.3659,-3.2494,-3.1326,-3.0683,0.0,-3.0533,-3.2307,-3.3116,-3.326,-3.4729,-3.5169,-3.4746,-3.5616,-3.5368,-3.409,-3.3846,-3.3512,-3.3078,-3.1652,-3.0629,-2.9984,-2.9303,-2.9022,-2.9107,-2.9511,-3.0089,-3.0838,-3.1144,-3.0943,-3.021,-2.9464,-2.906,-2.8987,-2.8987,-2.8987,-2.8987,-2.8987,-2.862,-2.7805,-2.6329,-2.4429,-2.2069,0.0,0.0,0.0,0.0,0.0,0.0,0.0,0.0,0.0,0.0,0.0,0.0,0.0,0.0,0.0,-1.9623,0.0,-2.1158,-2.2506,0.0,0.0,0.0,-2.7146,-3.0155,-3.1459,-3.2687,-3.4098,0.0,0.0,-3.6736,0.0,-3.8057,-3.8298,-3.7474,-3.7097,-3.7774,-3.7091,-3.6743,-3.754,-3.7617,-3.786,-3.8414,-3.8524,-3.8456,-3.841,-3.805,-3.7606,-3.7469,-3.6909,-3.6431,-3.6395,-3.5683,-3.5096,-3.5096,-3.4417,-3.3899,-3.3862,-3.3788,-3.3752,-3.3697,-3.366,-3.366,-3.9681,-3.9373,-3.772,-3.7455,-3.8033,-3.6849,-3.6739,-3.7338,-3.6698,-3.5749,-3.459,-3.4705,-3.406,-3.2865,-3.2696,-3.2933,-3.3474,-3.3943,-3.4444,-3.4955,-3.4799,-3.4672,-3.4552,-3.4229,-3.4108,-3.4088,-3.405,-3.41,-3.4286,-3.397,-3.3614,-3.3182,-3.3049,-3.1684,-2.921,-2.9689,-3.0435,-3.1258,-3.1043,-3.0706,-3.0216,-3.0008,-2.9629,-2.9005,-2.8987,-2.8987,-2.8987,-2.8987,-2.862,-2.7824,-2.6833,-2.5503,-2.3676,-2.0476,0.0,0.0,0.0,0.0,0.0,0.0,0.0,0.0,0.0,-2.1216,-1.8317,0.0,-2.1455,0.0,-2.1384,-2.22,-2.3941,-2.4876,0.0,0.0,-2.971,-3.1252,-3.2783,-3.4169,-3.497,-3.4813,-3.65,-3.7601,-3.7325,-3.8,-3.8527,-3.8592,-3.839,-3.807,-3.7698,-3.7956,-3.8193,-3.8358,-3.8395,-3.8487,-3.8637,-3.8707,-3.8562,-3.8167,-3.825,-3.8269,-3.7876,-3.7481,-3.7217,-3.7162,-3.6541,-3.6046,-3.5991,-3.5298,-3.4766,-3.4674,-3.4234,-3.3807,-3.3807,-3.3807,-3.3807,-4.1228,-4.1152,-4.0376,-4.0473,-4.0961,-3.8622,-3.797,-3.845,-3.7909,-3.7158,-3.631,-3.6084,-3.5557,-3.4895,-3.4539,-3.4607,-3.4979,-3.4996,-3.5216,-3.5588,-3.5428,-3.5219,-3.5001,-3.5053,-3.5091,-3.5111,-3.5002,-3.5056,-3.526,-3.4978,-3.4762,-3.4554,-3.4248,-3.3225,-3.1545,-3.1649,-3.1787,-3.1892,-3.1692,-3.1495,-3.1249,-3.0564,-2.9977,-2.9537,-2.9189,-2.8987,-2.8987,-2.8987,-2.862,-2.7824,-2.7034,-2.6025,-2.4768,-2.2318,-2.0739,0.0,0.0,0.0,0.0,0.0,0.0,0.0,0.0,0.0,0.0,0.0,-2.3511,0.0,-2.4478,-2.5921,-2.7723,-2.8877,-3.0199,-3.1842,-3.3254,-3.4456,-3.5349,-3.6183,-3.6651,-3.6658,-3.7593,-3.8204,-3.8058,-3.8414,-3.8707,-3.8707,-3.8707,-3.8542,-3.8157,-3.8432,-3.8707,-3.8707,-3.8707,-3.8593,-3.8399,-3.835,-3.8232,-3.7997,-3.815,-3.8251,-3.7928,-3.7602,-3.7413,-3.7574,-3.702,-3.6571,-3.6751,-3.6174,-3.55,-3.5041,-3.4656,-3.4234,-3.388,-3.3807,-3.3807,-4.3105,-4.2977,-4.1982,-4.1892,-4.2134,-3.9359,-3.8389,-3.8723,-3.825,-3.8223,-3.8439,-3.7376,-3.6948,-3.6914,-3.6214,-3.5836,-3.5752,-3.5735,-3.5701,-3.5644,-3.6075,-3.6071,-3.5667,-3.6623,-3.6862,-3.6402,-3.6239,-3.6165,-3.613,-3.5545,-3.5225,-3.51,-3.4511,-3.4266,-3.4372,-3.4104,-3.3495,-3.2616,-3.2643,-3.2672,-3.2583,-3.1078,-3.0253,-3.0179,-2.9427,-2.8987,-2.8987,-2.8987,-2.862,-2.7824,-2.7145,-2.6392,-2.5576,-2.4025,-2.3153,0.0,-2.2136,0.0,0.0,0.0,0.0,0.0,0.0,0.0,0.0,-2.5283,-2.5366,-2.6013,-2.8154,-3.0134,-3.1685,-3.3165,-3.4428,-3.5276,-3.6085,-3.684,-3.7544,-3.7728,-3.8,-3.8631,-3.8735,-3.8732,-3.867,-3.8707,-3.8707,-3.8707,-3.8707,-3.8689,-3.8689,-3.8689,-3.8707,-3.8707,-3.8627,-3.8382,-3.8013,-3.7859,-3.7807,-3.779,-3.779,-3.779,-3.7649,-3.7415,-3.736,-3.7718,-3.7333,-3.7067,-3.7546,-3.6982,-3.6248,-3.5591,-3.5298,-3.4876,-3.4045,-3.3807,-3.3807,-4.1133,-4.0703,-4.0497,-4.049,-4.0528,-3.994,-3.9624,-3.9524,-3.9024,-3.8519,-3.8037,-3.7784,-3.7702,-3.7669,-3.755,-3.7144,-3.6592,-3.6592,-3.6214,-3.5616,-3.5711,-3.5694,-3.5644,-3.6266,-3.6498,-3.6419,-3.6782,-3.6979,-3.698,-3.722,-3.6999,-3.6387,-3.6619,-3.5991,-3.4493,0.0,0.0,0.0,-3.3084,-3.292,-3.2575,-3.1342,-3.0534,-3.0198,-2.9427,0.0,-2.8987,-2.8987,-2.8638,-2.7842,-2.7658,0.0,0.0,0.0,0.0,0.0,0.0,0.0,0.0,0.0,0.0,0.0,-2.666,-2.6594,-2.6447,-2.8594,-2.9929,-2.9699,-3.1221,-3.2724,-3.3872,-3.4858,-3.5953,-3.7201,-3.7686,-3.8077,-3.846,-3.8885,-3.9106,-3.8728,-3.8898,-3.8933,-3.8735,-3.8707,-3.8707,-3.8707,-3.8707,-3.8707,-3.8707,-3.8707,-3.8707,-3.8676,-3.8318,-3.8013,-3.7911,-3.756,-3.734,-3.734,-3.7323,-3.7173,-3.6845,-3.7001,-3.7341,-3.7772,-3.7767,-3.7813,-3.8339,-3.7808,-3.7199,-3.7037,-3.6486,-3.5587,-3.4137,-3.3807,-3.3807,-4.1178,0.0,-4.0601,-4.0497,0.0,-4.0204,-4.0033,-3.9908,-3.9644,-3.9326,-3.8954,-3.8599,-3.8447,-3.843,-3.8058,-3.7702,-3.733,-3.7347,-3.6924,-3.6197,-3.618,-3.5994,-3.5622,-3.5876,-3.6139,-3.6416,-3.696,-3.7322,-3.756,-3.8048,-3.8083,-3.7701,-3.7552,-3.6981,-3.5945,-3.5304,-3.4517,-3.3508,-3.3494,-3.341,-3.3156,-3.2196,-3.1412,-3.0785,0.0,0.0,0.0,0.0,0.0,0.0,0.0,0.0,0.0,0.0,0.0,-2.6539,-2.5823,-2.5529,-2.5941,-2.6327,-2.7244,-2.8851,-2.9732,-2.9824,-2.9035,-3.0834,-3.2034,-3.22,-3.329,-3.4555,-3.5876,-3.6403,-3.7082,-3.8136,-3.8405,-3.8549,-3.8685,-3.8956,-3.9022,-3.8777,-3.8815,-3.8859,-3.8719,-3.8707,-3.8707,-3.8707,-3.8707,-3.8707,-3.8707,-3.8707,-3.8627,-3.8316,-3.7632,-3.7155,-3.7154,-3.7001,-3.6803,-3.6803,-3.6803,-3.6701,-3.6457,-3.6416,-3.6565,-3.7041,-3.7378,-3.772,-3.8181,-3.8149,-3.797,-3.7584,-3.718,-3.6354,-3.4798,-3.438,-3.4266,-4.1719,-4.1446,-4.0949,-4.0756,-4.0709,-4.0286,-4.0113,-4.0113,0.0,0.0,0.0,-3.9469,-3.9191,-3.9165,-3.8565,-3.8227,-3.8108,-3.8108,-3.7702,-3.6998,-3.6998,-3.6569,-3.5842,-3.5898,-3.6104,-3.6416,-3.6941,-3.7396,-3.779,-3.83,-3.8546,-3.8507,-3.7998,-3.7639,-3.7401,-3.5844,-3.4674,-3.4045,-3.3826,-3.3721,-3.3788,-3.2952,-3.2219,-3.1623,-3.0834,-3.0099,-2.9464,-2.9299,-2.8925,-2.8264,-2.8081,-2.8007,-2.8007,-2.8007,-2.8319,-2.8932,-2.9133,-2.9207,-2.9225,-2.9971,-3.0467,-3.0613,-3.1977,-3.2485,-3.169,-3.2485,-3.3298,-3.3972,-3.4857,-3.6028,-3.7364,-3.7639,-3.797,-3.8634,-3.8707,-3.8689,-3.8707,-3.8707,-3.8704,-3.8707,-3.8723,-3.8707,-3.8707,-3.8707,-3.8707,-3.8707,-3.8707,-3.8661,-3.8578,-3.8512,-3.8334,-3.7825,-3.7078,-3.6478,-3.6539,-3.6354,-3.6291,-3.6416,-3.635,-3.6249,-3.6203,-3.5898,-3.5876,-3.6563,-3.6921,-3.7433,-3.7946,-3.8396,-3.8453,-3.7841,-3.7694,-3.7254,-3.5885,-3.5445,-3.5096,-4.1388,-4.0311,-4.0254,-4.0204,-4.0204,-4.0146,-4.0113,-4.0113,-4.0113,-4.0113,-4.0096,-3.9994,-3.996,-3.9943,-3.9842,-3.9453,-3.8853,-3.8836,-3.8447,0.0,-3.7753,-3.7347,-3.6683,-3.7053,-3.6951,-3.6471,-3.6923,-3.7229,-3.7359,-3.7772,-3.7997,-3.8064,-3.8337,-3.8175,-3.7419,-3.5844,-3.4949,-3.4839,-3.3811,-3.3465,-3.3775,-3.2688,-3.2201,-3.2386,-3.1641,-3.1182,-3.1054,-3.0411,-2.9989,-2.9861,-2.9207,-2.884,-2.884,-2.8858,-2.8895,-2.9023,-2.9647,-3.0044,-3.0044,-3.076,-3.1531,-3.2234,-3.3109,-3.3293,-3.2564,-3.3793,-3.4711,-3.4894,-3.6174,-3.7217,-3.7511,-3.812,-3.8542,-3.8689,-3.8707,-3.8707,-3.8707,-3.8707,-3.8707,-3.8707,-3.8707,-3.8726,-3.8762,-3.8762,-3.8799,-3.8762,-3.8808,-3.8551,-3.8154,-3.8015,-3.7825,-3.736,-3.6803,-3.6641,-3.6724,-3.6249,-3.5989,-3.635,-3.6006,-3.5783,-3.5783,-3.5756,-3.5968,-3.6882,-3.7135,-3.756,-3.8334,-3.8627,-3.8615,-3.8432,-3.8432,-3.8083,-3.7129,-3.6942,-3.6317,-4.1844,-4.1264,-4.0849,-4.0679,-4.0663,-4.0265,-4.0113,-4.0113,-4.0113,-4.0113,-4.0113,-4.0113,-4.0113,-4.0113,-4.0113,-3.9926,-3.9605,-3.958,-3.9191,-3.8531,-3.8497,-3.8091,-3.7422,-3.72,-3.6942,-3.6644,-3.671,-3.6764,-3.6803,-3.7268,-3.7649,-3.7911,-3.843,-3.8303,-3.7492,-3.6758,-3.5917,-3.5023,-3.4026,-3.3606,-3.3788,-3.3259,-3.2862,-3.2619,-3.2216,-3.1843,-3.1415,-3.1048,-3.0852,-3.0834,-3.0503,-3.0301,-3.032,-3.0301,-3.0301,-3.0301,-3.065,-3.0864,-3.0864,-3.1586,-3.2394,-3.3183,-3.3587,-3.3844,-3.3922,-3.4564,-3.5206,-3.5679,-3.6813,-3.7676,-3.8102,-3.8487,-3.8707,-3.8707,-3.8707,-3.8707,-3.8707,-3.8707,-3.8707,-3.8707,-3.8707,-3.8872,-3.9294,-3.935,-3.9551,-3.9848,-3.9449,-3.863,-3.7797,-3.7344,-3.702,-3.6783,-3.6312,-3.6097,-3.6274,-3.5968,-3.5739,-3.5924,-3.5744,-3.5622,-3.5644,-3.5783,-3.6224,-3.6684,-3.7173,-3.7702,-3.8232,-3.8496,-3.8643,-3.8707,-3.8707,-3.8377,-3.7731,-3.718,-3.6266,-4.2439,-4.2236,-4.1694,-4.1356,-4.117,-4.0578,-4.0265,-4.0113,-4.0113,-4.0113,-4.0113,-4.0113,-4.0113,-4.0113,-4.0113,-4.0113,-4.0113,-4.0113,-3.9766,-3.93,-3.9242,-3.8853,-3.8159,-3.7557,-3.7134,-3.6824,-3.6598,-3.6396,-3.6326,-3.6882,-3.7506,-3.8065,-3.8496,-3.8377,-3.7786,-3.7584,-3.6853,-3.5591,-3.4564,-3.399,-3.3807,-3.3807,-3.3495,-3.2913,-3.2858,-3.2596,-3.1984,-3.1782,-3.1659,-3.1641,-3.1476,-3.1403,-3.1403,-3.1403,-3.1403,-3.1403,-3.1568,-3.1764,-3.1966,-3.2522,-3.3146,-3.3752,-3.3972,-3.4344,-3.4931,-3.5353,-3.583,-3.6523,-3.7327,-3.8046,-3.8542,-3.8689,-3.8707,-3.8707,-3.8707,-3.8707,-3.8707,-3.8707,-3.8707,-3.8707,-3.8854,-3.9239,-3.9735,-3.9949,-4.0112,-4.0306,-3.9716,-3.8633,-3.7638,-3.6899,-3.6483,-3.6174,-3.5854,-3.5739,-3.5717,-3.5672,-3.5622,-3.5616,-3.5622,-3.5616,-3.5667,-3.5963,-3.6266,-3.6457,-3.7117,-3.7685,-3.7911,-3.8332,-3.8643,-3.8707,-3.8707,-3.8505,-3.7973,-3.7235,-3.6248,-4.2929,-4.2337,-4.2236,-4.1796,-4.1238,-4.1119,-4.0713,-4.0163,-4.0113,-4.0113,-4.0113,-4.0113,-4.0113,-4.0113,-4.0113,-4.0113,-4.0113,-4.0113,-4.0045,-3.9977,-4.0011,-3.9622,-3.892,-3.8785,-3.8115,-3.6965,-3.678,-3.6407,-3.5844,-3.6764,-3.7703,-3.853,-3.8692,-3.8652,-3.8505,-3.7863,-3.7401,-3.7235,-3.5701,-3.4527,-3.3862,-3.3807,-3.377,-3.3715,-3.3678,-3.366,-3.3476,-3.2858,-3.2491,-3.2449,-3.1825,-3.1421,-3.1439,-3.1433,-3.1433,-3.1476,-3.21,-3.2784,-3.3458,-3.3642,-3.3715,-3.3825,-3.4454,-3.4912,-3.5096,-3.6395,-3.729,-3.7511,-3.8102,-3.8579,-3.8707,-3.8707,-3.8707,-3.8707,-3.8707,-3.8707,-3.8673,-3.8707,-3.8707,-3.8707,-3.9156,-3.9808,-3.9843,-4.0107,-4.0092,-3.9904,-3.9344,-3.8576,-3.7802,-3.717,-3.6565,-3.5988,-3.5639,-3.5805,-3.6071,-3.5898,-3.5667,-3.5616,-3.5616,-3.5616,-3.5644,-3.5694,-3.5827,-3.6395,-3.6941,-3.7488,-3.7877,-3.8334,-3.8673,-3.8707,-3.8707,-3.867,-3.8505,-3.7951,-3.689,-4.3944,-4.3589,-4.3149,-4.2523,-4.1847,-4.139,-4.1035,-4.0713,-4.0282,-4.0113,-4.0113,-4.0113,-4.0113,-4.0113,-4.0113,-4.0113,-4.0113,-4.0113,-4.0113,-4.0113,-4.0113,-3.9943,-3.9656,-3.9174,-3.843,-3.7466,-3.6992,-3.6548,-3.6306,-3.7117,-3.7825,-3.8216,-3.853,-3.8707,-3.8673,-3.8377,-3.7988,-3.7492,-3.6817,-3.5844,-3.4601,-3.4027,-3.3807,-3.3807,-3.3807,-3.3807,-3.3788,-3.3458,-3.3311,-3.3298,-3.2981,-3.2816,-3.2816,-3.2829,-3.2816,-3.2834,-3.3128,-3.344,-3.3788,-3.3807,-3.3807,-3.3807,-3.4546,-3.5188,-3.5752,-3.685,-3.7676,-3.8157,-3.8505,-3.8707,-3.8707,-3.8707,-3.8707,-3.8707,-3.8707,-3.8707,-3.8707,-3.8415,-3.8216,-3.8252,-3.8523,-3.9005,-3.9644,-4.053,-4.081,-4.0342,-3.9728,-3.9019,-3.8454,-3.7844,-3.7134,-3.6518,-3.6315,-3.6152,-3.6012,-3.5783,-3.5622,-3.5616,-3.5616,-3.5616,-3.5644,-3.592,-3.6182,-3.6354,-3.7039,-3.756,-3.7842,-3.83,-3.8707,-3.8707,-3.8707,-3.8707,-3.8707,-3.845,-3.7698,-4.4598,-4.4513,-4.3961,-4.3301,-4.2574,-4.2033,-4.1576,-4.1153,-4.0637,-4.0299,-4.0113,-4.0113,-4.0113,-4.0113,-4.0113,-4.0113,-4.0113,-4.0113,-4.0113,-4.0113,-4.0113,-4.0096,-4.0045,-3.9563,-3.8802,-3.7939,-3.7364,-3.6937,-3.6745,-3.7323,-3.7843,-3.8115,-3.8496,-3.8707,-3.8707,-3.8707,-3.8414,-3.7863,-3.7639,-3.689,-3.5738,-3.4908,-3.4266,-3.3862,-3.3807,-3.3807,-3.3807,-3.3807,-3.3807,-3.3807,-3.3807,-3.3807,-3.3807,-3.3807,-3.3807,-3.3807,-3.3807,-3.3807,-3.3807,-3.3807,-3.3899,-3.4142,-3.4876,-3.5734,-3.656,-3.7382,-3.8062,-3.856,-3.8707,-3.8707,-3.8707,-3.8707,-3.8707,-3.8707,-3.8707,-3.8676,-3.8465,-3.8117,-3.7877,-3.7737,-3.799,-3.8435,-3.9499,-4.0637,-4.1213,-4.0648,-4.0156,-3.9633,-3.9117,-3.8505,-3.7889,-3.7015,-3.6795,-3.6457,-3.5808,-3.5622,-3.5616,-3.5616,-3.5616,-3.5616,-3.5616,-3.5985,-3.6161,-3.6118,-3.7079,-3.7649,-3.7685,-3.81,-3.8707,-3.8707,-3.8707,-3.8707,-3.8707,-3.8689,-3.834,-4.4598,-4.4598,-4.4547,-4.4062,-4.3325,-4.324,-4.2479,-4.1356,-4.1153,-4.0747,-4.0197,-4.0113,-4.0113,-4.0113,-4.0113,-4.0113,-4.0113,-4.0113,-4.0113,-4.0113,-4.0113,-4.0113,-4.0113,-4.0045,-3.9276,-3.8075,-3.7838,-3.7526,-3.7148,-3.7266,-3.772,-3.8611,-3.8692,-3.8707,-3.8707,-3.8707,-3.8689,-3.8505,-3.7915,-3.7437,-3.7254,-3.6541,-3.5404,-3.41,-3.3844,-3.3862,-3.3807,-3.3807,-3.3807,-3.3807,-3.3807,-3.3807,-3.3807,-3.3807,-3.3807,-3.3807,-3.3807,-3.3807,-3.3862,-3.388,-3.416,-3.4912,-3.5734,-3.6574,-3.7272,-3.8065,-3.8545,-3.8658,-3.8627,-3.8643,-3.8596,-3.8562,-3.8593,-3.8596,-3.8627,-3.8417,-3.7998,-3.7843,-3.7685,-3.7466,-3.7845,-3.8602,-3.9581,-4.0446,-4.0657,-4.036,-4.0103,-3.9858,-3.9291,-3.9005,-3.8379,-3.7405,-3.688,-3.6535,-3.5842,-3.5616,-3.5616,-3.5616,-3.5616,-3.5616,-3.5616,-3.5644,-3.5667,-3.592,-3.6766,-3.7285,-3.7415,-3.7843,-3.8499,-3.8707,-3.8707,-3.8707,-3.8707,-3.8707,-3.845,-4.4598,-4.4598,-4.4598,-4.4445,-4.413,-4.3612,-4.3098,-4.254,-4.1593,-4.1052,-4.0747,-4.0333,-4.0113,-4.0113,-4.0113,-4.0113,-4.0113,-4.0113,-4.0113,-4.0113,-4.0113,-4.0113,-4.0113,-4.0096,-3.9622,-3.8667,-3.8125,-3.7674,-3.7332,-3.7826,-3.8318,-3.8611,-3.8707,-3.8707,-3.8707,-3.8707,-3.8707,-3.8673,-3.8395,-3.8028,-3.7547,-3.7217,-3.6519,-3.544,-3.4871,-3.4325,-3.3825,-3.3807,-3.3807,-3.3807,-3.3807,-3.3807,-3.3807,-3.3807,-3.3807,-3.3807,-3.3807,-3.4027,-3.4491,-3.4564,-3.4931,-3.5771,-3.6611,-3.7162,-3.7547,-3.8212,-3.858,-3.8283,-3.82,-3.8082,-3.7861,-3.7998,-3.8065,-3.7808,-3.7756,-3.7703,-3.7433,-3.7173,-3.6882,-3.6876,-3.7494,-3.832,-3.9059,-3.9828,-4.0277,-4.0146,-4.0113,-3.996,-3.9808,-3.9706,-3.9242,-3.8413,-3.7811,-3.7246,-3.6485,-3.5893,-3.5616,-3.5616,-3.5616,-3.5616,-3.5616,-3.5667,-3.5734,-3.6139,-3.6803,-3.736,-3.7667,-3.8101,-3.8643,-3.8707,-3.8707,-3.8707,-3.8707,-3.8707,-3.8579,-4.4598,-4.4598,-4.4598,-4.4598,-4.4547,-4.4012,-4.3612,-4.3308,-4.2354,-4.1779,-4.1441,-4.0781,-4.0468,-4.0392,-4.0231,-4.0113,-4.0113,-4.0113,-4.0113,-4.0113,-4.0113,-4.0113,-4.0113,-4.0113,-3.9723,-3.8903,-3.799,-3.7519,-3.7593,-3.7987,-3.8368,-3.8658,-3.8707,-3.8707,-3.8707,-3.8707,-3.8707,-3.8707,-3.8707,-3.8414,-3.7951,-3.7881,-3.7511,-3.6758,-3.6101,-3.5422,-3.4651,-3.4339,-3.4192,-3.416,-3.3954,-3.3807,-3.3807,-3.3807,-3.3807,-3.3825,-3.4064,-3.4431,-3.4949,-3.5261,-3.5775,-3.6578,-3.7162,-3.7566,-3.786,-3.8395,-3.8394,-3.8065,-3.7893,-3.7667,-3.7173,-3.7211,-3.7342,-3.7192,-3.7209,-3.7133,-3.696,-3.6623,-3.6513,-3.6728,-3.7615,-3.8336,-3.8768,-3.9555,-4.001,-4.0113,-4.0113,-4.0113,-4.0113,-4.0079,-3.9842,-3.9106,-3.8294,-3.7567,-3.6789,-3.6079,-3.5684,-3.5633,-3.5616,-3.5616,-3.5644,-3.5711,-3.5941,-3.6395,-3.696,-3.7542,-3.8033,-3.8449,-3.8611,-3.8692,-3.8707,-3.8707,-3.8707,-3.8707,-3.8505,-4.4598,-4.4598,-4.4598,-4.4598,-4.4598,-4.4513,-4.4113,-4.3538,-4.3325,-4.2861,-4.2236,-4.1525,-4.117,-4.1018,-4.0502,-4.0163,-4.0113,-4.0113,-4.0113,-4.0113,-4.0113,-4.0113,-4.0113,-4.0113,-3.9773,-3.9059,-3.7661,-3.7464,-3.8254,-3.7897,-3.8021,-3.858,-3.8707,-3.8707,-3.8707,-3.8707,-3.8707,-3.8707,-3.8707,-3.8673,-3.8689,-3.8615,-3.8248,-3.7603,-3.7437,-3.707,-3.6321,-3.5481,-3.5004,-3.4931,-3.4339,-3.3862,-3.4027,-3.4027,-3.3917,-3.4137,-3.4619,-3.4986,-3.5188,-3.5899,-3.6633,-3.7364,-3.7547,-3.7915,-3.845,-3.8652,-3.8465,-3.7929,-3.779,-3.7488,-3.6623,-3.6437,-3.6623,-3.7039,-3.7001,-3.6823,-3.6519,-3.6409,-3.653,-3.6962,-3.8031,-3.8911,-3.9131,-3.963,-4.0079,-4.0113,-4.0113,-4.0113,-4.0113,-4.0113,-3.9791,-3.9174,-3.8582,-3.7956,-3.706,-3.6214,-3.5926,-3.5667,-3.5633,-3.5622,-3.5672,-3.5761,-3.6118,-3.6583,-3.7433,-3.8015,-3.8285,-3.8643,-3.8643,-3.8707,-3.8707,-3.8707,-3.8707,-3.8652,-3.8377,-4.4598,-4.4598,-4.4598,-4.4598,-4.4598,-4.4598,-4.4445,-4.4164,-4.3646,-4.3267,-4.2946,-4.2269,-4.1677,-4.1255,-4.0933,-4.0578,-4.013,-4.0113,-4.0113,-4.0113,-4.0113,-4.0113,-4.0113,-4.0113,-3.9912,-3.9629,-3.9494,-3.9168,-3.8903,-3.8955,-3.8998,-3.8753,-3.8692,-3.8707,-3.8643,-3.8707,-3.8707,-3.8707,-3.8707,-3.8707,-3.8707,-3.8707,-3.856,-3.8358,-3.8322,-3.8193,-3.7918,-3.6633,-3.5954,-3.5899,-3.5661,-3.5514,-3.5495,-3.5514,-3.5514,-3.555,-3.5734,-3.6193,-3.667,-3.6964,-3.7474,-3.812,-3.8322,-3.8414,-3.8652,-3.8692,-3.8302,-3.7578,-3.7396,-3.6983,-3.6118,-3.5832,-3.5968,-3.6097,-3.6097,-3.617,-3.6168,-3.6444,-3.6905,-3.753,-3.8413,-3.892,-3.9123,-3.9648,-4.0079,-4.0113,-4.0113,-4.0113,-4.0113,-4.0113,-4.0079,-3.974,-3.9073,-3.8497,-3.7872,-3.7043,-3.6349,-3.5994,-3.5825,-3.5633,-3.5672,-3.5881,-3.627,-3.6923,-3.779,-3.8334,-3.8578,-3.8707,-3.8707,-3.8707,-3.8707,-3.8707,-3.8707,-3.8579,-3.8377,-4.4598,-4.4598,-4.4598,-4.4598,-4.4598,-4.4598,-4.4598,-4.4547,-4.4079,-4.3859,-4.3707,-4.3047,-4.2303,-4.166,-4.1339,-4.0781,-4.0146,-4.0113,-4.0113,-4.0113,-4.0113,-4.0113,-4.0113,-4.0113,-4.0171,-4.0199,-4.0272,-4.0103,-3.9692,-3.9584,-3.9228,-3.8659,-3.8447,-3.8283,-3.815,-3.8135,-3.8135,-3.8168,-3.8302,-3.8399,-3.8449,-3.8593,-3.8707,-3.8707,-3.8707,-3.8707,-3.8634,-3.7698,-3.7055,-3.6743,-3.6486,-3.6303,-3.6285,-3.6266,-3.6285,-3.634,-3.6611,-3.6978,-3.7474,-3.7731,-3.812,-3.8597,-3.8707,-3.8578,-3.8465,-3.8399,-3.7964,-3.7097,-3.6902,-3.6542,-3.5788,-3.5622,-3.5616,-3.5639,-3.5972,-3.6146,-3.6451,-3.7127,-3.7743,-3.8362,-3.8971,-3.9309,-3.9529,-3.9723,-4.0096,-4.0113,-4.0113,-4.0113,-4.0113,-4.0113,-4.0113,-3.9943,-3.9343,-3.8954,-3.8836,-3.798,-3.6914,-3.6417,-3.6045,-3.5791,-3.5644,-3.5963,-3.6333,-3.7248,-3.8133,-3.8433,-3.8707,-3.8707,-3.8707,-3.8707,-3.8707,-3.8707,-3.8707,-3.8707,-3.8579,-4.4598,-4.4598,-4.4598,-4.4598,-4.4598,-4.4598,-4.4598,-4.4598,-4.4564,-4.453,-4.4378,-4.3656,-4.2929,-4.2219,-4.1525,-4.0781,-4.0197,-4.0113,-4.0113,-4.0113,-4.0113,-4.0113,-4.0113,-4.0179,-4.0477,-4.0799,-4.0369,-4.0293,-4.0488,-3.9659,-3.885,-3.8372,-3.8026,-3.7667,-3.7433,-3.7247,-3.7341,-3.7524,-3.779,-3.7945,-3.8065,-3.8449,-3.8707,-3.8707,-3.8707,-3.8707,-3.867,-3.8524,-3.8212,-3.7584,-3.6964,-3.667,-3.6523,-3.6431,-3.6597,-3.6688,-3.7217,-3.7511,-3.7768,-3.8099,-3.8486,-3.8544,-3.8465,-3.8417,-3.7964,-3.7843,-3.7506,-3.6641,-3.6495,-3.6224,-3.5761,-3.5616,-3.5667,-3.5853,-3.6366,-3.6965,-3.7855,-3.8497,-3.8785,-3.9073,-3.9673,-4.0079,-3.9994,-4.0062,-4.0096,-4.0113,-4.0113,-4.0113,-4.0113,-4.0113,-4.0113,-3.9825,-3.9428,-3.9123,-3.8911,-3.7828,-3.6846,-3.6609,-3.6163,-3.5808,-3.5761,-3.6118,-3.6498,-3.7415,-3.8251,-3.8546,-3.8707,-3.8707,-3.8707,-3.8707,-3.8707,-3.8707,-3.8707,-3.8707,-3.8707,-4.4598,-4.4598,-4.4598,-4.4598,-4.4598,-4.4598,-4.4598,-4.4598,-4.4598,-4.4598,-4.4429,-4.3758,-4.2997,-4.2269,-4.1542,-4.0798,-4.0248,-4.0113,-4.0113,-4.0113,-4.0113,-4.0113,-4.0204,-4.0504,-4.0967,-4.1394,-4.1205,-4.1254,-4.109,-3.9932,-3.9008,-3.8302,-3.7656,-3.7323,-3.7192,-3.7152,-3.7396,-3.7667,-3.779,-3.8082,-3.8433,-3.8596,-3.8673,-3.8707,-3.8707,-3.8707,-3.8707,-3.8707,-3.8652,-3.8414,-3.8212,-3.8065,-3.7973,-3.7973,-3.7918,-3.7991,-3.8141,-3.8358,-3.8315,-3.8188,-3.8115,-3.8065,-3.7861,-3.756,-3.7433,-3.7378,-3.7058,-3.6539,-3.6392,-3.6182,-3.5734,-3.5616,-3.6056,-3.706,-3.7026,-3.7354,-3.8413,-3.887,-3.9199,-3.9723,-3.9977,-4.0079,-4.0113,-4.0113,-4.0113,-4.0113,-4.0113,-4.0113,-4.0113,-4.0096,-4.0096,-3.9876,-3.9529,-3.9191,-3.8674,-3.7574,-3.6846,-3.6677,-3.6248,-3.5701,-3.592,-3.6374,-3.6783,-3.7396,-3.8218,-3.8658,-3.8707,-3.8707,-3.8707,-3.8707,-3.8707,-3.8707,-3.8707,-3.8707,-3.8707,-4.4598,-4.4598,-4.4598,-4.4598,-4.4598,-4.4598,-4.4598,-4.4598,-4.4598,-4.4598,-4.4429,-4.3758,-4.3014,-4.2279,-4.1542,-4.0798,-4.0163,-4.0113,-4.0113,-4.0113,-4.0113,-4.0113,-4.0229,-4.0655,-4.1087,-4.1362,-4.1424,-4.1314,-4.102,-4.004,-3.9074,-3.8132,-3.7286,-3.6781,-3.6481,-3.6542,-3.6786,-3.7193,-3.7488,-3.786,-3.8334,-3.8596,-3.8707,-3.8707,-3.8707,-3.8707,-3.8707,-3.8707,-3.8707,-3.8689,-3.8689,-3.8707,-3.8707,-3.8707,-3.8707,-3.8692,-3.8515,-3.8348,-3.8267,-3.7894,-3.7632,-3.7578,-3.7323,-3.7114,-3.6941,-3.6862,-3.6643,-3.6139,-3.6075,-3.5898,-3.5711,-3.5616,-3.6343,-3.7466,-3.7499,-3.7879,-3.93,-3.9486,-3.9656,-3.9977,-4.0113,-4.0113,-4.0113,-4.0113,-4.0113,-4.0113,-4.0113,-4.0113,-4.0096,-4.0096,-3.9994,-3.9715,-3.936,-3.8954,-3.8362,-3.7364,-3.6761,-3.6575,-3.618,-3.565,-3.6028,-3.6501,-3.6941,-3.7414,-3.8185,-3.8707,-3.8707,-3.8707,-3.8707,-3.8707,-3.8707,-3.8707,-3.8707,-3.8707,-3.8707,-4.4598,-4.4598,-4.4598,-4.4598,-4.4598,-4.4598,-4.4598,-4.4598,-4.4598,-4.453,-4.4248,-4.3623,-4.2777,-4.2134,-4.1271,-4.0696,-4.0113,-4.0113,-4.0113,-4.0121,-4.0179,-4.0229,-4.0171,-4.0672,-4.0903,-4.0978,-4.0926,-4.0938,-4.0645,-3.9845,-3.8847,-3.7883,-3.69,-3.614,-3.592,-3.5805,-3.6028,-3.6664,-3.721,-3.7685,-3.815,-3.8496,-3.8692,-3.8707,-3.8707,-3.8707,-3.8707,-3.8707,-3.8707,-3.8707,-3.8707,-3.8707,-3.8692,-3.8692,-3.8578,-3.8465,-3.8117,-3.7843,-3.7755,-3.7396,-3.7116,-3.7078,-3.702,-3.6862,-3.6437,-3.6312,-3.6122,-3.5739,-3.5622,-3.5644,-3.5622,-3.5616,-3.6343,-3.7516,-3.7872,-3.8565,-3.969,-4.0113,-4.0113,-4.0113,-4.0113,-4.0113,-4.0113,-4.0113,-4.0113,-4.0113,-4.0113,-4.0113,-4.0113,-4.0096,-3.9876,-3.9529,-3.9106,-3.8616,-3.7939,-3.7178,-3.6738,-3.64,-3.5994,-3.5689,-3.6049,-3.6519,-3.696,-3.7487,-3.8168,-3.8562,-3.8707,-3.8707,-3.8707,-3.8707,-3.8707,-3.8707,-3.8707,-3.8707,-3.8707,-4.4598,-4.4598,-4.4598,-4.4598,-4.4598,-4.4598,-4.4598,-4.4598,-4.4598,-4.4265,-4.3623,-4.2895,-4.2168,-4.1424,-4.0773,-4.0231,-4.013,-4.0113,-4.0113,-4.0171,-4.0559,-4.0424,-4.0286,-4.0625,-4.0874,-4.0856,-4.088,-4.088,-4.0533,-3.9227,-3.8161,-3.7787,-3.6565,-3.5739,-3.5694,-3.6011,-3.6498,-3.7038,-3.7506,-3.7946,-3.8366,-3.8578,-3.8707,-3.8707,-3.8707,-3.8692,-3.8707,-3.8707,-3.8707,-3.8707,-3.8643,-3.8562,-3.858,-3.8283,-3.8082,-3.7963,-3.7632,-3.7341,-3.7248,-3.6884,-3.6563,-3.656,-3.627,-3.592,-3.5827,-3.5805,-3.5739,-3.5616,-3.5616,-3.5616,-3.5616,-3.5616,-3.6326,-3.7398,-3.7922,-3.8464,-3.9706,-4.0096,-4.0113,-4.0113,-4.0113,-4.0113,-4.0113,-4.0113,-4.0113,-4.0113,-4.0113,-4.0113,-4.0079,-4.0079,-3.9656,-3.9208,-3.8514,-3.7956,-3.7381,-3.6738,-3.6383,-3.6237,-3.5954,-3.5805,-3.6161,-3.6684,-3.7192,-3.7632,-3.8083,-3.8401,-3.8673,-3.8707,-3.8707,-3.8707,-3.8707,-3.8707,-3.8707,-3.8707,-3.8707,-4.4598,-4.4598,-4.4598,-4.4598,-4.4598,-4.4598,-4.4598,-4.4598,-4.4598,-4.4147,-4.3386,-4.2608,-4.188,-4.117,-4.0485,-4.0113,-4.0113,-4.0113,-4.0113,-4.0171,-4.0392,-4.036,-4.0204,-4.0343,-4.0504,-4.0528,-4.0521,-4.0546,-4.0048,-3.8942,-3.7953,-3.7787,-3.6366,-3.5873,-3.5924,-3.627,-3.6786,-3.7415,-3.7755,-3.8167,-3.8611,-3.8707,-3.8707,-3.8707,-3.8673,-3.8611,-3.835,-3.8316,-3.8201,-3.8066,-3.7999,-3.81,-3.8218,-3.786,-3.7596,-3.747,-3.7097,-3.6843,-3.6704,-3.6354,-3.6032,-3.6049,-3.5739,-3.5667,-3.5616,-3.5616,-3.5616,-3.5616,-3.5616,-3.5616,-3.5616,-3.5616,-3.6276,-3.7094,-3.7719,-3.8379,-3.9326,-3.9876,-4.0113,-4.0113,-4.0113,-4.0113,-4.0113,-4.0113,-4.0113,-4.0113,-4.0113,-4.0096,-3.991,-3.9791,-3.9191,-3.8633,-3.7872,-3.7229,-3.6715,-3.6242,-3.5887,-3.5909,-3.6039,-3.6071,-3.6291,-3.6904,-3.7542,-3.7877,-3.8167,-3.8465,-3.8707,-3.8707,-3.8707,-3.8707,-3.8707,-3.8707,-3.8707,-3.8707,-3.8707,-4.4598,-4.4598,-4.4598,-4.4598,-4.4598,-4.4598,-4.4598,-4.4598,-4.4598,-4.4147,-4.3369,-4.2625,-4.1965,-4.1322,-4.0468,-4.013,-4.0113,-4.0113,-4.0113,-4.0121,-4.0146,-4.0171,-4.0121,-4.0146,-4.0179,-4.0096,-4.0171,-4.0171,-3.9798,-3.8907,-3.8336,-3.7851,-3.6695,-3.6298,-3.6485,-3.6542,-3.6981,-3.7737,-3.8032,-3.8267,-3.8627,-3.8692,-3.8658,-3.8496,-3.8481,-3.8251,-3.7911,-3.7772,-3.7632,-3.7247,-3.7133,-3.7304,-3.7451,-3.7341,-3.7078,-3.7039,-3.6563,-3.6312,-3.6224,-3.592,-3.5667,-3.5616,-3.5616,-3.5616,-3.5616,-3.5616,-3.5616,-3.5616,-3.5616,-3.5616,-3.5616,-3.5616,-3.6011,-3.6738,-3.7483,-3.8193,-3.8903,-3.9673,-4.0045,-4.0113,-4.0113,-4.0113,-4.0113,-4.0113,-4.0113,-4.0096,-4.0096,-4.0045,-3.9842,-3.9478,-3.8937,-3.8396,-3.7702,-3.6823,-3.6242,-3.6056,-3.5667,-3.5805,-3.6049,-3.6354,-3.6563,-3.7155,-3.772,-3.7929,-3.8216,-3.853,-3.8707,-3.8707,-3.8707,-3.8707,-3.8707,-3.8707,-3.8707,-3.8707,-3.8707,-4.4598,-4.4598,-4.4598,-4.4598,-4.4598,-4.4598,-4.4598,-4.4598,-4.4598,-4.413,-4.3341,-4.2625,-4.2219,-4.1728,-4.0654,-4.0146,-4.0113,-4.0113,-4.0113,-4.0113,-4.0113,-4.0113,-4.0113,-4.0113,-4.0113,-4.0113,-4.0113,-4.0113,-4.0034,-3.9665,-3.8969,-3.8394,-3.7533,-3.712,-3.7115,-3.7078,-3.7193,-3.786,-3.82,-3.8481,-3.8562,-3.8593,-3.8417,-3.8099,-3.8048,-3.7773,-3.7433,-3.7304,-3.7267,-3.7154,-3.6746,-3.6623,-3.6664,-3.6583,-3.656,-3.6437,-3.6097,-3.5849,-3.5783,-3.5711,-3.5616,-3.5616,-3.5616,-3.5616,-3.5616,-3.5616,-3.5616,-3.5616,-3.5616,-3.5616,-3.5616,-3.5616,-3.5994,-3.6671,-3.7364,-3.8075,-3.8785,-3.9436,-3.9859,-3.9791,-3.991,-4.0028,-3.9943,-3.9977,-4.0113,-4.0028,-3.991,-3.9876,-3.9774,-3.9326,-3.8785,-3.8244,-3.7669,-3.6738,-3.5836,-3.5769,-3.5644,-3.5871,-3.6182,-3.6686,-3.7002,-3.7488,-3.7894,-3.815,-3.835,-3.8593,-3.8707,-3.8707,-3.8707,-3.8707,-3.8707,-3.8707,-3.8707,-3.8707,-3.8707,-4.4598,-4.4598,-4.4598,-4.4598,-4.4598,-4.4598,-4.4598,-4.4598,-4.4581,-4.4147,-4.3386,-4.2642,-4.2066,-4.1525,-4.0654,-4.0113,-4.0113,-4.0113,-4.0113,-4.0113,-4.0113,-4.0113,-4.0113,-4.0113,-4.0113,-4.0113,-4.0113,-4.0113,-4.0053,-3.9545,-3.9365,-3.8967,-3.7942,-3.7499,-3.7777,-3.7232,-3.7321,-3.7772,-3.8132,-3.8283,-3.8283,-3.8265,-3.8015,-3.7685,-3.7506,-3.7267,-3.6884,-3.6783,-3.6623,-3.6374,-3.6139,-3.6011,-3.6006,-3.6006,-3.6006,-3.5963,-3.5761,-3.5616,-3.5616,-3.5616,-3.5616,-3.5616,-3.5616,-3.5616,-3.5616,-3.5616,-3.5616,-3.5616,-3.5616,-3.5616,-3.5616,-3.5616,-3.5825,-3.618,-3.6891,-3.7466,-3.7922,-3.8548,-3.8911,-3.9199,-3.9605,-3.9706,-3.9571,-3.9706,-4.0011,-3.9977,-3.9757,-3.9673,-3.9622,-3.8877,-3.8176,-3.7618,-3.7032,-3.6536,-3.5796,-3.5807,-3.5876,-3.6118,-3.644,-3.6944,-3.7415,-3.7877,-3.8167,-3.8417,-3.8611,-3.8692,-3.8707,-3.8707,-3.8707,-3.8707,-3.8707,-3.8707,-3.8707,-3.8707,-3.8707,-4.4598,-4.4598,-4.4598,-4.4598,-4.4598,-4.4598,-4.4598,-4.4598,-4.4598,-4.4248,-4.3589,-4.2743,-4.2083,-4.1542,-4.0832,-4.0257,-4.0146,-4.0113,-4.0113,-4.0113,-4.0113,-4.0113,-4.0113,-4.0113,-4.0113,-4.0113,-4.0113,-4.0113,-4.0061,-3.98,-3.9654,-3.9221,-3.7934,-3.7663,-3.8334,-3.7198,-3.7223,-3.7452,-3.7755,-3.7755,-3.7755,-3.7737,-3.7524,-3.7097,-3.7038,-3.6783,-3.6312,-3.6228,-3.6054,-3.5827,-3.5667,-3.5622,-3.5622,-3.5616,-3.5616,-3.5616,-3.5616,-3.5616,-3.5616,-3.5616,-3.5616,-3.5616,-3.5616,-3.5616,-3.5616,-3.5616,-3.5616,-3.5616,-3.5616,-3.5616,-3.5616,-3.5616,-3.5616,-3.5785,-3.6332,-3.6897,-3.7151,-3.7533,-3.7922,-3.8396,-3.9106,-3.9174,-3.887,-3.9276,-3.9563,-3.958,-3.9377,-3.9334,-3.9114,-3.7895,-3.7185,-3.6688,-3.6254,-3.6056,-3.5822,-3.5954,-3.6186,-3.6563,-3.6925,-3.7397,-3.7825,-3.8251,-3.8449,-3.8596,-3.8627,-3.8707,-3.8707,-3.8707,-3.8707,-3.8707,-3.8707,-3.8707,-3.8707,-3.8707,-3.8707,-4.4598,-4.4598,-4.4598,-4.4598,-4.4598,-4.4598,-4.4598,-4.4598,-4.4598,-4.4581,-4.4231,-4.2997,-4.2557,-4.2405,-4.1474,-4.0663,-4.0265,-4.0113,-4.0113,-4.0113,-4.0113,-4.0113,-4.0113,-4.0113,-4.0113,-4.0113,-4.0113,-4.0113,-4.012,-4.0343,-4.025,-3.9658,-3.8891,-3.8517,-3.8465,-3.7062,-3.6741,-3.7173,-3.7267,-3.7267,-3.7267,-3.7267,-3.6999,-3.6643,-3.6457,-3.6308,-3.5871,-3.5805,-3.5711,-3.5667,-3.5616,-3.5616,-3.5616,-3.5616,-3.5616,-3.5616,-3.5616,-3.5616,-3.5616,-3.5616,-3.5616,-3.5616,-3.5616,-3.5616,-3.5616,-3.5616,-3.5616,-3.5616,-3.5616,-3.5616,-3.5616,-3.5616,-3.5616,-3.5808,-3.618,-3.6575,-3.6795,-3.6772,-3.711,-3.7195,-3.7787,-3.799,-3.7905,-3.8548,-3.9089,-3.9073,-3.9022,-3.8903,-3.8481,-3.7286,-3.6524,-3.6113,-3.5989,-3.5846,-3.5985,-3.6097,-3.6542,-3.6981,-3.736,-3.779,-3.8133,-3.843,-3.8562,-3.8676,-3.8707,-3.8707,-3.8707,-3.8707,-3.8707,-3.8707,-3.8707,-3.8707,-3.8707,-3.8707,-3.8707,-4.4598,-4.4598,-4.4598,-4.4598,-4.4598,-4.4598,-4.4598,-4.4598,-4.4598,-4.4598,-4.4293,-4.3007,-4.2066,-4.1559,-4.0764,-4.0434,-4.0146,-4.0113,-4.0113,-4.0113,-4.0113,-4.0113,-4.0113,-4.0113,-4.0113,-4.0113,-4.0113,-4.0113,-4.0204,-4.0302,-4.0306,-4.0216,-3.9072,-3.8542,-3.8518,-3.6903,-3.6492,-3.6583,-3.6744,-3.6761,-3.6744,-3.6704,-3.6501,-3.6006,-3.5985,-3.5827,-3.5689,-3.5616,-3.5616,-3.5616,-3.5616,-3.5616,-3.5616,-3.5616,-3.5616,-3.5616,-3.5616,-3.5616,-3.5616,-3.5616,-3.5616,-3.5616,-3.5616,-3.5616,-3.5616,-3.5616,-3.5616,-3.5616,-3.5616,-3.5616,-3.5616,-3.5616,-3.5616,-3.5752,-3.6011,-3.6062,-3.6231,-3.6299,-3.6383,-3.64,-3.6434,-3.6738,-3.7087,-3.7686,-3.8193,-3.8311,-3.8075,-3.7777,-3.7398,-3.662,-3.6062,-3.5752,-3.5757,-3.58,-3.6092,-3.635,-3.6884,-3.7323,-3.7578,-3.798,-3.8316,-3.8578,-3.8658,-3.8707,-3.8707,-3.8707,-3.8707,-3.8707,-3.8707,-3.8707,-3.8707,-3.8707,-3.8707,-3.8707,-3.8735,-4.4598,-4.4598,-4.4598,-4.4598,-4.4598,-4.4598,-4.4598,-4.4598,-4.4598,-4.4598,-4.4192,-4.299,-4.15,-4.0367,-4.018,-4.0163,-4.0113,-4.0113,-4.0113,-4.0113,-4.0113,-4.0113,-4.0113,-4.0113,-4.0113,-4.0113,-4.0113,-4.0113,-4.0113,-4.0154,-4.0326,-4.0627,-3.9109,-3.8591,-3.8325,-3.7222,-3.6222,-3.6122,-3.6186,-3.6203,-3.6186,-3.6203,-3.5985,-3.5739,-3.5616,-3.5616,-3.5616,-3.5616,-3.5616,-3.5616,-3.5616,-3.5616,-3.5616,-3.5616,-3.5616,-3.5616,-3.5616,-3.5616,-3.5616,-3.5616,-3.5616,-3.5616,-3.5616,-3.5616,-3.5616,-3.5616,-3.5616,-3.5616,-3.5616,-3.5616,-3.5616,-3.5616,-3.5616,-3.5616,-3.5667,-3.5633,-3.5633,-3.5853,-3.5955,-3.5971,-3.5955,-3.5836,-3.6259,-3.68,-3.7212,-3.7449,-3.7195,-3.6778,-3.6389,-3.6,-3.5982,-3.5805,-3.5963,-3.6186,-3.6706,-3.7001,-3.7433,-3.7667,-3.7929,-3.8167,-3.8481,-3.8609,-3.8673,-3.8707,-3.8707,-3.8707,-3.8707,-3.8707,-3.8707,-3.8707,-3.8707,-3.8707,-3.8707,-3.8707,-3.8803,-4.4598,-4.4598,-4.4598,-4.4598,-4.4598,-4.4598,-4.4598,-4.4598,-4.4598,-4.453,-4.4175,-4.2929,-4.1399,-4.0417,-4.0113,-4.0113,-4.0113,-4.0113,-4.0113,-4.0113,-4.0113,-4.0113,-4.0113,-4.0113,-4.0113,-4.0113,-4.0113,-4.0113,-4.0113,-4.0113,-4.0146,-3.9985,-3.9197,-3.8604,-3.7959,-3.7024,-3.6101,-3.5885,-3.5783,-3.5761,-3.5739,-3.5756,-3.5689,-3.5667,-3.5616,-3.5616,-3.5616,-3.5616,-3.5616,-3.5616,-3.5616,-3.5616,-3.5616,-3.5616,-3.5616,-3.5616,-3.5616,-3.5616,-3.5616,-3.5616,-3.5616,-3.5616,-3.5616,-3.5616,-3.5616,-3.5616,-3.5616,-3.5616,-3.5616,-3.5616,-3.5616,-3.5616,-3.5616,-3.5616,-3.5616,-3.5616,-3.5616,-3.5633,-3.5701,-3.5633,-3.5616,-3.5616,-3.5616,-3.6208,-3.6462,-3.6721,-3.6772,-3.6349,-3.613,-3.5835,-3.6087,-3.6135,-3.6291,-3.6726,-3.7542,-3.7842,-3.7843,-3.8066,-3.835,-3.8481,-3.8627,-3.8707,-3.8707,-3.8707,-3.8707,-3.8707,-3.8707,-3.8707,-3.8707,-3.8707,-3.8707,-3.8707,-3.8735,-3.8777,-3.8913,-4.4598,-4.4598,-4.4598,-4.4598,-4.4598,-4.4598,-4.4598,-4.4598,-4.4598,-4.4005,-4.3132,-4.2066,-4.1052,-4.0316,-4.0113,-4.0113,-4.0113,-4.0113,-4.0113,-4.0113,-4.0113,-4.0113,-4.0113,-4.0113,-4.0113,-4.0113,-4.0113,-4.0113,-4.0113,-4.0113,-4.0113,-3.9876,-3.9402,-3.864,-3.7821,-3.6789,-3.6011,-3.5774,-3.5616,-3.5616,-3.5616,-3.5616,-3.5616,-3.5616,-3.5616,-3.5616,-3.5616,-3.5616,-3.5616,-3.5616,-3.5616,-3.5616,-3.5616,-3.5616,-3.5616,-3.5616,-3.5616,-3.5616,-3.5616,-3.5616,-3.5616,-3.5616,-3.5616,-3.5616,-3.5616,-3.5616,-3.5616,-3.5616,-3.5616,-3.5616,-3.5616,-3.5616,-3.5616,-3.5616,-3.5616,-3.5616,-3.5616,-3.5616,-3.5616,-3.5616,-3.5616,-3.5616,-3.5616,-3.5667,-3.5836,-3.5971,-3.6011,-3.6039,-3.5963,-3.5902,-3.6207,-3.656,-3.6764,-3.7079,-3.7842,-3.803,-3.8115,-3.8399,-3.8707,-3.8707,-3.8707,-3.8707,-3.8707,-3.8707,-3.8707,-3.8707,-3.8707,-3.8707,-3.8707,-3.8707,-3.8707,-3.8707,-3.8747,-3.8829,-3.9087,-4.4598,-4.4598,-4.4598,-4.4598,-4.4598,-4.4598,-4.4598,-4.4547,-4.4327,-4.3386,-4.1948,-4.139,-4.0798,-4.0282,-4.0113,-4.0113,-4.0113,-4.0113,-4.0113,-4.0113,-4.0113,-4.0113,-4.0113,-4.0113,-4.0113,-4.0113,-4.0113,-4.0113,-4.0113,-4.0113,-4.0113,-3.9943,-3.9571,-3.8886,-3.7719,-3.6485,-3.5616,-3.5616,-3.5616,-3.5616,-3.5616,-3.5616,-3.5616,-3.5616,-3.5616,-3.5616,-3.5616,-3.5616,-3.5616,-3.5616,-3.5616,-3.5616,-3.5616,-3.5616,-3.5616,-3.5616,-3.5616,-3.5616,-3.5616,-3.5616,-3.5616,-3.5616,-3.5616,-3.5616,-3.5616,-3.5616,-3.5616,-3.5616,-3.5616,-3.5616,-3.5616,-3.5616,-3.5616,-3.5616,-3.5616,-3.5616,-3.5616,-3.5616,-3.5616,-3.5616,-3.5616,-3.5622,-3.5739,-3.5783,-3.6036,-3.6029,-3.5859,-3.6107,-3.6478,-3.646,-3.6525,-3.6904,-3.7248,-3.7632,-3.8065,-3.8232,-3.8399,-3.8465,-3.8707,-3.8707,-3.8707,-3.8707,-3.8707,-3.8707,-3.8707,-3.8707,-3.8707,-3.8707,-3.8707,-3.8707,-3.8704,-3.8735,-3.8865,-3.8999,-3.9327,-4.4598,-4.4598,-4.4581,-4.4564,-4.4513,-4.4598,-4.4547,-4.4361,-4.3639,-4.2608,-4.1407,-4.1153,-4.0747,-4.0214,-4.0113,-4.0113,-4.0113,-4.0113,-4.0113,-4.0113,-4.0113,-4.0113,-4.0113,-4.0113,-4.0113,-4.0113,-4.0113,-4.0113,-4.0113,-4.0113,-4.0113,-3.9977,-3.9656,-3.9039,-3.7814,-3.636,-3.565,-3.5616,-3.5616,-3.5616,-3.5616,-3.5616,-3.5616,-3.5616,-3.5616,-3.5616,-3.5616,-3.5616,-3.5616,-3.5616,-3.5616,-3.5616,-3.5616,-3.5616,-3.5616,-3.5616,-3.5616,-3.5616,-3.5616,-3.5616,-3.5616,-3.5616,-3.5616,-3.5616,-3.5616,-3.5616,-3.5616,-3.5616,-3.5616,-3.5616,-3.5616,-3.5616,-3.5616,-3.5616,-3.5616,-3.5616,-3.5616,-3.5616,-3.5616,-3.5616,-3.5616,-3.5644,-3.5827,-3.6011,-3.6312,-3.6266,-3.5893,-3.6097,-3.6664,-3.7001,-3.7041,-3.7286,-3.7703,-3.8033,-3.8366,-3.853,-3.8658,-3.8707,-3.8707,-3.8707,-3.8707,-3.8707,-3.8707,-3.8707,-3.8707,-3.8707,-3.8707,-3.8707,-3.875,-3.8792,-3.8762,-3.8818,-3.8971,-3.9212,-3.9564,-4.4598,-4.4564,-4.4028,-4.3792,-4.3792,-4.3826,-4.3809,-4.3589,-4.254,-4.1644,-4.1153,-4.0713,-4.04,-4.0146,-4.0113,-4.0113,-4.0113,-4.0113,-4.0113,-4.0113,-4.0113,-4.0113,-4.0113,-4.0113,-4.0113,-4.0113,-4.0113,-4.0113,-4.0113,-4.0113,-4.0113,-3.9994,-3.9208,-3.8413,-3.7618,-3.6479,-3.5616,-3.5616,-3.5616,-3.5616,-3.5616,-3.5616,-3.5616,-3.5616,-3.5616,-3.5616,-3.5616,-3.5616,-3.5616,-3.5616,-3.5616,-3.5616,-3.5616,-3.5616,-3.5616,-3.5616,-3.5616,-3.5616,-3.5616,-3.5616,-3.5616,-3.5616,-3.5616,-3.5616,-3.5616,-3.5616,-3.5616,-3.5616,-3.5616,-3.5616,-3.5616,-3.5616,-3.5616,-3.5616,-3.5616,-3.5616,-3.5616,-3.5616,-3.5616,-3.5616,-3.5616,-3.5937,-3.6139,-3.644,-3.6726,-3.6981,-3.6746,-3.646,-3.6843,-3.736,-3.7614,-3.779,-3.8082,-3.8401,-3.8661,-3.8692,-3.8707,-3.8707,-3.8707,-3.8707,-3.8707,-3.8707,-3.8707,-3.8707,-3.8707,-3.8707,-3.8723,-3.875,-3.8848,-3.8888,-3.8966,-3.9031,-3.9184,-3.9493,-3.988,-4.3819,-4.3724,-4.325,-4.3031,-4.3031,-4.3031,-4.2885,-4.2523,-4.161,-4.1068,-4.073,-4.0299,-4.0113,-4.0113,-4.0113,-4.0113,-4.0113,-4.0113,-4.0113,-4.0113,-4.0113,-4.0113,-4.0113,-4.0113,-4.0113,-4.0113,-4.0113,-4.0113,-4.0113,-4.0113,-3.9926,-3.9436,-3.8531,-3.7905,-3.7212,-3.6315,-3.5616,-3.5616,-3.5616,-3.5616,-3.5616,-3.5616,-3.5616,-3.5616,-3.5616,-3.5616,-3.5616,-3.5616,-3.5616,-3.5616,-3.5616,-3.5616,-3.5616,-3.5616,-3.5616,-3.5616,-3.5616,-3.5616,-3.5616,-3.5616,-3.5616,-3.5616,-3.5616,-3.5616,-3.5616,-3.5616,-3.5616,-3.5616,-3.5616,-3.5616,-3.5616,-3.5616,-3.5616,-3.5616,-3.5616,-3.5616,-3.5644,-3.5667,-3.5827,-3.5783,-3.5941,-3.6245,-3.658,-3.6865,-3.7174,-3.7433,-3.7649,-3.7377,-3.7133,-3.7578,-3.8048,-3.8216,-3.8332,-3.8546,-3.8676,-3.8692,-3.8707,-3.8707,-3.8707,-3.8707,-3.8707,-3.8707,-3.8707,-3.8707,-3.8707,-3.8707,-3.8735,-3.8807,-3.8923,-3.9149,-3.9364,-3.9408,-3.9445,-3.9742,-4.011,-4.225,-4.2233,-4.2243,-4.2156,-4.2156,-4.2034,-4.1743,-4.1204,-4.1153,-4.073,-4.013,-4.0146,-4.0113,-4.0113,-4.0113,-4.0113,-4.0113,-4.0113,-4.0113,-4.0113,-4.0113,-4.0113,-4.0113,-4.0113,-4.0113,-4.0113,-4.0113,-4.0113,-4.0113,-4.0113,-3.9774,-3.9157,-3.8396,-3.7753,-3.7026,-3.6248,-3.5718,-3.5616,-3.5616,-3.5616,-3.5616,-3.5616,-3.5616,-3.5616,-3.5616,-3.5616,-3.5616,-3.5616,-3.5616,-3.5616,-3.5616,-3.5616,-3.5616,-3.5616,-3.5616,-3.5616,-3.5616,-3.5616,-3.5616,-3.5616,-3.5616,-3.5616,-3.5616,-3.5616,-3.5616,-3.5616,-3.5616,-3.5616,-3.5616,-3.5616,-3.5616,-3.5616,-3.5616,-3.5616,-3.5616,-3.5644,-3.5694,-3.5849,-3.6054,-3.6203,-3.6374,-3.6684,-3.7116,-3.7433,-3.7578,-3.7825,-3.8083,-3.8201,-3.7982,-3.7861,-3.8267,-3.8496,-3.8593,-3.8643,-3.8707,-3.8707,-3.8707,-3.8707,-3.8707,-3.8707,-3.8707,-3.8707,-3.8707,-3.8707,-3.8707,-3.8723,-3.8719,-3.8855,-3.9058,-3.9302,-3.9587,-3.9754,-3.9765,-3.9953,-4.026,-4.1184,-4.0684,-4.0707,-4.0408,-3.9899,-3.9891,-4.0043,-4.0383,-4.0392,-4.0265,-4.0113,-4.0113,-4.0045,-4.0113,-4.0113,-4.0113,-4.007,-4.0113,-4.0113,-4.007,-4.002,-4.007,-4.007,-4.002,-4.007,-4.007,-4.007,-4.0113,-4.0113,-4.0113,-4.0062,-3.9665,-3.8447,-3.7821,-3.7127,-3.6242,-3.5836,-3.5616,-3.5616,-3.5616,-3.5616,-3.5616,-3.5616,-3.5616,-3.5616,-3.5616,-3.5616,-3.5616,-3.5616,-3.5616,-3.5616,-3.5616,-3.5616,-3.5616,-3.5616,-3.5616,-3.5616,-3.5616,-3.5616,-3.5616,-3.5616,-3.5616,-3.5616,-3.5616,-3.5616,-3.5616,-3.5616,-3.5616,-3.5616,-3.5616,-3.5616,-3.5616,-3.5689,-3.5739,-3.5783,-3.5898,-3.5989,-3.6228,-3.644,-3.6786,-3.6962,-3.7248,-3.7685,-3.779,-3.7929,-3.8218,-3.8433,-3.8611,-3.8643,-3.8465,-3.8433,-3.8643,-3.8707,-3.8707,-3.8707,-3.8707,-3.8707,-3.8707,-3.8707,-3.8707,-3.8707,-3.8707,-3.8707,-3.8704,-3.8732,-3.8735,-3.8707,-3.8937,-3.9327,-3.951,-3.9775,-3.9962,-4.012,-4.0251,-4.0339,-3.9586,-3.9167,-3.9174,-3.891,-3.8496,-3.8497,-3.8789,-3.9252,-3.9825,-3.9952,-3.9705,-3.9952,-3.9756,-3.9279,-3.9705,-3.9944,-3.961,-3.9969,-4.0096,-4.0045,-3.9756,-3.961,-3.961,-3.9636,-3.9568,-3.9688,-3.9927,-4.0113,-4.007,-4.0062,-4.0011,-3.9462,-3.8396,-3.7855,-3.7161,-3.6248,-3.5701,-3.5616,-3.5616,-3.5616,-3.5616,-3.5616,-3.5616,-3.5616,-3.5616,-3.5616,-3.5616,-3.5616,-3.5616,-3.5616,-3.5616,-3.5616,-3.5616,-3.5616,-3.5616,-3.5616,-3.5616,-3.5616,-3.5616,-3.5616,-3.5616,-3.5616,-3.5616,-3.5616,-3.5616,-3.5616,-3.5616,-3.5616,-3.5616,-3.5616,-3.5616,-3.5622,-3.5783,-3.592,-3.6054,-3.6203,-3.6416,-3.6664,-3.7001,-3.7396,-3.7667,-3.7912,-3.81,-3.815,-3.8232,-3.8465,-3.8562,-3.8627,-3.8707,-3.8627,-3.8562,-3.8658,-3.8707,-3.8707,-3.8707,-3.8707,-3.8707,-3.8707,-3.8707,-3.8707,-3.8707,-3.8689,-3.8689,-3.8747,-3.8818,-3.8829,-3.8884,-3.9288,-3.9668,-3.9819,-3.9964,-4.0176,-4.0313,-4.0364,-4.043,-3.7693,-3.7608,-3.7602,-3.7666,-3.769,-3.769,-3.7719,-3.7892,-3.9183,-3.9506,-3.9032,-3.9542,-3.9092,-3.8458,-3.9092,-3.9252,-3.9119,-3.9332,-3.9506,-3.985,-3.9129,-3.8897,-3.9032,-3.8951,-3.9139,-3.9262,-3.9463,-3.9756,-3.9952,-3.9969,-3.9791,-3.9022,-3.8278,-3.7736,-3.7161,-3.6146,-3.5633,-3.5616,-3.5616,-3.5616,-3.5616,-3.5616,-3.5616,-3.5616,-3.5616,-3.5616,-3.5616,-3.5616,-3.5616,-3.5616,-3.5616,-3.5616,-3.5616,-3.5616,-3.5616,-3.5616,-3.5616,-3.5616,-3.5616,-3.5616,-3.5616,-3.5616,-3.5616,-3.5616,-3.5616,-3.5616,-3.5616,-3.5616,-3.5616,-3.5778,-3.5827,-3.5898,-3.6032,-3.6291,-3.6539,-3.6783,-3.7058,-3.7323,-3.7667,-3.7964,-3.8168,-3.8366,-3.8399,-3.8465,-3.843,-3.8643,-3.8707,-3.8707,-3.8707,-3.8707,-3.8707,-3.8707,-3.8707,-3.8707,-3.8707,-3.8707,-3.8707,-3.8707,-3.8707,-3.8707,-3.8707,-3.8689,-3.8704,-3.88,-3.8933,-3.9068,-3.9205,-3.9599,-3.9872,-3.9993,-4.0167,-4.0397,-4.0489,-4.0469,-4.0489,-3.6554,-3.6068,-3.6053,-3.6368,-3.6859,-3.6873,-3.6873,-3.698,-3.7905,-3.8234,-3.8104,-3.8234,-3.8149,-3.7835,-3.8222,-3.8346,-3.8262,-3.8458,-3.8374,-3.8458,-3.8161,-3.8286,-3.8718,-3.8635,-3.8745,-3.8935,-3.9113,-3.9315,-3.9516,-3.9774,-4.0011,-3.9673,-3.865,-3.7719,-3.7449,-3.636,-3.5633,-3.5616,-3.5616,-3.5616,-3.5616,-3.5616,-3.5616,-3.5616,-3.5616,-3.5616,-3.5616,-3.5616,-3.5616,-3.5616,-3.5616,-3.5616,-3.5616,-3.5616,-3.5616,-3.5616,-3.5616,-3.5616,-3.5616,-3.5616,-3.5616,-3.5616,-3.5616,-3.5616,-3.5616,-3.5616,-3.5616,-3.5616,-3.5711,-3.5915,-3.6092,-3.6203,-3.6395,-3.6724,-3.7018,-3.7359,-3.7685,-3.7981,-3.8302,-3.8449,-3.8611,-3.8658,-3.8692,-3.8707,-3.8707,-3.8707,-3.8707,-3.8707,-3.8707,-3.8707,-3.8707,-3.8707,-3.8707,-3.8707,-3.8707,-3.8707,-3.8707,-3.8707,-3.8707,-3.8707,-3.8707,-3.8762,-3.8815,-3.8961,-3.9104,-3.9295,-3.9529,-3.9797,-4.0042,-4.0177,-4.0286,-4.0465,-4.0496,-4.0489,-4.0489,-3.5863,-3.5489,-3.5489,-3.5718,-3.6054,-3.6117,-3.6102,-3.6196,-3.66,-3.6768,-3.6951,-3.7383,-3.7456,-3.7145,-3.7442,-3.7456,-3.7427,-3.7706,-3.7892,-3.7851,-3.7427,-3.7483,-3.7774,-3.7987,-3.7787,-3.793,-3.8701,-3.9069,-3.9219,-3.974,-4.0045,-3.9817,-3.8693,-3.7848,-3.7662,-3.6479,-3.5577,-3.5616,-3.5577,-3.56,-3.56,-3.5616,-3.5616,-3.5616,-3.5616,-3.5616,-3.5616,-3.5616,-3.5616,-3.5616,-3.5616,-3.5616,-3.5616,-3.5616,-3.5616,-3.5616,-3.5616,-3.5616,-3.5616,-3.5616,-3.5616,-3.5616,-3.5616,-3.5616,-3.5616,-3.5616,-3.5616,-3.5644,-3.5985,-3.6203,-3.6374,-3.6519,-3.6962,-3.7341,-3.7506,-3.7755,-3.8065,-3.8382,-3.853,-3.8578,-3.8658,-3.8673,-3.8707,-3.8707,-3.8707,-3.8707,-3.8707,-3.8707,-3.8707,-3.8707,-3.8707,-3.8707,-3.8707,-3.8707,-3.8707,-3.8707,-3.8707,-3.8707,-3.8707,-3.8704,-3.8735,-3.8826,-3.8947,-3.9131,-3.9371,-3.9664,-3.9891,-4.0081,-4.0213,-4.0347,-4.0425,-4.0489,-4.0496,-4.0496,-4.0496,-3.5392,-3.5457,-3.5489,-3.5489,-3.5489,-3.5489,-3.5522,-3.5522,-3.5522,-3.5554,-3.5765,-3.692,-3.6538,-3.6399,-3.6707,-3.6722,-3.6783,-3.6905,-3.7265,-3.7175,-3.6722,-3.6828,-3.6813,-3.6752,-3.6858,-3.7202,-3.7873,-3.8564,-3.9086,-3.9532,-3.9698,-3.9607,-3.8854,-3.7841,-3.7337,-3.6397,-3.5362,-3.5339,-3.5339,-3.5492,-3.5554,-3.5616,-3.5616,-3.5616,-3.5616,-3.5616,-3.5616,-3.5616,-3.5616,-3.5616,-3.5616,-3.5616,-3.5616,-3.5616,-3.5616,-3.5616,-3.5616,-3.5616,-3.5616,-3.5616,-3.5616,-3.5616,-3.5616,-3.5616,-3.5616,-3.5622,-3.5622,-3.5898,-3.6228,-3.6542,-3.6724,-3.6981,-3.747,-3.786,-3.8015,-3.8099,-3.8415,-3.8673,-3.8673,-3.8707,-3.8707,-3.8707,-3.8707,-3.8707,-3.8707,-3.8707,-3.8707,-3.8707,-3.8707,-3.8707,-3.8707,-3.8707,-3.8707,-3.8707,-3.8707,-3.8707,-3.8707,-3.8707,-3.8707,-3.8719,-3.8747,-3.8815,-3.9017,-3.9371,-3.9622,-3.984,-4.0082,-4.0294,-4.0406,-4.0465,-4.0481,-4.0496,-4.0496,-4.0496,-4.0496,-3.4773,-3.5489,-3.5489,-3.5489,-3.5489,-3.5489,-3.5489,-3.5489,-3.5489,-3.5489,-3.5587,-3.5651,-3.5651,-3.5489,-3.5716,-3.5846,-3.6006,-3.6149,-3.5958,-3.5814,-3.5943,-3.6196,-3.6368,-3.6384,-3.6554,-3.6843,-3.7038,-3.7158,-3.823,-3.887,-3.9123,-3.904,-3.8412,-3.7541,-3.6804,-3.5827,-3.4998,-3.503,-3.5098,-3.5192,-3.5554,-3.5616,-3.5616,-3.5616,-3.5616,-3.5616,-3.5616,-3.5616,-3.5616,-3.5616,-3.5616,-3.5616,-3.5616,-3.5616,-3.5616,-3.5616,-3.5616,-3.5616,-3.5616,-3.5616,-3.5616,-3.5616,-3.5616,-3.5616,-3.5622,-3.5672,-3.5832,-3.6249,-3.6603,-3.6983,-3.7248,-3.7542,-3.7981,-3.8267,-3.8481,-3.8481,-3.8643,-3.8673,-3.8707,-3.8707,-3.8707,-3.8707,-3.8707,-3.8707,-3.8707,-3.8707,-3.8707,-3.8707,-3.8707,-3.8707,-3.8707,-3.8707,-3.8707,-3.8707,-3.8707,-3.8707,-3.8707,-3.8707,-3.8732,-3.8815,-3.8844,-3.8792,-3.9022,-3.9529,-3.9735,-3.9884,-4.0148,-4.0422,-4.0457,-4.0481,-4.0489,-4.0496,-4.0496,-4.0496,-4.0496]},{"header":{"parameterUnit":"m.s-1","parameterCategory":1,"la1":31.0,"la2":29.5877,"lo1":-88.7671,"lo2":-86.6584,"dy":0.0162,"dx":0.0185,"nx":115,"ny":88,"refTime":"2024-08-01T00:00:00:Z","depth":0,"parameterNumber":3,"parameterNumberName":"V-component_of_WINDS"},"data":[0.0,0.0,0.0,0.0,0.0,0.0,0.0,0.0,0.0,0.0,0.0,0.0,0.0,0.0,0.0,0.0,0.0,0.0,0.0,0.0,0.0,0.0,0.0,0.0,0.0,0.0,0.0,0.0,0.0,0.0,0.0,0.0,0.0,0.0,0.0,0.0,0.0,0.0,0.0,0.0,0.0,0.0,0.0,0.0,0.0,0.0,0.0,0.0,0.0,0.0,0.0,0.0,0.0,0.0,0.0,0.0,0.0,0.0,0.0,0.0,0.0,0.0,0.0,0.0,0.0,0.0,0.0,0.0,0.0,0.0,0.0,0.0,0.0,0.0,0.0,0.0,0.0,0.0,0.0,0.0,0.0,0.0,0.0,0.0,0.0,0.0,0.0,0.0,0.0,0.0,0.0,0.0,0.0,0.0,0.0,0.0,0.0,0.0,0.0,0.0,0.0,0.0,0.0,0.0,0.0,0.0,0.0,0.0,0.0,0.0,0.0,0.0,0.0,0.0,0.0,0.0,0.0,0.0,0.0,0.0,0.0,0.0,0.0,0.0,0.0,0.0,0.0,0.0,0.0,0.0,0.0,0.0,0.0,0.0,0.0,0.0,0.0,0.0,0.0,0.0,0.0,0.0,0.0,0.0,0.0,0.0,0.0,0.0,0.0,0.0,0.0,0.0,0.0,0.0,0.0,0.0,0.0,0.0,0.0,0.0,0.0,0.0,0.0,0.0,0.0,0.0,0.0,0.0,0.0,0.0,0.0,0.0,0.0,0.0,0.0,0.0,0.0,0.0,0.0,0.0,0.0,0.0,0.0,0.0,0.0,0.0,0.0,0.0,0.0,0.0,0.0,0.0,0.0,0.0,0.0,0.0,0.0,0.0,0.0,0.0,0.0,0.0,0.0,0.0,0.0,0.0,0.0,0.0,0.0,0.0,0.0,0.0,0.0,0.0,0.0,0.0,0.0,0.0,0.0,0.0,0.0,0.0,0.0,0.0,0.0,0.0,0.0,0.0,0.0,0.0,0.0,0.0,0.0,0.0,0.0,0.0,0.0,0.0,0.0,0.0,0.0,0.0,0.0,0.0,0.0,0.0,0.0,0.0,0.0,0.0,0.0,0.0,0.0,0.0,0.0,0.0,0.0,0.0,0.0,0.0,0.0,0.0,0.0,0.0,0.0,0.0,0.0,0.0,0.0,0.0,0.0,0.0,0.0,0.0,0.0,0.0,0.0,0.0,0.0,0.0,0.0,0.0,0.0,0.0,0.0,0.0,0.0,0.0,0.0,0.0,0.0,0.0,0.0,0.0,0.0,0.0,0.0,0.0,0.0,0.0,0.0,0.0,0.0,0.0,0.0,0.0,0.0,0.0,0.0,0.0,0.0,0.0,0.0,0.0,0.0,0.0,0.0,0.0,0.0,0.0,0.0,0.0,0.0,0.0,0.0,0.0,0.0,0.0,0.0,0.0,0.0,0.0,0.0,0.0,0.0,0.0,0.0,0.0,0.0,0.0,0.0,0.0,0.0,0.0,0.0,0.0,0.0,0.0,0.0,0.0,0.0,0.0,0.0,0.0,0.0,0.0,0.0,0.0,0.0,0.0,0.0,0.0,0.0,0.0,0.0,0.0,0.0,0.0,0.0,0.0,0.0,0.0,0.0,0.0,0.0,0.0,0.0,0.0,0.0,0.0,0.0,0.0,0.0,0.0,0.0,0.0,0.0,0.0,0.0,0.0,0.0,0.0,0.0,0.0,0.0,0.0,0.0,0.0,0.0,0.0,0.0,0.0,0.0,0.0,0.0,0.0,0.0,0.0,0.0,0.0,0.0,0.0,0.0,0.0,0.0,0.0,0.0,0.0,0.0,0.0,0.0,0.0,0.0,0.0,0.0,0.0,0.0,0.0,0.0,0.0,0.0,0.0,0.0,0.0,0.0,0.0,0.0,0.0,0.0,0.0,0.0,0.0,0.0,0.0,0.0,0.0,0.0,0.0,0.0,0.0,0.0,0.0,0.0,0.0,0.0,0.0,0.0,0.0,0.0,0.0,0.0,0.0,0.0,0.0,0.0,0.0,0.0,0.0,0.0,0.0,0.0,0.0,0.0,0.0,0.0,0.0,0.0,0.0,0.0,0.0,0.0,0.0,0.0,0.0,0.0,0.0,0.0,0.0,0.0,0.0,0.0,0.0,0.0,0.0,0.0,0.0,0.0,0.0,0.0,0.0,0.0,0.0,0.0,0.0,0.0,0.0,0.0,0.0,0.0,0.0,0.0,0.0,0.0,0.0,0.0,0.0,0.0,0.0,0.0,0.0,0.0,0.0,0.0,0.0,0.0,0.0,0.0,0.0,0.0,0.0,0.0,0.0,0.0,0.0,0.0,0.0,0.0,0.0,0.0,0.0,0.0,0.0,0.0,0.0,0.0,0.0,0.0,0.0,0.0,0.0,0.0,0.0,0.0,0.0,0.0,0.0,0.0,0.0,0.0,0.0,0.0,0.0,0.0,0.0,0.0,0.0,0.0,0.0,0.0,0.0,0.0,0.0,0.0,0.0,0.0,0.0,0.0,0.0,0.0,0.0,0.0,0.0,0.0,0.0,0.0,0.0,0.0,0.0,0.0,0.0,0.0,0.0,0.0,0.0,0.0,0.0,0.0,0.0,0.0,0.0,0.0,0.0,0.0,0.0,0.0,0.0,0.0,0.0,0.0,0.0,0.0,0.0,0.0,0.0,0.0,0.0,0.0,0.0,0.0,0.0,0.0,0.0,0.0,0.0,0.0,0.0,0.0,0.0,0.0,0.0,0.0,0.0,0.0,0.0,0.0,0.0,0.0,0.0,0.0,0.0,0.0,0.0,0.0,0.0,0.0,0.0,0.0,0.0,0.0,0.0,0.0,0.0,0.0,0.0,0.0,0.0,0.0,0.0,0.0,0.0,0.0,0.0,0.0,0.0,0.0,0.0,0.0,0.0,0.0,0.0,0.0,0.0,0.0,0.0,0.0,0.0,0.0,0.0,0.0,0.0,0.0,0.0,0.0,0.0,0.0,0.0,0.0,0.0,0.0,0.0,0.0,0.0,0.0,0.0,0.0,0.0,0.0,0.0,0.0,0.0,0.0,0.0,0.0,0.0,0.0,0.0,0.0,0.0,0.0,0.0,0.0,0.0,0.0,0.0,0.0,0.0,0.0,0.0,0.0,0.0,0.0,0.0,0.0,0.0,0.0,0.0,0.0,0.0,0.0,0.0,0.0,0.0,0.0,0.0,0.0,0.0,0.0,0.0,0.0,0.0,0.0,0.0,0.0,0.0,0.0,0.0,0.0,0.0,0.0,0.0,0.0,0.0,0.0,0.0,0.0,0.0,0.0,0.0,0.0,0.0,0.0,0.0,0.0,0.0,0.0,0.0,0.0,0.0,0.0,0.0,0.0,0.0,0.0,0.0,0.0,0.0,0.0,0.0,0.0,0.0,0.0,0.0,0.0,0.0,0.0,0.0,0.0,0.0,0.0,0.0,0.0,0.0,0.0,0.0,0.0,0.0,0.0,0.0,0.0,0.0,0.0,0.0,0.0,0.0,0.0,0.0,0.0,0.0,0.0,0.0,0.0,0.0,0.0,0.0,0.0,0.0,0.0,0.0,0.0,0.0,0.0,0.0,0.0,0.0,0.0,0.0,0.0,0.0,0.0,0.0,0.0,0.0,0.0,0.0,0.0,0.0,0.0,0.0,0.0,0.0,0.0,0.0,0.0,0.0,0.0,0.0,0.0,0.0,0.0,0.0,0.0,0.0,0.0,0.0,0.0,0.0,0.0,0.0,0.0,0.0,0.0,0.0,0.0,0.0,0.0,0.0,0.0,0.0,0.0,0.0,0.0,0.0,0.0,0.0,0.0,0.0,0.0,0.0,0.0,0.0,0.0,0.0,0.0,0.0,0.0,0.0,0.0,0.0,0.0,0.0,0.0,0.0,0.0,0.0,0.0,0.0,0.0,0.0,0.0,0.0,0.0,0.0,0.0,0.0,0.0,0.0,0.0,0.0,0.0,0.0,0.0,0.0,0.0,0.0,0.0,0.0,0.0,0.0,0.0,0.0,0.0,0.0,0.0,0.0,0.0,0.0,0.0,0.0,0.0,0.0,0.0,0.0,0.0,0.0,0.0,0.0,0.0,0.0,0.0,0.0,0.0,0.0,0.0,0.0,0.0,0.0,0.0,0.0,0.0,0.0,0.0,0.0,0.0,0.0,0.0,0.0,0.0,0.0,0.0,0.0,0.0,0.0,0.0,0.0,0.0,0.0,-0.1088,0.0,0.0,0.0,0.0,0.0,0.0,0.0,0.0,0.0,0.0,0.0,0.0,0.0,0.0,0.0,0.0,0.0,0.0,0.0,0.0,0.0,0.0,0.0,0.0,0.0,0.0,0.0,0.0,0.0,0.0,0.0,0.0,0.0,0.0,0.0,0.0,0.0,0.0,0.0,0.0,0.0,0.0,0.0,0.0,0.0,0.0,0.0,0.0,0.0,0.0,0.0,0.0,0.0,0.0,0.0,0.0,0.0,0.0,0.0,0.0,0.0,0.0,0.0,0.0,0.0,0.0,0.0,0.0,0.0,0.0,0.0,0.0,0.0,0.0,0.0,0.0,0.0,0.0,0.0,0.0,0.0,0.0,0.0,0.0,0.0,0.0,0.0,0.0,0.0,0.0,0.0,0.0,0.0,0.0,0.0,0.0,0.0,0.0,0.0,0.0,0.0,0.0,0.0,0.0,0.0,0.0,0.0,0.0,0.0,0.0,-0.1776,-0.1978,-0.1173,-0.0887,-0.1271,0.0,0.0,0.0,0.0,0.0,0.0,0.0,0.0,0.0,0.0,0.0,0.0,0.0,0.0,0.0,0.0,0.0,0.0,0.0,0.0,0.0,0.0,0.0,0.0,0.0,0.0,0.0,0.0,0.0,0.0,0.0,0.0,0.0,0.0,0.0,0.0,0.0,0.0,0.0,0.0,0.0,0.0,0.0,0.0,0.0,0.0,0.0,0.0,0.0,0.0,0.0,0.0,0.0,0.0,0.0,0.0,0.0,0.0,0.0,0.0,0.0,0.0,0.0,0.0,0.0,0.0,0.0,0.0,0.0,0.0,0.0,0.0,0.0,0.0,0.0,0.0,0.0,0.0,0.0,0.0,0.0,0.0,0.0,0.0,0.0,0.0,0.0,0.0,0.0,0.0,0.0,0.0,0.0,0.0,0.0,0.0,0.0,0.0,0.0,0.0,0.0,0.0,0.0,0.0,0.0,0.0,0.0,0.0,0.0,0.0,0.0,0.0,-0.173,-0.1406,-0.1406,0.0,0.0,0.0,0.0,0.0,0.0,0.0,0.0,0.0,0.0,0.0,0.0,0.0,0.0,0.0,0.0,0.0,0.0,0.0,0.0,0.0,0.0,0.0,0.0,0.0,0.0,0.0,0.0,0.0,0.0,0.0,0.0,0.0,0.0,0.0,0.0,0.0,0.0,0.0,0.0,0.0,0.0,0.0,0.0,0.0,0.0,0.0,0.0,0.0,0.0,0.0,0.0,0.0,0.0,0.0,0.0,0.0,0.0,0.0,0.0,0.0,0.0,0.0,0.0,0.0,0.0,0.0,0.0,0.0,0.0,0.0,0.0,0.0,0.0,0.0,0.0,0.0,0.0,0.0,0.0,0.0,0.0,0.0,0.0,0.0,0.0,0.0,0.0,0.0,0.0,0.0,0.0,0.0,0.0,0.0,0.0,0.0,0.0,0.0,0.0,0.0,0.0,0.0,0.0,0.0,0.0,0.0,0.0,0.0,0.0,-0.2412,-0.3232,-0.2282,0.0,-0.1771,0.0,0.0,0.0,0.0,0.0,0.0,0.0,0.0,0.0,0.0,0.0,0.0,0.0,0.0,0.0,0.0,0.0,0.0,0.0,0.0,0.0,0.0,0.0,0.0,0.0,0.0,0.0,0.0,0.0,0.0,0.0,0.0,0.0,0.0,0.0,0.0,0.0,0.0,0.0,0.0,0.0,0.0,0.0,0.0,0.0,0.0,0.0,0.0,0.0,0.0,0.0,0.0,0.0,0.0,0.0,0.0,0.0,0.0,0.0,0.0,0.0,0.0,0.0,0.0,0.0,0.0,0.0,0.0,0.0,0.0,0.0,0.0,0.0,0.0,0.0,0.0,0.0,0.0,0.0,0.0,0.0,0.0,0.0,0.0,0.0,0.0,0.0,0.0,0.0,0.0,0.0,0.0,0.0,0.0,0.0,0.0,0.0,0.0,0.0,0.0,0.0,0.0,0.0,0.0,0.0,0.0,0.0,0.0,0.0,0.0,0.0,-0.3212,-0.2796,-0.2573,0.0,0.0,0.0,0.0,0.0,0.0,0.0,0.0,0.0,0.0,0.0,0.0,0.0,0.0,0.0,0.0,0.0,0.0,0.0,0.0,0.0,0.0,0.0,0.0,0.0,0.0,0.0,0.0,0.0,0.0,0.0,0.0,0.0,0.0,0.0,0.0,0.0,0.0,0.0,0.0,0.0,0.0,0.0,0.0,0.0,0.0,0.0,0.0,0.0,0.0,0.0,0.0,0.0,0.0,0.0,0.0,0.0,0.0,0.0,0.0,0.0,0.0,0.0,0.0,0.0,0.0,0.0,0.0,0.0,0.0,0.0,0.0,0.0,0.0,0.0,0.0,0.0,0.0,0.0,0.0,0.0,0.0,0.0,0.0,0.0,0.0,0.0,0.0,0.0,0.0,0.0,0.0,0.0,0.0,0.0,0.0,0.0,0.0,0.0,0.0,0.0,0.0,0.0,0.0,0.0,0.0,0.0,0.0,0.0,0.0,-0.3224,0.0,-0.3229,-0.3249,-0.3189,-0.3085,0.0,0.0,0.0,0.0,0.0,0.0,0.0,0.0,0.0,0.0,0.0,0.0,0.0,0.0,0.0,0.0,0.0,0.0,0.0,0.0,0.0,0.0,0.0,0.0,0.0,0.0,0.0,0.0,0.0,0.0,0.0,0.0,0.0,0.0,0.0,0.0,0.0,0.0,0.0,0.0,0.0,0.0,0.0,0.0,0.0,0.0,0.0,0.0,0.0,0.0,0.0,0.0,0.0,0.0,0.0,0.0,0.0,0.0,0.0,0.0,0.0,0.0,0.0,0.0,0.0,0.0,0.0,0.0,0.0,0.0,0.0,0.0,0.0,0.0,0.0,0.0,0.0,0.0,0.0,0.0,0.0,0.0,0.0,0.0,0.0,0.0,0.0,0.0,0.0,0.0,0.0,0.0,0.0,0.0,0.0,0.0,0.0,0.0,0.0,0.0,0.0,0.0,0.0,0.0,0.0,0.0,0.0,0.0,0.0,-0.3317,-0.3269,-0.3576,-0.358,-0.3422,0.0,0.0,0.0,0.0,0.0,0.0,0.0,0.0,0.0,0.0,0.0,0.0,0.0,0.0,0.0,0.0,0.0,0.0,0.0,0.0,0.0,0.0,0.0,0.0,0.0,0.0,0.0,0.0,0.0,0.0,0.0,0.0,0.0,0.0,0.0,0.0,0.0,0.0,0.0,0.0,0.0,0.0,0.0,0.0,0.0,0.0,0.0,0.0,0.0,0.0,0.0,0.0,0.0,0.0,0.0,0.0,0.0,0.0,0.0,0.0,0.0,0.0,0.0,0.0,0.0,0.0,0.0,0.0,0.0,0.0,0.0,0.0,0.0,0.0,0.0,0.0,0.0,0.0,0.0,0.0,0.0,0.0,0.0,0.0,0.0,0.0,0.0,0.0,0.0,0.0,0.0,0.0,0.0,0.0,0.0,0.0,0.0,0.0,0.0,0.0,0.0,0.0,0.0,0.0,0.0,0.0,0.0,0.0,0.0,-0.3085,-0.3081,-0.3384,0.0,-0.3519,-0.3307,0.0,0.0,0.0,0.0,0.0,0.0,0.0,0.0,0.0,0.0,0.0,0.0,0.0,0.0,0.0,0.0,0.0,0.0,0.0,0.0,0.0,0.0,0.0,0.0,0.0,0.0,0.0,0.0,0.0,0.0,0.0,0.0,0.0,0.0,0.0,0.0,0.0,0.0,0.0,0.0,0.0,0.0,0.0,0.0,0.0,0.0,0.0,0.0,0.0,0.0,0.0,0.0,0.0,0.0,0.0,0.0,0.0,0.0,0.0,0.0,0.0,0.0,0.0,0.0,0.0,0.0,0.0,0.0,0.0,0.0,0.0,0.0,0.0,0.0,0.0,0.0,0.0,0.0,0.0,0.0,0.0,0.0,0.0,0.0,0.0,0.0,0.0,0.0,0.0,0.0,0.0,0.0,0.0,0.0,0.0,0.0,0.0,0.0,0.0,0.0,0.0,0.0,0.0,0.0,0.0,0.0,0.0,0.0,0.0,-0.2989,0.0,-0.359,0.0,-0.3519,-0.3276,0.0,0.0,0.0,0.0,0.0,0.0,0.0,0.0,0.0,0.0,0.0,0.0,0.0,0.0,0.0,0.0,0.0,0.0,0.0,0.0,0.0,0.0,0.0,0.0,0.0,0.0,0.0,0.0,0.0,0.0,0.0,0.0,0.0,0.0,0.0,0.0,0.0,0.0,0.0,0.0,0.0,0.0,0.0,0.0,0.0,0.0,0.0,0.0,0.0,0.0,0.0,0.0,0.0,0.0,0.0,0.0,0.0,0.0,0.0,0.0,0.0,0.0,0.0,0.0,0.0,0.0,0.0,0.0,0.0,0.0,0.0,0.0,0.0,0.0,0.0,0.0,0.0,0.0,0.0,0.0,0.0,0.0,0.0,0.0,0.0,0.0,0.0,0.0,0.0,0.0,0.0,0.0,0.0,0.0,0.0,0.0,0.0,0.0,0.0,0.0,0.0,0.0,0.0,0.0,0.0,0.0,0.0,0.0,0.0,-0.3566,-0.3812,-0.3842,-0.3628,-0.3593,-0.3317,0.0,0.0,0.0,0.0,0.0,0.0,0.0,0.0,0.0,0.0,0.0,0.0,0.0,0.0,0.0,0.0,0.0,0.0,0.0,0.0,0.0,0.0,0.0,0.0,0.0,0.0,0.0,0.0,0.0,0.0,0.0,0.0,0.0,0.0,0.0,0.0,0.0,0.0,0.0,0.0,0.0,0.0,0.0,0.0,0.0,0.0,0.0,0.0,0.0,0.0,0.0,0.0,0.0,0.0,0.0,0.0,0.0,0.0,0.0,0.0,0.0,0.0,0.0,0.0,0.0,0.0,0.0,0.0,0.0,0.0,0.0,0.0,0.0,0.0,0.0,0.0,0.0,0.0,0.0,0.0,0.0,0.0,0.0,0.0,0.0,0.0,0.0,0.0,0.0,0.0,0.0,0.0,0.0,0.0,0.0,0.0,0.0,0.0,0.0,0.0,0.0,0.0,0.0,0.0,0.0,0.0,0.0,0.0,0.0,-0.3273,-0.3653,-0.3917,-0.3991,-0.3512,-0.332,0.0,0.0,0.0,0.0,0.0,0.0,0.0,0.0,0.0,0.0,0.0,0.0,0.0,0.0,0.0,0.0,0.0,0.0,0.0,0.0,0.0,0.0,0.0,0.0,0.0,0.0,0.0,0.0,0.0,0.0,0.0,0.0,0.0,0.0,0.0,0.0,0.0,0.0,0.0,0.0,0.0,0.0,0.0,0.0,0.0,0.0,0.0,0.0,0.0,0.0,0.0,0.0,0.0,0.0,0.0,0.0,0.0,0.0,0.0,0.0,0.0,0.0,0.0,0.0,0.0,0.0,0.0,0.0,0.0,0.0,0.0,0.0,0.0,0.0,0.0,0.0,0.0,0.0,0.0,0.0,0.0,0.0,0.0,0.0,0.0,0.0,0.0,0.0,0.0,0.0,0.0,0.0,0.0,0.0,0.0,0.0,0.0,0.0,0.0,0.0,0.0,0.0,0.0,0.0,0.0,0.0,0.0,0.0,0.0,-0.3568,-0.3982,-0.4222,-0.4223,-0.3654,-0.3425,-0.3524,0.0,0.0,0.0,0.0,0.0,0.0,0.0,0.0,0.0,0.0,0.0,0.0,0.0,0.0,0.0,0.0,0.0,0.0,0.0,0.0,0.0,0.0,0.0,0.0,0.0,0.0,0.0,0.0,0.0,0.0,0.0,0.0,0.0,0.0,0.0,0.0,0.0,0.0,0.0,0.0,0.0,0.0,0.0,0.0,0.0,0.0,0.0,0.0,0.0,0.0,0.0,0.0,0.0,0.0,0.0,0.0,0.0,0.0,0.0,0.0,0.0,0.0,0.0,0.0,0.0,0.0,0.0,0.0,0.0,0.0,0.0,0.0,0.0,0.0,0.0,0.0,0.0,0.0,0.0,0.0,0.0,0.0,0.0,0.0,0.0,0.0,0.0,0.0,0.0,0.0,0.0,0.0,0.0,0.0,0.0,0.0,0.0,0.0,0.0,0.0,0.0,0.0,0.0,0.0,0.0,0.0,0.0,0.0,-0.4256,-0.4707,-0.4705,-0.4264,-0.3954,-0.3605,0.0,0.0,0.0,0.0,0.0,0.0,0.0,0.0,0.0,0.0,0.0,0.0,0.0,0.0,0.0,0.0,0.0,0.0,0.0,0.0,0.0,0.0,0.0,0.0,0.0,0.0,0.0,0.0,0.0,0.0,0.0,0.0,0.0,0.0,0.0,0.0,0.0,0.0,0.0,0.0,0.0,0.0,0.0,0.0,0.0,0.0,0.0,0.0,0.0,0.0,0.0,0.0,0.0,0.0,0.0,0.0,0.0,0.0,0.0,0.0,0.0,0.0,0.0,0.0,0.0,0.0,0.0,0.0,0.0,0.0,0.0,0.0,0.0,0.0,0.0,0.0,0.0,0.0,0.0,0.0,0.0,0.0,0.0,0.0,0.0,0.0,0.0,0.0,0.0,0.0,0.0,0.0,0.0,0.0,0.0,0.0,0.0,0.0,0.0,0.0,0.0,0.0,0.0,0.0,0.0,0.0,0.0,0.0,0.0,-0.5031,-0.5197,-0.5135,-0.4864,-0.426,-0.388,0.0,0.0,0.0,0.0,0.0,0.0,0.0,0.0,0.0,0.0,0.0,0.0,0.0,0.0,0.0,0.0,0.0,0.0,0.0,0.0,0.0,0.0,0.0,0.0,0.0,0.0,0.0,0.0,0.0,0.0,0.0,0.0,0.0,0.0,0.0,0.0,0.0,0.0,0.0,0.0,0.0,0.0,0.0,0.0,0.0,0.0,0.0,0.0,0.0,0.0,0.0,0.0,0.0,0.0,0.0,0.0,0.0,0.0,0.0,0.0,0.0,0.0,0.0,0.0,0.0,0.0,0.0,0.0,0.0,0.0,0.0,0.0,0.0,0.0,0.0,0.0,0.0,0.0,0.0,0.0,0.0,0.0,0.0,0.0,0.0,0.0,0.0,0.0,0.0,0.0,0.0,0.0,0.0,0.0,0.0,0.0,0.0,0.0,0.0,0.0,0.0,0.0,0.0,0.0,0.0,0.0,0.0,0.0,-0.5781,-0.5228,-0.5709,-0.5738,-0.523,-0.4626,-0.4182,0.0,0.0,0.0,0.0,0.0,0.0,0.0,0.0,0.0,0.0,0.0,0.0,0.0,0.0,0.0,0.0,0.0,0.0,0.0,0.0,0.0,0.0,0.0,0.0,0.0,0.0,0.0,0.0,0.0,0.0,0.0,0.0,0.0,0.0,0.0,0.0,0.0,0.0,0.0,0.0,0.0,0.0,0.0,0.0,0.0,0.0,0.0,0.0,0.0,0.0,0.0,0.0,0.0,0.0,0.0,0.0,0.0,0.0,0.0,0.0,0.0,0.0,0.0,0.0,0.0,0.0,0.0,0.0,0.0,0.0,0.0,0.0,0.0,0.0,0.0,0.0,0.0,0.0,0.0,0.0,0.0,0.0,0.0,0.0,0.0,0.0,0.0,0.0,0.0,0.0,0.0,0.0,0.0,0.0,0.0,0.0,0.0,0.0,0.0,0.0,0.0,0.0,0.0,0.0,0.0,0.0,0.0,0.0,-0.6574,-0.5402,-0.623,-0.6334,-0.554,-0.4999,-0.4464,0.0,0.0,0.0,0.0,0.0,0.0,0.0,0.0,0.0,0.0,0.0,0.0,0.0,0.0,0.0,0.0,0.0,0.0,0.0,0.0,0.0,0.0,0.0,0.0,0.0,0.0,0.0,0.0,0.0,0.0,0.0,0.0,0.0,0.0,0.0,0.0,0.0,0.0,0.0,0.0,0.0,0.0,0.0,0.0,0.0,0.0,0.0,0.0,0.0,0.0,0.0,0.0,0.0,0.0,0.0,0.0,0.0,0.0,0.0,0.0,0.0,0.0,0.0,0.0,0.0,0.0,0.0,0.0,0.0,0.0,0.0,0.0,0.0,0.0,0.0,0.0,0.0,0.0,0.0,0.0,0.0,0.0,0.0,0.0,0.0,0.0,0.0,0.0,0.0,0.0,0.0,0.0,0.0,0.0,0.0,0.0,0.0,0.0,0.0,0.0,0.0,0.0,0.0,0.0,0.0,0.0,0.0,0.0,-0.729,-0.7,-0.6799,-0.6621,-0.6429,-0.5406,-0.484,0.0,0.0,0.0,0.0,0.0,0.0,0.0,0.0,0.0,0.0,0.0,0.0,0.0,0.0,0.0,0.0,0.0,0.0,0.0,0.0,0.0,0.0,0.0,0.0,0.0,0.0,0.0,0.0,0.0,0.0,0.0,0.0,0.0,0.0,0.0,0.0,0.0,0.0,0.0,0.0,0.0,0.0,0.0,0.0,0.0,0.0,0.0,0.0,-0.0321,0.0,0.0,0.0,0.0,0.0,0.0,0.0,0.0,0.0,0.0,0.0,0.0,0.0,0.0,0.0,0.0,0.0,0.0,0.0,0.0,0.0,0.0,0.0,0.0,0.0,0.0,0.0,0.0,0.0,0.0,0.0,0.0,0.0,0.0,0.0,0.0,0.0,0.0,0.0,0.0,0.0,0.0,0.0,0.0,0.0,0.0,0.0,0.0,0.0,0.0,0.0,0.0,0.0,0.0,0.0,0.0,0.0,0.0,0.0,-0.812,-0.7752,-0.7872,-0.7535,-0.6711,-0.6085,-0.5549,0.0,0.0,0.0,0.0,0.0,0.0,0.0,0.0,0.0,0.0,0.0,0.0,0.0,0.0,0.0,0.0,0.0,0.0,0.0,0.0,0.0,0.0,0.0,0.0,0.0,0.0,0.0,0.0,0.0,0.0,0.0,0.0,0.0,0.0,0.0,0.0,0.0,0.0,0.0,0.0,0.0,0.0,0.0,0.0,0.0,0.0,0.0,0.0,0.0,0.0,0.0,0.0,0.0,0.0,0.0,0.0,0.0,0.0,0.0,0.0,0.0,0.0,0.0,0.0,0.0,0.0,0.0,0.0,0.0,0.0,0.0,0.0,0.0,0.0,0.0,0.0,0.0,0.0,0.0,0.0,0.0,0.0,0.0,0.0,0.0,0.0,0.0,0.0,0.0,0.0,0.0,0.0,0.0,0.0,0.0,0.0,0.0,0.0,0.0,0.0,0.0,0.0,0.0,0.0,0.0,0.0,0.0,-0.8434,-0.8912,-0.8441,-0.8973,-0.8581,-0.7144,-0.685,-0.6323,-0.5505,0.0,0.0,0.0,0.0,0.0,0.0,0.0,0.0,0.0,0.0,0.0,0.0,0.0,0.0,0.0,0.0,0.0,0.0,0.0,0.0,0.0,0.0,0.0,0.0,0.0,0.0,0.0,0.0,0.0,0.0,0.0,0.0,0.0,0.0,0.0,0.0,0.0,0.0,0.0037,0.0042,0.0,0.0,0.0,0.0,0.0,0.0,0.0,0.0,-0.0165,0.0,0.0,0.0,0.0,0.0,0.0,0.0,0.0,0.0,0.0,0.0,0.0,0.0,0.0,0.0,0.0,0.0,0.0,0.0,0.0,0.0,0.0,0.0,0.0,0.0,0.0,0.0,0.0,0.0,0.0,0.0,0.0,0.0,0.0,0.0,0.0,0.0,0.0,0.0,0.0,0.0,0.0,0.0,0.0,0.0,0.0,0.0,0.0,0.0,0.0,0.0,0.0,0.0,0.0,0.0,0.0,-0.9233,-0.8998,-0.9278,-1.0135,-0.9594,-0.9139,-0.8844,-0.7437,-0.6842,-0.7026,0.0,0.0,0.0,0.0,0.0,0.0,0.0,0.0,0.0,0.0,0.0,0.0,0.0,0.0,0.0,0.0,0.0,0.0,0.0,0.0,0.0,0.0,0.0,0.0,0.0,0.0,0.0,0.0,0.0,0.0,0.0,0.0,0.0,0.0,0.0,0.0,0.0,0.0,0.0,0.0252,0.0123,0.0,0.0,0.0,0.0,0.0,0.0,0.0,0.0,-0.0686,0.0,0.0,0.0,0.0,0.0,0.0,0.0,0.0,0.0,0.0,0.0,0.0,0.0,0.0,0.0,0.0,0.0,0.0,0.0,0.0,0.0,0.0,0.0,0.0,0.0,0.0,0.0,0.0,0.0,0.0,0.0,0.0,0.0,0.0,0.0,0.0,0.0,0.0,0.0,0.0,0.0,0.0,0.0,0.0,0.0,0.0,0.0,0.0,0.0,0.0,0.0,0.0,0.0,0.0,0.0,-0.9055,-0.935,-0.9833,-1.0559,-1.0174,-0.9754,-0.9294,-0.8174,-0.7567,0.0,0.0,0.0,0.0,0.0,0.0,0.0,0.0,0.0,0.0,0.0,0.0,0.0,0.0,0.0,0.0,0.0,0.0,0.0,0.0,0.0,0.0,0.0,0.0,0.0,0.0,0.0,0.0,0.0,0.0,0.0,0.0,0.0,0.0,0.0,0.0,0.0,0.0,0.0,0.0,0.0124,0.0078,0.032,0.0,0.0,0.0,0.0,0.0,0.0,-0.1273,-0.1348,0.0,0.0,0.0,0.0,0.0,0.0,0.0,0.0,0.0,0.0,0.0,0.0,0.0,0.0,0.0,0.0,0.0,0.0,0.0,0.0,0.0,0.0,0.0,0.0,0.0,0.0,0.0,0.0,0.0,0.0,0.0,0.0,0.0,0.0,0.0,0.0,0.0,0.0,0.0,0.0,0.0,0.0,0.0,0.0,0.0,0.0,0.0,0.0,0.0,0.0,0.0,0.0,0.0,0.0,0.0,-0.8638,-0.9467,-1.014,-1.0566,-1.0586,-1.0269,-0.9582,-0.8924,-0.8293,0.0,0.0,0.0,0.0,0.0,0.0,0.0,0.0,0.0,0.0,0.0,0.0,0.0,0.0,0.0,0.0,0.0,0.0,0.0,0.0,0.0,0.0,0.0,0.0,0.0,0.0,0.0,0.0,0.0,0.0,0.0,0.0,0.0,0.0,0.0,0.0,0.0,0.0,0.0,0.0,0.0,-0.0253,-0.0234,-0.1012,0.0,0.0,0.0,0.0,-0.1747,-0.1698,0.0,0.0,0.0,0.0,0.0,0.0,0.0,0.0,0.0,0.0,0.0,0.0,0.0,0.0,0.0,0.0,0.0,0.0,0.0,0.0,0.0,0.0,0.0,0.0,0.0,0.0,0.0,0.0,0.0,0.0,0.0,0.0,0.0,0.0,0.0,0.0,0.0,0.0,0.0,0.0,0.0,0.0,0.0,0.0,0.0,0.0,0.0,0.0,0.0,0.0,0.0,0.0,0.0,0.0,0.0,0.0,-0.899,-0.9214,-0.9704,-1.0539,-1.0586,-1.0561,-1.0434,-0.9628,-0.892,0.0,0.0,0.0,0.0,0.0,0.0,0.0,0.0,0.0,0.0,0.0,0.0,0.0,0.0,0.0,0.0,0.0,0.0,0.0,0.0,0.0,0.0,0.0,0.0,0.0,0.0,0.0,0.0,0.0,0.0,0.0,0.0,0.0,0.0,0.0,0.0,0.0,0.0,0.0,0.0,0.0,-0.1116,-0.0976,-0.0906,-0.064,0.0,0.0,-0.1013,-0.1314,-0.1354,0.0,0.0,0.0,0.0,0.0,0.0,0.0,0.0,0.0,0.0,0.0,0.0,0.0,0.0,0.0,0.0,0.0,0.0,0.0,0.0,0.0,0.0,0.0,0.0,0.0,0.0,0.0,0.0,0.0,0.0,0.0,0.0,0.0,0.0,0.0,0.0,0.0,0.0,0.0,0.0,0.0,0.0,0.0,0.0,0.0,0.0,0.0,0.0,0.0,0.0,0.0,0.0,0.0,0.0,0.0,-0.8855,-0.9493,-0.9834,-1.0204,-1.0573,-1.0586,-1.0586,-1.0586,-0.9889,-0.9154,0.0,0.0,0.0,0.0,0.0,0.0,0.0,0.0,0.0,0.0,0.0,0.0,0.0,0.0,0.0,0.0,0.0,0.0,0.0,0.0,0.0,0.0,0.0,0.0,0.0,0.0,0.0,0.0,0.0,0.0,0.0,0.0,0.0,0.0,0.0,0.0,0.0,0.0,0.0,0.0,0.0,0.0,-0.12,-0.1065,0.0,0.0,0.0,-0.1767,-0.1965,0.0,0.0,0.0,0.0,0.0,0.0,0.0,0.0,0.0,0.0,0.0,0.0,0.0,0.0,0.0,0.0,0.0,0.0,0.0,0.0,0.0,0.0,0.0,0.0,0.0,0.0,0.0,0.0,0.0,0.0,0.0,0.0,0.0,0.0,0.0,0.0,0.0,0.0,0.0,0.0,0.0,0.0,0.0,0.0,0.0,0.0,0.0,0.0,0.0,0.0,0.0,0.0,0.0,0.0,0.0,0.0,0.0,-0.9808,-1.0326,-1.0586,-1.0586,-1.0586,-1.0586,-1.0579,-1.0164,0.0,0.0,0.0,0.0,0.0,0.0,0.0,0.0,0.0,0.0,0.0,0.0,0.0,0.0,0.0,0.0,0.0,0.0,0.0,0.0,0.0,0.0,0.0,0.0,0.0,0.0,0.0,-0.3171,0.0,0.0,0.0,0.0,0.0,0.0,0.0,0.0,0.0,0.0,0.0,0.0,0.0,0.0,-0.1418,-0.125,-0.1181,-0.0943,0.0,0.0,-0.2643,-0.2835,-0.3421,-0.4013,0.0,0.0,0.0,0.0,0.0,0.0,0.0,0.0,0.0,0.0,0.0,0.0,0.0,0.0,0.0,0.0,0.0,0.0,0.0,0.0,0.0,0.0,0.0,0.0,0.0,0.0,0.0,0.0,0.0,0.0,0.0,0.0,0.0,0.0,0.0,0.0,0.0,0.0,0.0,0.0,0.0,0.0,0.0,0.0,0.0,0.0,0.0,0.0,0.0,0.0,0.0,0.0,0.0,0.0,0.0,-0.9807,-1.0319,-1.0586,-1.0586,-1.0586,-1.0586,-1.0586,-1.0559,-0.9863,0.0,0.0,0.0,0.0,0.0,0.0,0.0,0.0,0.0,0.0,0.0,0.0,0.0,0.0,0.0,0.0,0.0,0.0,0.0,0.0,0.0,0.0,0.0,0.0,0.0,0.0,0.0,0.0,0.0,0.0,0.0,0.0,0.0,0.0,0.0,0.0,0.0,0.0,0.0,0.0,0.0,-0.2114,-0.1225,-0.1218,-0.127,0.0,0.0,-0.2967,-0.3761,-0.3931,-0.4327,-0.5254,0.0,0.0,0.0,0.0,0.0,0.0,0.0,0.0,0.0,0.0,0.0,0.0,0.0,0.0,0.0,0.0,0.0,0.0,0.0,0.0,0.0,0.0,0.0,0.0,0.0,0.0,0.0,0.0,0.0,0.0,0.0,0.0,0.0,0.0,0.0,0.0,0.0,0.0,0.0,0.0,0.0,0.0,0.0,0.0,0.0,0.0,0.0,0.0,0.0,0.0,0.0,0.0,0.0,-0.947,-1.0157,-1.0454,-1.0586,-1.0586,-1.0586,-1.0586,-1.0586,-1.0586,-0.999,0.0,0.0,0.0,0.0,0.0,0.0,0.0,0.0,0.0,0.0,0.0,0.0,0.0,0.0,0.0,0.0,0.0,0.0,0.0,0.0,0.0,0.0,0.0,0.0,0.0,0.0,0.0,0.0,-0.3463,-0.3395,-0.3811,0.0,0.0,0.0,0.0,0.0,0.0,0.0,0.0,0.0,0.0,-0.3317,-0.3038,-0.2593,0.0,0.0,-0.3023,-0.3721,-0.3959,-0.5011,-0.5862,-0.6021,-0.6411,0.0,0.0,0.0,0.0,0.0,0.0,0.0,0.0,0.0,0.0,0.0,0.0,0.0,0.0,0.0,0.0,0.0,0.0,0.0,0.0,0.0,0.0,0.0,0.0,0.0,0.0,0.0,0.0,0.0,0.0,0.0,0.0,0.0,0.0,0.0,0.0,0.0,0.0,0.0,0.0,0.0,0.0,0.0,0.0,0.0,0.0,0.0,0.0,0.0,0.0,0.0,0.0,-0.9795,-1.0397,-1.0762,-1.0839,-1.0586,-1.0586,-1.0586,-1.0586,-1.0586,-1.0117,0.0,0.0,0.0,0.0,0.0,0.0,0.0,0.0,0.0,0.0,0.0,0.0,0.0,0.0,0.0,0.0,0.0,0.0,0.0,0.0,0.0,0.0,0.0,0.0,0.0,0.0,0.0,0.0,-0.3712,-0.38,-0.4516,0.0,0.0,0.0,0.0,0.0,0.0,0.0,0.0,0.0,0.0,-0.3905,-0.3776,-0.365,-0.3657,-0.3753,-0.466,-0.5332,-0.5306,-0.6469,-0.7274,-0.7133,0.0,0.0,0.0,0.0,0.0,0.0,0.0,0.0,0.0,0.0,0.0,0.0,0.0,0.0,0.0,0.0,0.0,0.0,0.0,0.0,0.0,0.0,0.0,0.0,0.0,0.0,0.0,0.0,0.0,0.0,-0.7023,0.0,0.0,0.0,0.0,0.0,0.0,0.0,0.0,0.0,0.0,0.0,0.0,0.0,0.0,0.0,0.0,0.0,0.0,0.0,0.0,0.0,0.0,0.0,-1.0423,-1.1274,-1.1344,-1.0618,-1.0586,-1.0586,-1.0586,-1.0586,-1.0305,-0.9688,0.0,0.0,0.0,0.0,0.0,0.0,0.0,0.0,0.0,0.0,0.0,0.0,0.0,0.0,0.0,0.0,0.0,0.0,0.0,0.0,0.0,0.0,0.0,0.0,0.0,0.0,-0.4026,-0.3988,-0.4156,0.0,0.0,0.0,0.0,0.0,0.0,0.0,0.0,0.0,0.0,-0.3676,-0.357,-0.2908,-0.4179,-0.5339,-0.5675,-0.6943,-0.7982,-0.8183,-0.8324,-0.8464,0.0,0.0,0.0,0.0,0.0,0.0,0.0,0.0,0.0,0.0,0.0,0.0,0.0,0.0,0.0,0.0,0.0,0.0,0.0,0.0,0.0,0.0,0.0,0.0,0.0,0.0,0.0,-0.9388,-0.8714,0.0,0.0,0.0,0.0,0.0,0.0,0.0,0.0,0.0,0.0,0.0,-1.1304,-1.1628,0.0,0.0,0.0,0.0,0.0,0.0,0.0,0.0,0.0,0.0,0.0,0.0,-1.027,-1.0833,-1.0952,-1.0863,-1.0593,-1.0586,-1.0586,-1.0586,-1.0586,-1.0224,-0.9384,0.0,0.0,0.0,0.0,0.0,0.0,0.0,0.0,0.0,0.0,0.0,0.0,0.0,0.0,0.0,0.0,0.0,0.0,0.0,0.0,0.0,0.0,0.0,0.0,0.0,-0.4151,0.0,0.0,0.0,0.0,0.0,0.0,0.0,0.0,0.0,0.0,0.0,-0.5198,-0.4624,-0.4937,-0.5136,-0.481,-0.5338,-0.6022,0.0,0.0,0.0,0.0,0.0,0.0,0.0,0.0,0.0,0.0,0.0,0.0,0.0,0.0,-1.0381,-0.8931,-0.8516,-0.8383,-0.849,0.0,0.0,0.0,0.0,0.0,0.0,0.0,0.0,0.0,0.0,0.0,0.0,0.0,0.0,-1.0779,0.0,-1.0074,0.0,0.0,0.0,0.0,0.0,0.0,0.0,0.0,-1.2134,-1.2335,-1.2248,-1.2545,-1.2451,0.0,-1.1729,-1.1173,0.0,0.0,0.0,0.0,0.0,0.0,0.0,0.0,-1.0576,-1.0891,-1.0979,-1.0895,-1.0624,-1.0586,-1.0586,-1.0586,-1.0586,-1.0271,-0.9537,-0.9085,-0.8529,0.0,0.0,0.0,0.0,0.0,0.0,0.0,0.0,0.0,0.0,0.0,0.0,0.0,0.0,0.0,0.0,0.0,0.0,0.0,0.0,0.0,0.0,0.0,-0.4024,0.0,0.0,0.0,0.0,0.0,0.0,0.0,0.0,0.0,-0.6009,-0.592,-0.5686,-0.5457,-0.6012,-0.6438,-0.6386,0.0,0.0,0.0,0.0,0.0,0.0,0.0,-1.0898,-1.0853,-1.1265,-1.1597,-1.1577,-1.1772,-1.1777,-1.1442,0.0,0.0,-0.993,-0.9639,-0.9593,-0.9664,-0.9522,-0.9189,-0.8661,-0.8422,-0.8172,0.0,0.0,0.0,0.0,0.0,0.0,0.0,0.0,-1.1429,-1.1843,0.0,-1.1289,0.0,0.0,0.0,0.0,0.0,-1.1516,0.0,0.0,-1.1765,-1.1614,-1.1642,-1.1683,-1.2051,-1.2897,-1.29,-1.2839,-1.2676,-1.1243,0.0,0.0,0.0,0.0,0.0,0.0,-1.1227,-1.058,-1.1322,-1.1375,-1.0618,-1.0586,-1.0586,-1.0586,-1.0586,-1.0452,-1.0134,-0.9833,-0.932,-0.8482,-0.7839,0.0,0.0,0.0,0.0,0.0,0.0,0.0,0.0,0.0,0.0,0.0,0.0,0.0,0.0,0.0,0.0,0.0,0.0,0.0,0.0,-0.4025,0.0,0.0,0.0,0.0,0.0,0.0,0.0,0.0,0.0,0.0,-0.6437,-0.5917,-0.5648,-0.6073,0.0,0.0,0.0,0.0,-1.0308,-1.0877,-1.1503,-1.2038,-1.2665,-1.2777,-1.2639,-1.2378,0.0,0.0,-1.2053,-1.194,-1.1859,-1.153,-1.1475,-1.1422,-1.1395,-1.1136,-1.1042,-1.1249,-1.0468,-0.9912,-1.0012,-0.9502,-0.8986,-1.2812,0.0,0.0,0.0,0.0,-1.377,-1.4216,-1.4242,-1.4338,-1.4412,-1.4324,-1.3305,0.0,0.0,0.0,0.0,0.0,0.0,-1.5119,-1.5726,-1.5984,-1.5755,-1.51,-1.5118,-1.4433,-1.3236,-1.3194,-1.301,-1.2745,-1.2933,-1.2293,-1.0848,0.0,0.0,0.0,0.0,-1.0851,-1.0938,-1.0934,-1.0832,-1.0586,-1.0586,-1.0586,-1.0586,-1.0586,-1.0553,-1.0434,-1.0147,-0.978,-0.9347,-0.8569,0.0,0.0,0.0,0.0,0.0,0.0,0.0,0.0,0.0,0.0,0.0,0.0,0.0,0.0,0.0,0.0,0.0,0.0,0.0,-0.4363,-0.4752,-0.5066,0.0,0.0,0.0,0.0,0.0,0.0,0.0,0.0,0.0,-0.9419,-0.8178,-0.7535,0.0,0.0,-0.9246,-0.8962,-0.9642,-1.0484,-1.138,0.0,0.0,0.0,-1.2931,-1.2837,-1.2926,-1.3019,-1.3019,-1.2852,-1.2683,-1.2509,-1.2409,-1.2198,-1.2051,-1.2024,-1.1643,-1.1356,-1.1369,-1.1111,-1.0915,-1.0985,-1.0798,-1.0654,-1.4066,-1.363,-1.4146,-1.4313,-1.4391,-1.5563,-1.5695,-1.5192,-1.592,-1.6012,-1.5644,-1.5274,-1.5156,-1.5293,-1.5391,0.0,0.0,0.0,-1.6836,-1.7294,-1.6909,-1.6651,-1.6471,-1.5665,-1.5223,-1.5092,-1.4518,-1.4316,-1.45,-1.4774,-1.4103,-1.2606,0.0,0.0,-1.1949,-1.1389,-1.1327,-1.1768,-1.1221,-1.0881,-1.0767,-1.0653,-1.0586,-1.0586,-1.0586,-1.0586,-1.0586,-1.0394,-1.016,-0.986,-0.9125,-0.8497,0.0,0.0,0.0,0.0,0.0,0.0,0.0,0.0,0.0,0.0,0.0,-0.6095,0.0,0.0,0.0,0.0,-0.5985,-0.5762,-0.5166,-0.5867,0.0,0.0,0.0,0.0,0.0,0.0,0.0,-1.0384,-1.0266,-1.0418,-1.1091,-1.0289,-0.963,-0.9725,-1.0351,-1.0696,-1.0494,0.0,-1.1657,-1.2336,-1.2435,-1.2722,-1.3453,-1.3407,-1.338,-1.3527,-1.3413,-1.3387,-1.3333,-1.3133,-1.2978,-1.2938,-1.2685,-1.2516,-1.2516,-1.2091,-1.177,-1.1742,-1.1777,-1.177,-1.177,-1.1777,-1.1777,-1.5106,-1.4947,-1.6179,-1.6092,-1.5294,-1.6773,-1.6371,-1.4841,-1.6592,-1.7044,-1.6539,-1.7058,-1.7597,-1.8086,-1.7715,0.0,-1.7584,-1.745,-1.7469,-1.7406,-1.5918,-1.5704,-1.6573,-1.4662,-1.515,-1.7841,-1.6462,-1.6255,-1.7036,-1.6433,-1.5818,-1.5236,-1.485,-1.4233,-1.3418,-1.2603,-1.2387,-1.2774,-1.1955,-1.1377,-1.0995,-1.076,-1.0613,-1.0586,-1.0586,-1.0586,-1.0586,-1.0586,-1.0452,-1.012,-0.955,-0.8831,-0.8005,0.0,0.0,0.0,0.0,0.0,0.0,0.0,0.0,0.0,0.0,0.0,0.0,0.0,0.0,0.0,-0.6661,0.0,-0.6142,-0.7015,0.0,0.0,0.0,-0.9646,-1.0975,-1.0374,-1.0189,-1.1038,0.0,0.0,-1.1892,0.0,-1.1863,-1.0846,-1.1368,-1.1919,-1.2046,-1.2681,-1.3373,-1.3525,-1.3599,-1.3733,-1.3981,-1.4021,-1.4092,-1.4218,-1.3896,-1.3687,-1.3777,-1.3434,-1.326,-1.3247,-1.3032,-1.2817,-1.2817,-1.2569,-1.2338,-1.2325,-1.2298,-1.2285,-1.2265,-1.2251,-1.2251,-1.7719,-1.7736,-1.8806,-1.7515,-1.4933,-1.7923,-1.8367,-1.7164,-1.8447,-1.9008,-1.8976,-1.8308,-1.8397,-1.8975,-1.8877,-1.9014,-1.9326,-1.9253,-1.9438,-1.9726,-1.9042,-1.8825,-1.9005,-1.8248,-1.785,-1.7887,-1.7537,-1.7094,-1.6584,-1.6294,-1.563,-1.4644,-1.4413,-1.4024,-1.3427,-1.3648,-1.3076,-1.1765,-1.2267,-1.2057,-1.1035,-1.0922,-1.0821,-1.0593,-1.0586,-1.0586,-1.0586,-1.0586,-1.0452,-1.0127,-0.9766,-0.9251,-0.8617,-0.7529,0.0,0.0,0.0,0.0,0.0,0.0,0.0,0.0,0.0,-0.7722,-0.6667,0.0,-0.7809,0.0,-0.7,-0.6261,-0.561,-0.6231,0.0,0.0,-0.8414,-0.9406,-1.169,-1.0487,-1.0193,-1.2157,-1.186,-1.1946,-1.308,-1.3457,-1.3549,-1.3241,-1.3407,-1.3435,-1.3257,-1.3581,-1.3901,-1.3961,-1.3975,-1.4008,-1.411,-1.4088,-1.437,-1.5179,-1.4587,-1.4261,-1.5063,-1.4247,-1.35,-1.348,-1.33,-1.312,-1.31,-1.2891,-1.2697,-1.2663,-1.2502,-1.2305,-1.2305,-1.2305,-1.2305,-1.7341,-1.7521,-1.915,-1.8338,-1.6186,-1.9361,-2.003,-1.8961,-2.0104,-2.0386,-2.0023,-1.9745,-1.9811,-2.0146,-1.9941,-1.998,-2.0195,-2.0205,-2.0332,-2.0547,-1.9841,-1.9774,-2.0157,-1.8983,-1.8413,-1.8375,-1.769,-1.7098,-1.6536,-1.6264,-1.5751,-1.5114,-1.4936,-1.4447,-1.3757,-1.3516,-1.3289,-1.3088,-1.2644,-1.2129,-1.1451,-1.1162,-1.0948,-1.0787,-1.066,-1.0586,-1.0586,-1.0586,-1.0452,-1.0127,-0.984,-0.9472,-0.8984,-0.8123,-0.7548,0.0,0.0,0.0,0.0,0.0,0.0,0.0,0.0,0.0,0.0,0.0,-0.8557,0.0,-0.8399,-0.8266,-0.8048,-0.8622,-0.9377,-1.0269,-1.0405,-1.1071,-1.2692,-1.1888,-1.1776,-1.3207,-1.3082,-1.3108,-1.3758,-1.3981,-1.4088,-1.4088,-1.4088,-1.4028,-1.3888,-1.3988,-1.4088,-1.4088,-1.4088,-1.4286,-1.4692,-1.4817,-1.5012,-1.5496,-1.522,-1.5019,-1.5613,-1.5479,-1.5116,-1.4659,-1.4303,-1.3947,-1.3467,-1.3166,-1.2965,-1.2797,-1.2656,-1.2502,-1.2331,-1.2305,-1.2305,-1.6601,-1.6929,-1.9077,-1.9368,-1.8594,-2.1038,-2.1389,-2.0319,-2.1476,-2.1406,-2.0438,-2.1039,-2.1278,-2.1259,-2.0908,-2.0742,-2.0693,-2.0683,-2.0664,-2.0527,-1.9638,-1.9687,-2.0489,-1.851,-1.8029,-1.8899,-1.748,-1.6768,-1.6752,-1.6246,-1.596,-1.5904,-1.5501,-1.4944,-1.4194,-1.2963,-1.3236,-1.495,-1.3106,-1.2053,-1.1899,-1.1465,-1.1161,-1.1022,-1.0747,-1.0586,-1.0586,-1.0586,-1.0452,-1.0127,-0.988,-0.9606,-0.9277,-0.8744,-0.8456,0.0,-0.8442,0.0,0.0,0.0,0.0,0.0,0.0,0.0,0.0,-0.9171,-0.917,-0.9276,-1.0074,-1.0745,-1.1104,-1.1663,-1.2192,-1.2665,-1.2779,-1.3046,-1.3572,-1.3406,-1.3457,-1.4013,-1.3955,-1.3906,-1.4075,-1.4088,-1.4088,-1.4088,-1.4088,-1.4082,-1.4082,-1.4082,-1.4088,-1.4088,-1.425,-1.4734,-1.5455,-1.5779,-1.5902,-1.5944,-1.5944,-1.5944,-1.6224,-1.6756,-1.6879,-1.5913,-1.5416,-1.4929,-1.3851,-1.346,-1.3193,-1.2998,-1.2891,-1.2737,-1.2392,-1.2305,-1.2305,-2.0845,-2.1756,-2.2217,-2.2271,-2.212,-2.2655,-2.2021,-2.0685,-2.1854,-2.2071,-2.1575,-2.1705,-2.1768,-2.1748,-2.168,-2.1445,-2.1073,-2.1073,-2.0908,-2.0615,-2.0411,-2.0401,-2.0527,-1.9283,-1.8798,-1.8908,-1.7791,-1.7195,-1.7146,-1.6232,-1.5658,-1.5399,-1.4471,-1.4041,-1.4156,0.0,0.0,0.0,-1.3577,-1.2885,-1.1977,-1.2307,-1.2066,-1.1028,-1.0747,0.0,-1.0586,-1.0586,-1.0459,-1.0134,-1.0067,0.0,0.0,0.0,0.0,0.0,0.0,0.0,0.0,0.0,0.0,0.0,-0.967,-0.9679,-0.9626,-1.0408,-1.0562,-0.9722,-1.022,-1.0396,-0.9913,-1.016,-1.0863,-1.2042,-1.1477,-1.1732,-1.362,-1.2354,-1.1909,-1.3857,-1.3252,-1.3027,-1.3955,-1.4088,-1.4088,-1.4088,-1.4088,-1.4088,-1.4088,-1.4088,-1.4088,-1.4173,-1.4901,-1.5455,-1.5655,-1.6478,-1.7017,-1.7017,-1.7009,-1.7334,-1.802,-1.7698,-1.6968,-1.5985,-1.5644,-1.5325,-1.4239,-1.3761,-1.3493,-1.348,-1.328,-1.2953,-1.2425,-1.2305,-1.2305,-2.0755,0.0,-2.1987,-2.2217,0.0,-2.2862,-2.265,-2.1951,-2.2544,-2.2705,-2.249,-2.2285,-2.2197,-2.2187,-2.1973,-2.1768,-2.1553,-2.1562,-2.1318,-2.0898,-2.0889,-2.0781,-2.0566,-2.004,-1.952,-1.8957,-1.7827,-1.7058,-1.6478,-1.5421,-1.4858,-1.4709,-1.3947,-1.3689,-1.3888,-1.3156,-1.2863,-1.2989,-1.3025,-1.27,-1.215,-1.2319,-1.2019,-1.1243,0.0,0.0,0.0,0.0,0.0,0.0,0.0,0.0,0.0,0.0,0.0,-0.9659,-0.9399,-0.9292,-0.9474,-0.9615,-0.995,-1.0501,-1.0822,-1.0855,-1.0568,-1.1223,-1.1462,-1.1048,-1.1422,-1.1646,-1.157,-1.1653,-1.2093,-1.2945,-1.2571,-1.2758,-1.3747,-1.3082,-1.282,-1.3779,-1.3555,-1.3428,-1.3997,-1.4088,-1.4088,-1.4088,-1.4088,-1.4088,-1.4088,-1.4088,-1.425,-1.4852,-1.6363,-1.7326,-1.7374,-1.7698,-1.8149,-1.8149,-1.8149,-1.8399,-1.8877,-1.8957,-1.8581,-1.7568,-1.6887,-1.6157,-1.5088,-1.4358,-1.3773,-1.3633,-1.3487,-1.3187,-1.2665,-1.2556,-1.2472,-2.0011,-2.0215,-2.1203,-2.1614,-2.1702,-2.2677,-2.3101,-2.3101,0.0,0.0,0.0,-2.273,-2.2627,-2.2555,-2.2266,-2.207,-2.2002,-2.2002,-2.1768,-2.1307,-2.1307,-2.1113,-2.0693,-2.0517,-1.991,-1.8957,-1.7868,-1.6846,-1.5944,-1.4894,-1.4412,-1.4349,-1.3924,-1.3653,-1.3567,-1.3046,-1.2663,-1.2392,-1.2479,-1.2482,-1.2298,-1.2197,-1.1926,-1.151,-1.1223,-1.0955,-1.076,-1.07,-1.0528,-1.0287,-1.0221,-1.0194,-1.0194,-1.0194,-1.0307,-1.0566,-1.064,-1.0667,-1.0673,-1.0909,-1.1089,-1.1142,-1.1678,-1.1824,-1.1495,-1.1824,-1.2161,-1.2365,-1.273,-1.3113,-1.3553,-1.3653,-1.3773,-1.4062,-1.4088,-1.4082,-1.4088,-1.4088,-1.4039,-1.4088,-1.4046,-1.4088,-1.4088,-1.4088,-1.4088,-1.4088,-1.4088,-1.4215,-1.4328,-1.4447,-1.4859,-1.591,-1.7536,-1.8838,-1.8718,-1.9076,-1.9195,-1.8957,-1.9125,-1.9274,-1.9402,-2.0001,-2.004,-1.863,-1.7908,-1.6813,-1.5621,-1.4643,-1.4043,-1.3726,-1.3673,-1.3513,-1.3105,-1.2945,-1.2817,-2.2006,-2.2633,-2.2775,-2.2862,-2.2862,-2.3003,-2.3101,-2.3101,-2.3101,-2.3101,-2.3091,-2.3033,-2.3013,-2.3003,-2.2945,-2.2721,-2.2432,-2.2422,-2.2197,0.0,-2.1797,-2.1562,-2.1072,-2.0171,-1.9492,-1.8935,-1.7859,-1.7212,-1.6976,-1.5985,-1.5496,-1.533,-1.4525,-1.3895,-1.3573,-1.3046,-1.2764,-1.2723,-1.3233,-1.3098,-1.2335,-1.2835,-1.2684,-1.1868,-1.1516,-1.1349,-1.1303,-1.1069,-1.0915,-1.0868,-1.0667,-1.0533,-1.0533,-1.0539,-1.0553,-1.06,-1.0827,-1.0935,-1.0935,-1.1196,-1.1476,-1.1772,-1.2051,-1.2118,-1.1893,-1.2342,-1.2677,-1.2744,-1.3166,-1.35,-1.3606,-1.3874,-1.4028,-1.4082,-1.4088,-1.4088,-1.4088,-1.4088,-1.4088,-1.4088,-1.4088,-1.4095,-1.4108,-1.4108,-1.4122,-1.4108,-1.4269,-1.451,-1.5367,-1.5504,-1.591,-1.6927,-1.8149,-1.8519,-1.831,-1.9274,-1.9795,-1.9125,-1.9805,-2.0245,-2.0245,-2.0333,-1.9835,-1.7989,-1.7415,-1.6527,-1.4859,-1.425,-1.4055,-1.3988,-1.3988,-1.3861,-1.3514,-1.34,-1.3174,-2.3494,-2.3764,-2.3584,-2.3486,-2.3477,-2.3188,-2.3101,-2.3101,-2.3101,-2.3101,-2.3101,-2.3101,-2.3101,-2.3101,-2.3101,-2.2994,-2.2808,-2.2852,-2.2627,-2.2246,-2.2227,-2.1992,-2.1551,-2.0833,-2.0372,-2.0104,-1.8856,-1.823,-1.8149,-1.7082,-1.6273,-1.5655,-1.4608,-1.3941,-1.36,-1.3333,-1.3073,-1.279,-1.2891,-1.2732,-1.2298,-1.2601,-1.2491,-1.1913,-1.1765,-1.159,-1.1395,-1.1262,-1.1229,-1.1223,-1.1102,-1.1029,-1.1035,-1.1029,-1.1029,-1.1029,-1.1156,-1.1196,-1.1196,-1.1496,-1.179,-1.2078,-1.2225,-1.2318,-1.2388,-1.2623,-1.2857,-1.2986,-1.3353,-1.3666,-1.3868,-1.4008,-1.4088,-1.4088,-1.4088,-1.4088,-1.4088,-1.4088,-1.4088,-1.4088,-1.4088,-1.4148,-1.4302,-1.4322,-1.4396,-1.4553,-1.4897,-1.5804,-1.7474,-1.7613,-1.7658,-1.8189,-1.9155,-1.9599,-1.9186,-1.9835,-2.0323,-1.9913,-2.0274,-2.0566,-2.0527,-2.0245,-1.9362,-1.839,-1.7334,-1.615,-1.5012,-1.4489,-1.4208,-1.4088,-1.4088,-1.3968,-1.3686,-1.3487,-1.32,-2.4502,-2.4385,-2.4072,-2.3877,-2.3769,-2.3428,-2.3188,-2.3101,-2.3101,-2.3101,-2.3101,-2.3101,-2.3101,-2.3101,-2.3101,-2.3101,-2.3101,-2.3101,-2.2959,-2.2633,-2.2656,-2.2432,-2.2031,-2.1629,-2.1385,-2.11,-2.0026,-1.9454,-1.9213,-1.7989,-1.6601,-1.5379,-1.4489,-1.3968,-1.3706,-1.3633,-1.3414,-1.2998,-1.2623,-1.2371,-1.2305,-1.2305,-1.2191,-1.202,-1.2,-1.1864,-1.1602,-1.1529,-1.1523,-1.1516,-1.1456,-1.143,-1.143,-1.143,-1.143,-1.143,-1.149,-1.1522,-1.1595,-1.1837,-1.2064,-1.2285,-1.2365,-1.2543,-1.2757,-1.2911,-1.3085,-1.3293,-1.354,-1.3848,-1.4028,-1.4082,-1.4088,-1.4088,-1.4088,-1.4088,-1.4088,-1.4088,-1.4088,-1.4088,-1.4142,-1.4282,-1.4462,-1.4787,-1.5297,-1.5877,-1.6502,-1.7759,-1.9229,-1.9465,-1.95,-1.9539,-2.0079,-2.0323,-2.0362,-2.044,-2.0566,-2.0615,-2.0566,-2.0615,-2.0489,-1.9883,-1.9283,-1.8877,-1.7407,-1.6191,-1.5703,-1.481,-1.4208,-1.4088,-1.4088,-1.4015,-1.3821,-1.3507,-1.3193,-2.4785,-2.4443,-2.4385,-2.4131,-2.3809,-2.374,-2.3506,-2.313,-2.3101,-2.3101,-2.3101,-2.3101,-2.3101,-2.3101,-2.3101,-2.3101,-2.3101,-2.3101,-2.3062,-2.3023,-2.3042,-2.2818,-2.2471,-2.2393,-2.1951,-2.1288,-2.1021,-2.065,-2.0177,-1.823,-1.6247,-1.4454,-1.413,-1.4068,-1.4015,-1.3781,-1.3567,-1.3507,-1.3038,-1.261,-1.2325,-1.2305,-1.2291,-1.2271,-1.2258,-1.2251,-1.2184,-1.2,-1.1866,-1.181,-1.1583,-1.1436,-1.1443,-1.1402,-1.1402,-1.1456,-1.1683,-1.1973,-1.2178,-1.2245,-1.2271,-1.2311,-1.2583,-1.275,-1.2817,-1.3247,-1.3527,-1.3606,-1.3868,-1.4041,-1.4088,-1.4088,-1.4088,-1.4088,-1.4088,-1.4088,-1.4124,-1.4088,-1.4088,-1.4088,-1.4397,-1.4489,-1.4847,-1.5849,-1.7018,-1.808,-1.8819,-1.9496,-1.9889,-2.0445,-2.0688,-2.0517,-2.0576,-2.0206,-1.9687,-2.0001,-2.0489,-2.0615,-2.0615,-2.0615,-2.0527,-2.0401,-2.0167,-1.8997,-1.7868,-1.6642,-1.5786,-1.4859,-1.4124,-1.4088,-1.4088,-1.4075,-1.4015,-1.3766,-1.3427,-2.5371,-2.5166,-2.4912,-2.4551,-2.416,-2.3896,-2.3691,-2.3506,-2.3198,-2.3101,-2.3101,-2.3101,-2.3101,-2.3101,-2.3101,-2.3101,-2.3101,-2.3101,-2.3101,-2.3101,-2.3101,-2.3003,-2.2838,-2.2617,-2.2187,-2.1631,-2.1357,-2.0678,-1.9457,-1.7407,-1.591,-1.5054,-1.4454,-1.4088,-1.4124,-1.3968,-1.378,-1.36,-1.34,-1.3046,-1.2636,-1.2385,-1.2305,-1.2305,-1.2305,-1.2305,-1.2298,-1.2178,-1.2124,-1.2161,-1.2004,-1.1944,-1.1944,-1.1908,-1.1944,-1.1951,-1.2058,-1.2171,-1.2298,-1.2305,-1.2305,-1.2305,-1.2616,-1.2851,-1.3013,-1.3367,-1.3666,-1.3888,-1.4015,-1.4088,-1.4088,-1.4088,-1.4088,-1.4088,-1.4088,-1.4088,-1.4088,-1.465,-1.5054,-1.5068,-1.5126,-1.566,-1.6675,-1.7728,-1.8868,-1.9894,-2.0461,-2.0638,-2.1151,-2.152,-2.1385,-2.1084,-2.0967,-2.0663,-2.0116,-2.0245,-2.0566,-2.0615,-2.0615,-2.0615,-2.0527,-1.9962,-1.9441,-1.9076,-1.7617,-1.6478,-1.582,-1.4894,-1.4088,-1.4088,-1.4088,-1.4088,-1.4088,-1.3995,-1.3721,-2.5684,-2.5635,-2.5381,-2.5,-2.458,-2.4268,-2.4004,-2.376,-2.3403,-2.3208,-2.3101,-2.3101,-2.3101,-2.3101,-2.3101,-2.3101,-2.3101,-2.3101,-2.3101,-2.3101,-2.3101,-2.3091,-2.3062,-2.2842,-2.2402,-2.1904,-2.1572,-2.0422,-1.8571,-1.7009,-1.5869,-1.5255,-1.4489,-1.4088,-1.4088,-1.4088,-1.3981,-1.3781,-1.3653,-1.3427,-1.3052,-1.2705,-1.2472,-1.2325,-1.2305,-1.2305,-1.2305,-1.2305,-1.2305,-1.2305,-1.2305,-1.2305,-1.2305,-1.2305,-1.2305,-1.2305,-1.2305,-1.2305,-1.2305,-1.2305,-1.2338,-1.2469,-1.2737,-1.3006,-1.3307,-1.356,-1.3806,-1.4035,-1.4088,-1.4088,-1.4088,-1.4088,-1.4088,-1.4088,-1.4088,-1.4173,-1.4573,-1.5304,-1.5786,-1.6067,-1.6273,-1.6962,-1.8629,-1.9601,-2.038,-2.1443,-2.1577,-2.1519,-2.2244,-2.2175,-2.1875,-2.1317,-2.119,-2.0995,-2.0674,-2.0566,-2.0615,-2.0615,-2.0615,-2.0615,-2.0615,-1.9844,-1.9481,-1.9559,-1.7488,-1.6273,-1.6191,-1.5345,-1.4088,-1.4088,-1.4088,-1.4088,-1.4088,-1.4082,-1.3955,-2.5684,-2.5684,-2.5654,-2.5439,-2.5077,-2.5028,-2.4587,-2.3877,-2.376,-2.3525,-2.3149,-2.3101,-2.3101,-2.3101,-2.3101,-2.3101,-2.3101,-2.3101,-2.3101,-2.3101,-2.3101,-2.3101,-2.3101,-2.3062,-2.2676,-2.1982,-2.1846,-2.0322,-1.757,-1.718,-1.6157,-1.4292,-1.413,-1.4088,-1.4088,-1.4088,-1.4082,-1.4015,-1.3753,-1.358,-1.3513,-1.33,-1.2886,-1.2412,-1.2318,-1.2325,-1.2305,-1.2305,-1.2305,-1.2305,-1.2305,-1.2305,-1.2305,-1.2305,-1.2305,-1.2305,-1.2305,-1.2305,-1.2325,-1.2331,-1.2476,-1.275,-1.3006,-1.3267,-1.352,-1.3854,-1.4077,-1.4166,-1.425,-1.4208,-1.4334,-1.437,-1.4286,-1.4334,-1.425,-1.4699,-1.5545,-1.5869,-1.6239,-1.7025,-1.7648,-1.8515,-2.0277,-2.0943,-2.1675,-2.2545,-2.2921,-2.2838,-2.2571,-2.2519,-2.2158,-2.1541,-2.1239,-2.1094,-2.0693,-2.0615,-2.0615,-2.0615,-2.0615,-2.0615,-2.0615,-2.0527,-2.0489,-1.9962,-1.8181,-1.709,-1.6805,-1.5918,-1.4538,-1.4088,-1.4088,-1.4088,-1.4088,-1.4088,-1.3995,-2.5684,-2.5684,-2.5684,-2.5596,-2.5478,-2.5243,-2.4883,-2.456,-2.4014,-2.3701,-2.3525,-2.3227,-2.3101,-2.3101,-2.3101,-2.3101,-2.3101,-2.3101,-2.3101,-2.3101,-2.3101,-2.3101,-2.3101,-2.3091,-2.2818,-2.2324,-2.2012,-2.0296,-1.7408,-1.5959,-1.4901,-1.4292,-1.4088,-1.4088,-1.4088,-1.4088,-1.4088,-1.4124,-1.3975,-1.3841,-1.362,-1.35,-1.3247,-1.2899,-1.2692,-1.2536,-1.2311,-1.2305,-1.2305,-1.2305,-1.2305,-1.2305,-1.2305,-1.2305,-1.2305,-1.2305,-1.2305,-1.2385,-1.2596,-1.2623,-1.2757,-1.3019,-1.328,-1.348,-1.362,-1.3908,-1.4377,-1.4936,-1.5095,-1.5338,-1.5876,-1.5545,-1.5379,-1.6,-1.6124,-1.6198,-1.6764,-1.7334,-1.7989,-1.8486,-1.9466,-2.0536,-2.0604,-2.1568,-2.2614,-2.3003,-2.3101,-2.3013,-2.2925,-2.2867,-2.2656,-2.2178,-2.1775,-2.1504,-2.1064,-2.0723,-2.0615,-2.0615,-2.0615,-2.0615,-2.0615,-2.0489,-2.0372,-1.952,-1.8149,-1.6927,-1.6281,-1.5394,-1.4208,-1.4088,-1.4088,-1.4088,-1.4088,-1.4088,-1.4041,-2.5684,-2.5684,-2.5684,-2.5684,-2.5654,-2.541,-2.5243,-2.5067,-2.4453,-2.4121,-2.3926,-2.3545,-2.3305,-2.332,-2.3169,-2.3101,-2.3101,-2.3101,-2.3101,-2.3101,-2.3101,-2.3101,-2.3101,-2.3101,-2.2877,-2.2461,-2.1934,-2.0212,-1.768,-1.5929,-1.4824,-1.4166,-1.4088,-1.4088,-1.4088,-1.4088,-1.4088,-1.4088,-1.4088,-1.3981,-1.3766,-1.3788,-1.3606,-1.3333,-1.314,-1.2893,-1.2612,-1.2498,-1.2445,-1.2476,-1.2358,-1.2305,-1.2305,-1.2305,-1.2305,-1.2311,-1.2398,-1.2532,-1.2764,-1.2878,-1.3065,-1.3313,-1.348,-1.3626,-1.3733,-1.3975,-1.4594,-1.5379,-1.5696,-1.6232,-1.7334,-1.7204,-1.6919,-1.7293,-1.7302,-1.7464,-1.7827,-1.851,-1.9109,-1.9786,-2.1012,-2.1524,-2.1269,-2.2265,-2.2926,-2.3101,-2.3101,-2.3101,-2.3101,-2.3081,-2.2945,-2.2578,-2.2109,-2.1689,-2.124,-2.083,-2.0654,-2.0625,-2.0615,-2.0615,-2.0527,-2.0411,-1.9923,-1.8997,-1.7827,-1.6568,-1.5511,-1.4615,-1.4292,-1.413,-1.4088,-1.4088,-1.4088,-1.4088,-1.4015,-2.5684,-2.5684,-2.5684,-2.5684,-2.5684,-2.5635,-2.5469,-2.5137,-2.5077,-2.4746,-2.4385,-2.3975,-2.3769,-2.3682,-2.3325,-2.313,-2.3101,-2.3101,-2.3101,-2.3101,-2.3101,-2.3101,-2.3101,-2.3101,-2.279,-2.2268,-2.1525,-2.0025,-1.7787,-1.6972,-1.5797,-1.4377,-1.4088,-1.4088,-1.4088,-1.4088,-1.4088,-1.4088,-1.4088,-1.4124,-1.4082,-1.4055,-1.3921,-1.364,-1.358,-1.3447,-1.322,-1.2958,-1.2784,-1.2757,-1.2498,-1.2325,-1.2385,-1.2385,-1.2345,-1.2425,-1.2643,-1.2777,-1.2851,-1.3066,-1.3333,-1.3553,-1.362,-1.3753,-1.3995,-1.4068,-1.4573,-1.5662,-1.5944,-1.6642,-1.851,-1.8917,-1.851,-1.7617,-1.7698,-1.8109,-1.8758,-1.9054,-1.9577,-2.0859,-2.1902,-2.2409,-2.2535,-2.2765,-2.3081,-2.3101,-2.3101,-2.3101,-2.3101,-2.3101,-2.2916,-2.2617,-2.2275,-2.1914,-2.1396,-2.0908,-2.0742,-2.0644,-2.0625,-2.0566,-2.044,-2.0284,-1.9559,-1.859,-1.6764,-1.5504,-1.4985,-1.4208,-1.4208,-1.4088,-1.4088,-1.4088,-1.4088,-1.4068,-1.3968,-2.5684,-2.5684,-2.5684,-2.5684,-2.5684,-2.5684,-2.5596,-2.5498,-2.5262,-2.498,-2.4795,-2.4404,-2.4062,-2.3818,-2.3633,-2.3428,-2.311,-2.3101,-2.3101,-2.3101,-2.3101,-2.3101,-2.3101,-2.3101,-2.2466,-2.1238,-2.0232,-1.8735,-1.6966,-1.5887,-1.4873,-1.4249,-1.413,-1.4088,-1.4208,-1.4088,-1.4088,-1.4088,-1.4088,-1.4088,-1.4088,-1.4088,-1.4035,-1.3961,-1.3948,-1.3901,-1.3801,-1.3333,-1.3086,-1.3066,-1.2979,-1.2926,-1.2919,-1.2926,-1.2926,-1.2939,-1.3006,-1.3173,-1.3347,-1.3454,-1.3593,-1.3874,-1.3948,-1.3981,-1.4068,-1.413,-1.4943,-1.6437,-1.6846,-1.769,-1.9559,-2.0118,-1.9835,-1.9599,-1.9599,-1.9587,-1.9997,-2.0305,-2.088,-2.1559,-2.2178,-2.2471,-2.2588,-2.2891,-2.3081,-2.3101,-2.3101,-2.3101,-2.3101,-2.3101,-2.3081,-2.2886,-2.2559,-2.2227,-2.1865,-2.1387,-2.0986,-2.0781,-2.0684,-2.0625,-2.044,-1.9991,-1.9234,-1.7859,-1.5992,-1.4859,-1.4328,-1.4088,-1.4088,-1.4088,-1.4088,-1.4088,-1.4088,-1.4041,-1.3968,-2.5684,-2.5684,-2.5684,-2.5684,-2.5684,-2.5684,-2.5684,-2.5654,-2.5449,-2.5322,-2.5234,-2.4853,-2.4424,-2.4053,-2.3867,-2.3545,-2.312,-2.3101,-2.3101,-2.3101,-2.3101,-2.3101,-2.3101,-2.3101,-2.2324,-2.1038,-2.0079,-1.886,-1.7207,-1.5843,-1.5255,-1.5472,-1.5,-1.4936,-1.522,-1.5311,-1.5311,-1.5228,-1.4943,-1.4692,-1.4615,-1.4286,-1.4088,-1.4088,-1.4088,-1.4088,-1.4062,-1.3721,-1.3487,-1.3373,-1.328,-1.3213,-1.3206,-1.32,-1.3206,-1.3227,-1.328,-1.3413,-1.3593,-1.3686,-1.3874,-1.4048,-1.4088,-1.4328,-1.4573,-1.4692,-1.5628,-1.7496,-1.7948,-1.8669,-2.0196,-2.0566,-2.0615,-2.0576,-2.0664,-2.0869,-2.1045,-2.1435,-2.1736,-2.2148,-2.25,-2.2695,-2.2822,-2.2877,-2.3091,-2.3101,-2.3101,-2.3101,-2.3101,-2.3101,-2.3101,-2.3003,-2.2715,-2.249,-2.2422,-2.1873,-2.1259,-2.1025,-2.081,-2.0664,-2.0527,-1.9883,-1.9116,-1.7172,-1.5262,-1.4657,-1.4088,-1.4088,-1.4088,-1.4088,-1.4088,-1.4088,-1.4088,-1.4088,-1.4041,-2.5684,-2.5684,-2.5684,-2.5684,-2.5684,-2.5684,-2.5684,-2.5684,-2.5664,-2.5645,-2.5557,-2.5205,-2.4785,-2.4375,-2.3975,-2.3545,-2.3149,-2.3101,-2.3101,-2.3101,-2.3101,-2.3101,-2.3101,-2.2906,-2.2092,-2.1069,-2.0624,-1.9816,-1.8398,-1.7039,-1.6792,-1.7437,-1.6436,-1.6232,-1.6813,-1.722,-1.6968,-1.6609,-1.5992,-1.5572,-1.5379,-1.4615,-1.4088,-1.4088,-1.4088,-1.4088,-1.4075,-1.4021,-1.3908,-1.3633,-1.3454,-1.3347,-1.3293,-1.326,-1.332,-1.3353,-1.35,-1.3606,-1.37,-1.4103,-1.4294,-1.4363,-1.4573,-1.4699,-1.5628,-1.5869,-1.6601,-1.8519,-1.8847,-1.9362,-2.0284,-2.0615,-2.0644,-2.0752,-2.0996,-2.1288,-2.1855,-2.2227,-2.2393,-2.2559,-2.2847,-2.3081,-2.3033,-2.3071,-2.3091,-2.3101,-2.3101,-2.3101,-2.3101,-2.3101,-2.3101,-2.2935,-2.2764,-2.2588,-2.2409,-2.1785,-2.122,-2.1083,-2.0879,-2.0674,-2.0284,-1.9559,-1.8798,-1.6805,-1.5019,-1.4412,-1.4088,-1.4088,-1.4088,-1.4088,-1.4088,-1.4088,-1.4088,-1.4088,-1.4088,-2.5684,-2.5684,-2.5684,-2.5684,-2.5684,-2.5684,-2.5684,-2.5684,-2.5684,-2.5684,-2.5586,-2.5264,-2.4824,-2.4404,-2.3984,-2.3555,-2.3179,-2.3101,-2.3101,-2.3101,-2.3101,-2.3101,-2.2862,-2.2164,-2.1212,-2.0189,-2.0041,-1.9073,-1.7813,-1.7779,-1.788,-1.7962,-1.736,-1.7009,-1.7293,-1.7423,-1.6846,-1.6232,-1.5944,-1.5338,-1.4657,-1.4334,-1.4124,-1.4088,-1.4088,-1.4088,-1.4088,-1.4088,-1.4068,-1.3981,-1.3908,-1.3854,-1.3821,-1.3821,-1.3801,-1.3828,-1.3929,-1.3961,-1.4135,-1.4803,-1.5255,-1.5379,-1.5876,-1.6576,-1.6813,-1.6887,-1.7577,-1.8718,-1.9045,-1.9441,-2.0372,-2.0615,-2.0869,-2.1396,-2.1377,-2.1512,-2.2178,-2.2441,-2.2574,-2.2877,-2.3023,-2.3081,-2.3101,-2.3101,-2.3101,-2.3101,-2.3101,-2.3101,-2.3101,-2.3091,-2.3091,-2.2964,-2.2822,-2.2627,-2.2272,-2.1639,-2.122,-2.1122,-2.0928,-2.0664,-1.9962,-1.9036,-1.8189,-1.6895,-1.5103,-1.4166,-1.4088,-1.4088,-1.4088,-1.4088,-1.4088,-1.4088,-1.4088,-1.4088,-1.4088,-2.5684,-2.5684,-2.5684,-2.5684,-2.5684,-2.5684,-2.5684,-2.5684,-2.5684,-2.5684,-2.5586,-2.5264,-2.4834,-2.4348,-2.3984,-2.3555,-2.313,-2.3101,-2.3101,-2.3101,-2.3101,-2.3101,-2.2818,-2.1845,-2.0935,-2.0342,-2.026,-1.9816,-1.9019,-1.8671,-1.8795,-1.9377,-1.8539,-1.8238,-1.8789,-1.8669,-1.8141,-1.7245,-1.6642,-1.5827,-1.4859,-1.4334,-1.4088,-1.4088,-1.4088,-1.4088,-1.4088,-1.4088,-1.4088,-1.4082,-1.4082,-1.4088,-1.4088,-1.4088,-1.4088,-1.413,-1.4496,-1.4768,-1.4977,-1.5745,-1.6314,-1.6437,-1.7009,-1.7504,-1.7868,-1.8029,-1.847,-1.952,-1.9638,-2.0001,-2.0411,-2.0615,-2.1036,-2.1631,-2.165,-2.1814,-2.2633,-2.274,-2.2838,-2.3023,-2.3101,-2.3101,-2.3101,-2.3101,-2.3101,-2.3101,-2.3101,-2.3101,-2.3091,-2.3091,-2.3033,-2.293,-2.2725,-2.249,-2.2148,-2.1572,-2.1171,-2.1064,-2.0889,-2.0635,-1.9766,-1.8749,-1.7868,-1.6854,-1.5186,-1.4088,-1.4088,-1.4088,-1.4088,-1.4088,-1.4088,-1.4088,-1.4088,-1.4088,-1.4088,-2.5684,-2.5684,-2.5684,-2.5684,-2.5684,-2.5684,-2.5684,-2.5684,-2.5684,-2.5645,-2.5547,-2.5185,-2.4697,-2.4326,-2.3828,-2.3496,-2.3101,-2.3101,-2.3101,-2.3047,-2.2906,-2.2818,-2.296,-2.1854,-2.1293,-2.1105,-2.1248,-2.1141,-2.0598,-1.9488,-1.9954,-2.0729,-1.9879,-1.9724,-1.9962,-2.0206,-1.9766,-1.843,-1.7253,-1.6191,-1.522,-1.4489,-1.413,-1.4088,-1.4088,-1.4088,-1.4088,-1.4088,-1.4088,-1.4088,-1.4088,-1.4088,-1.413,-1.413,-1.4328,-1.4573,-1.5304,-1.5869,-1.6026,-1.6846,-1.7455,-1.7536,-1.7658,-1.8029,-1.8917,-1.9155,-1.9511,-2.0323,-2.0566,-2.0527,-2.0566,-2.0615,-2.1036,-2.166,-2.1865,-2.2266,-2.2857,-2.3101,-2.3101,-2.3101,-2.3101,-2.3101,-2.3101,-2.3101,-2.3101,-2.3101,-2.3101,-2.3101,-2.3101,-2.3091,-2.2964,-2.2822,-2.2578,-2.2295,-2.1904,-2.1465,-2.1211,-2.1016,-2.0781,-2.045,-1.9726,-1.8758,-1.7827,-1.669,-1.5228,-1.437,-1.4088,-1.4088,-1.4088,-1.4088,-1.4088,-1.4088,-1.4088,-1.4088,-1.4088,-2.5684,-2.5684,-2.5684,-2.5684,-2.5684,-2.5684,-2.5684,-2.5684,-2.5684,-2.5557,-2.5185,-2.4766,-2.4346,-2.3916,-2.3481,-2.3169,-2.311,-2.3101,-2.3101,-2.296,-2.2022,-2.235,-2.2677,-2.1943,-2.1391,-2.1382,-2.1337,-2.1337,-2.1157,-2.1243,-2.1316,-2.1542,-2.0846,-2.0323,-2.0401,-1.9756,-1.8798,-1.7666,-1.6601,-1.5621,-1.4776,-1.4328,-1.4088,-1.4088,-1.4088,-1.413,-1.4088,-1.4088,-1.4088,-1.4088,-1.4208,-1.437,-1.4377,-1.4936,-1.5338,-1.5579,-1.6363,-1.6968,-1.7172,-1.794,-1.863,-1.8678,-1.9234,-1.9962,-2.0167,-2.0206,-2.0323,-2.0615,-2.0615,-2.0615,-2.0615,-2.0615,-2.1026,-2.1592,-2.1894,-2.2207,-2.2867,-2.3091,-2.3101,-2.3101,-2.3101,-2.3101,-2.3101,-2.3101,-2.3101,-2.3101,-2.3101,-2.3101,-2.3081,-2.3081,-2.2838,-2.2637,-2.2236,-2.1914,-2.1582,-2.1211,-2.1006,-2.0711,-2.0498,-2.0206,-1.9481,-1.839,-1.7293,-1.6363,-1.5387,-1.4741,-1.4124,-1.4088,-1.4088,-1.4088,-1.4088,-1.4088,-1.4088,-1.4088,-1.4088,-2.5684,-2.5684,-2.5684,-2.5684,-2.5684,-2.5684,-2.5684,-2.5684,-2.5684,-2.5488,-2.5049,-2.46,-2.418,-2.3769,-2.3315,-2.3101,-2.3101,-2.3101,-2.3101,-2.296,-2.2448,-2.2545,-2.2862,-2.2536,-2.2164,-2.212,-2.2173,-2.2129,-2.2142,-2.192,-2.1802,-2.1816,-2.0996,-2.0244,-1.9913,-1.9234,-1.8141,-1.6805,-1.6026,-1.5179,-1.4292,-1.4088,-1.4088,-1.4088,-1.4124,-1.4292,-1.4817,-1.4852,-1.5144,-1.5428,-1.5594,-1.5345,-1.5103,-1.5827,-1.6396,-1.6634,-1.7496,-1.8069,-1.835,-1.9076,-1.9717,-1.9726,-2.0323,-2.0489,-2.0615,-2.0615,-2.0615,-2.0615,-2.0615,-2.0615,-2.0615,-2.0615,-2.0997,-2.1416,-2.1777,-2.2158,-2.2705,-2.2964,-2.3101,-2.3101,-2.3101,-2.3101,-2.3101,-2.3101,-2.3101,-2.3101,-2.3101,-2.3091,-2.2984,-2.2916,-2.2627,-2.2305,-2.1865,-2.1494,-2.1251,-2.0977,-2.0772,-2.042,-2.0028,-1.9687,-1.9195,-1.79,-1.6519,-1.5786,-1.5179,-1.4573,-1.4088,-1.4088,-1.4088,-1.4088,-1.4088,-1.4088,-1.4088,-1.4088,-1.4088,-2.5684,-2.5684,-2.5684,-2.5684,-2.5684,-2.5684,-2.5684,-2.5684,-2.5684,-2.5488,-2.5039,-2.4609,-2.4228,-2.3857,-2.3305,-2.311,-2.3101,-2.3101,-2.3101,-2.3047,-2.3003,-2.296,-2.3047,-2.3003,-2.2906,-2.3091,-2.296,-2.296,-2.2746,-2.2181,-2.1524,-2.1469,-2.0814,-1.976,-1.8993,-1.8669,-1.7738,-1.6067,-1.5462,-1.4977,-1.425,-1.413,-1.4166,-1.4489,-1.4531,-1.5019,-1.5703,-1.5985,-1.6314,-1.722,-1.7464,-1.705,-1.6723,-1.6968,-1.7536,-1.7617,-1.863,-1.9155,-1.9362,-1.9962,-2.0489,-2.0615,-2.0615,-2.0615,-2.0615,-2.0615,-2.0615,-2.0615,-2.0615,-2.0615,-2.0615,-2.0615,-2.0791,-2.1211,-2.1641,-2.2051,-2.2461,-2.2847,-2.3062,-2.3101,-2.3101,-2.3101,-2.3101,-2.3101,-2.3101,-2.3091,-2.3091,-2.3062,-2.2945,-2.2793,-2.248,-2.2168,-2.1768,-2.126,-2.0977,-2.0869,-2.0644,-2.0206,-1.9726,-1.9076,-1.863,-1.7326,-1.6108,-1.5662,-1.5054,-1.4454,-1.4088,-1.4088,-1.4088,-1.4088,-1.4088,-1.4088,-1.4088,-1.4088,-1.4088,-2.5684,-2.5684,-2.5684,-2.5684,-2.5684,-2.5684,-2.5684,-2.5684,-2.5684,-2.5478,-2.5086,-2.4609,-2.4375,-2.4092,-2.3413,-2.312,-2.3101,-2.3101,-2.3101,-2.3101,-2.3101,-2.3101,-2.3101,-2.3101,-2.3101,-2.3101,-2.3101,-2.3101,-2.2766,-2.1705,-2.1103,-2.0522,-2.0062,-1.9169,-1.8002,-1.7536,-1.7245,-1.5827,-1.5095,-1.4531,-1.437,-1.4286,-1.4699,-1.5296,-1.5421,-1.6034,-1.6764,-1.705,-1.7131,-1.7374,-1.8221,-1.851,-1.843,-1.859,-1.8678,-1.8917,-1.9599,-2.0128,-2.0245,-2.0411,-2.0615,-2.0615,-2.0615,-2.0615,-2.0615,-2.0615,-2.0615,-2.0615,-2.0615,-2.0615,-2.0615,-2.0615,-2.0781,-2.1172,-2.1572,-2.1982,-2.2393,-2.2711,-2.2955,-2.2916,-2.2984,-2.3052,-2.3003,-2.3023,-2.3101,-2.3052,-2.2984,-2.2964,-2.2906,-2.2705,-2.2393,-2.208,-2.1748,-2.1211,-2.0742,-2.0703,-2.0527,-2.0089,-1.9441,-1.8341,-1.7649,-1.6593,-1.5745,-1.522,-1.4817,-1.4286,-1.4088,-1.4088,-1.4088,-1.4088,-1.4088,-1.4088,-1.4088,-1.4088,-1.4088,-2.5684,-2.5684,-2.5684,-2.5684,-2.5684,-2.5684,-2.5684,-2.5684,-2.5674,-2.5488,-2.5049,-2.4619,-2.4287,-2.3975,-2.3413,-2.3101,-2.3101,-2.3101,-2.3101,-2.3101,-2.3101,-2.3101,-2.3101,-2.3101,-2.3101,-2.3101,-2.3101,-2.3101,-2.3008,-2.2203,-2.1151,-2.061,-2.0334,-1.9158,-1.7516,-1.7759,-1.7107,-1.5985,-1.5213,-1.4936,-1.4936,-1.4929,-1.5504,-1.6239,-1.6601,-1.7131,-1.794,-1.8189,-1.851,-1.9036,-1.952,-1.9756,-1.9805,-1.9805,-1.9805,-1.9883,-2.0284,-2.0615,-2.0615,-2.0615,-2.0615,-2.0615,-2.0615,-2.0615,-2.0615,-2.0615,-2.0615,-2.0615,-2.0615,-2.0615,-2.0615,-2.0615,-2.0684,-2.0889,-2.1299,-2.1631,-2.1894,-2.2256,-2.2409,-2.2574,-2.2808,-2.2867,-2.2789,-2.2867,-2.3042,-2.3023,-2.2896,-2.2847,-2.2818,-2.2389,-2.2041,-2.1719,-2.1327,-2.0935,-2.0459,-2.0362,-2.004,-1.9559,-1.8868,-1.777,-1.6805,-1.5786,-1.5179,-1.4699,-1.4292,-1.413,-1.4088,-1.4088,-1.4088,-1.4088,-1.4088,-1.4088,-1.4088,-1.4088,-1.4088,-2.5684,-2.5684,-2.5684,-2.5684,-2.5684,-2.5684,-2.5684,-2.5684,-2.5684,-2.5547,-2.5166,-2.4678,-2.4297,-2.3984,-2.3574,-2.3242,-2.312,-2.3101,-2.3101,-2.3101,-2.3101,-2.3101,-2.3101,-2.3101,-2.3101,-2.3101,-2.3101,-2.3101,-2.2955,-2.2346,-2.1643,-2.0964,-2.0919,-1.9606,-1.752,-1.8143,-1.7456,-1.6675,-1.6026,-1.6026,-1.6026,-1.6067,-1.656,-1.7496,-1.7666,-1.8189,-1.9155,-1.9313,-1.9678,-2.0167,-2.0489,-2.0566,-2.0566,-2.0615,-2.0615,-2.0615,-2.0615,-2.0615,-2.0615,-2.0615,-2.0615,-2.0615,-2.0615,-2.0615,-2.0615,-2.0615,-2.0615,-2.0615,-2.0615,-2.0615,-2.0615,-2.0615,-2.0615,-2.0713,-2.0977,-2.1249,-2.1395,-2.167,-2.1894,-2.2168,-2.2578,-2.2617,-2.2441,-2.2676,-2.2842,-2.2852,-2.2734,-2.2652,-2.2526,-2.1824,-2.1414,-2.1182,-2.0878,-2.0556,-2.0216,-1.9981,-1.9392,-1.863,-1.7811,-1.6797,-1.591,-1.5019,-1.4615,-1.4334,-1.425,-1.4088,-1.4088,-1.4088,-1.4088,-1.4088,-1.4088,-1.4088,-1.4088,-1.4088,-1.4088,-2.5684,-2.5684,-2.5684,-2.5684,-2.5684,-2.5684,-2.5684,-2.5684,-2.5684,-2.5674,-2.5537,-2.4824,-2.457,-2.4482,-2.3945,-2.3477,-2.3188,-2.3101,-2.3101,-2.3101,-2.3101,-2.3101,-2.3101,-2.3101,-2.3101,-2.3101,-2.3101,-2.3101,-2.2931,-2.2133,-2.1401,-2.0976,-2.0462,-1.9309,-1.7936,-1.8681,-1.8318,-1.7334,-1.7131,-1.7131,-1.7131,-1.7131,-1.7747,-1.847,-1.8877,-1.9204,-2.0089,-2.0206,-2.0411,-2.0489,-2.0615,-2.0615,-2.0615,-2.0615,-2.0615,-2.0615,-2.0615,-2.0615,-2.0615,-2.0615,-2.0615,-2.0615,-2.0615,-2.0615,-2.0615,-2.0615,-2.0615,-2.0615,-2.0615,-2.0615,-2.0615,-2.0615,-2.0615,-2.0674,-2.0889,-2.1064,-2.119,-2.123,-2.1426,-2.1475,-2.1816,-2.1934,-2.1885,-2.2256,-2.2568,-2.2559,-2.2529,-2.2461,-2.2217,-2.1473,-2.1034,-2.085,-2.0673,-2.0332,-1.9844,-1.9599,-1.8669,-1.7738,-1.6879,-1.5944,-1.5262,-1.4608,-1.437,-1.4173,-1.4088,-1.4088,-1.4088,-1.4088,-1.4088,-1.4088,-1.4088,-1.4088,-1.4088,-1.4088,-1.4088,-2.5684,-2.5684,-2.5684,-2.5684,-2.5684,-2.5684,-2.5684,-2.5684,-2.5684,-2.5684,-2.5508,-2.4767,-2.4287,-2.3994,-2.3535,-2.3286,-2.312,-2.3101,-2.3101,-2.3101,-2.3101,-2.3101,-2.3101,-2.3101,-2.3101,-2.3101,-2.3101,-2.3101,-2.2862,-2.257,-2.1998,-2.1215,-2.0994,-2.0117,-1.8734,-1.9416,-1.9149,-1.859,-1.827,-1.8278,-1.827,-1.835,-1.8749,-1.9805,-1.9844,-2.0167,-2.045,-2.0615,-2.0615,-2.0615,-2.0615,-2.0615,-2.0615,-2.0615,-2.0615,-2.0615,-2.0615,-2.0615,-2.0615,-2.0615,-2.0615,-2.0615,-2.0615,-2.0615,-2.0615,-2.0615,-2.0615,-2.0615,-2.0615,-2.0615,-2.0615,-2.0615,-2.0615,-2.0693,-2.0791,-2.082,-2.0918,-2.0957,-2.1006,-2.1016,-2.1035,-2.1211,-2.1466,-2.1758,-2.2051,-2.2119,-2.1982,-2.1756,-2.1592,-2.1143,-2.082,-2.0693,-2.0489,-2.0255,-1.9648,-1.9125,-1.794,-1.7009,-1.6437,-1.5538,-1.4852,-1.4328,-1.4166,-1.4088,-1.4088,-1.4088,-1.4088,-1.4088,-1.4088,-1.4088,-1.4088,-1.4088,-1.4088,-1.4088,-1.3955,-2.5684,-2.5684,-2.5684,-2.5684,-2.5684,-2.5684,-2.5684,-2.5684,-2.5684,-2.5684,-2.545,-2.4758,-2.39,-2.3247,-2.314,-2.313,-2.3101,-2.3101,-2.3101,-2.3101,-2.3101,-2.3101,-2.3101,-2.3101,-2.3101,-2.3101,-2.3101,-2.3101,-2.3101,-2.295,-2.2526,-2.1773,-2.1902,-2.1062,-2.0111,-2.0105,-2.0182,-1.9511,-1.9392,-1.9402,-1.9392,-1.9402,-1.9844,-2.0323,-2.0615,-2.0615,-2.0615,-2.0615,-2.0615,-2.0615,-2.0615,-2.0615,-2.0615,-2.0615,-2.0615,-2.0615,-2.0615,-2.0615,-2.0615,-2.0615,-2.0615,-2.0615,-2.0615,-2.0615,-2.0615,-2.0615,-2.0615,-2.0615,-2.0615,-2.0615,-2.0615,-2.0615,-2.0615,-2.0615,-2.0644,-2.0625,-2.0625,-2.0752,-2.0811,-2.082,-2.0811,-2.0742,-2.0987,-2.13,-2.1484,-2.1621,-2.1475,-2.1181,-2.0956,-2.0732,-2.0409,-2.0206,-1.9883,-1.9392,-1.8301,-1.7698,-1.6764,-1.6232,-1.5662,-1.5179,-1.4531,-1.4243,-1.4124,-1.4088,-1.4088,-1.4088,-1.4088,-1.4088,-1.4088,-1.4088,-1.4088,-1.4088,-1.4088,-1.4088,-1.3646,-2.5684,-2.5684,-2.5684,-2.5684,-2.5684,-2.5684,-2.5684,-2.5684,-2.5684,-2.5645,-2.544,-2.4785,-2.3842,-2.3276,-2.3101,-2.3101,-2.3101,-2.3101,-2.3101,-2.3101,-2.3101,-2.3101,-2.3101,-2.3101,-2.3101,-2.3101,-2.3101,-2.3101,-2.3101,-2.3101,-2.3003,-2.2969,-2.246,-2.212,-2.1476,-2.0947,-2.0791,-2.0303,-2.0245,-2.0284,-2.0323,-2.0333,-2.045,-2.0489,-2.0615,-2.0615,-2.0615,-2.0615,-2.0615,-2.0615,-2.0615,-2.0615,-2.0615,-2.0615,-2.0615,-2.0615,-2.0615,-2.0615,-2.0615,-2.0615,-2.0615,-2.0615,-2.0615,-2.0615,-2.0615,-2.0615,-2.0615,-2.0615,-2.0615,-2.0615,-2.0615,-2.0615,-2.0615,-2.0615,-2.0615,-2.0615,-2.0615,-2.0625,-2.0664,-2.0625,-2.0615,-2.0615,-2.0615,-2.0957,-2.1104,-2.1201,-2.123,-2.0986,-2.0702,-2.043,-1.9901,-1.9569,-1.9195,-1.8261,-1.647,-1.582,-1.5869,-1.5428,-1.4817,-1.4531,-1.425,-1.4088,-1.4088,-1.4088,-1.4088,-1.4088,-1.4088,-1.4088,-1.4088,-1.4088,-1.4088,-1.4088,-1.3955,-1.3779,-1.3209,-2.5684,-2.5684,-2.5684,-2.5684,-2.5684,-2.5684,-2.5684,-2.5684,-2.5684,-2.5343,-2.4902,-2.4287,-2.3701,-2.3218,-2.3101,-2.3101,-2.3101,-2.3101,-2.3101,-2.3101,-2.3101,-2.3101,-2.3101,-2.3101,-2.3101,-2.3101,-2.3101,-2.3101,-2.3101,-2.3101,-2.3101,-2.2964,-2.2691,-2.2253,-2.1836,-2.124,-2.0791,-2.0654,-2.0615,-2.0615,-2.0615,-2.0615,-2.0615,-2.0615,-2.0615,-2.0615,-2.0615,-2.0615,-2.0615,-2.0615,-2.0615,-2.0615,-2.0615,-2.0615,-2.0615,-2.0615,-2.0615,-2.0615,-2.0615,-2.0615,-2.0615,-2.0615,-2.0615,-2.0615,-2.0615,-2.0615,-2.0615,-2.0615,-2.0615,-2.0615,-2.0615,-2.0615,-2.0615,-2.0615,-2.0615,-2.0615,-2.0615,-2.0615,-2.0615,-2.0615,-2.0615,-2.0615,-2.0615,-2.0644,-2.0742,-2.082,-2.0791,-2.0703,-2.0244,-1.9952,-1.9353,-1.8678,-1.823,-1.7488,-1.582,-1.5413,-1.5255,-1.4692,-1.4088,-1.4088,-1.4088,-1.4088,-1.4088,-1.4088,-1.4088,-1.4088,-1.4088,-1.4088,-1.4088,-1.4088,-1.4088,-1.4088,-1.3864,-1.3512,-1.2559,-2.5684,-2.5684,-2.5684,-2.5684,-2.5684,-2.5684,-2.5684,-2.5654,-2.5528,-2.5049,-2.4219,-2.3896,-2.3555,-2.3198,-2.3101,-2.3101,-2.3101,-2.3101,-2.3101,-2.3101,-2.3101,-2.3101,-2.3101,-2.3101,-2.3101,-2.3101,-2.3101,-2.3101,-2.3101,-2.3101,-2.3101,-2.3003,-2.2789,-2.2451,-2.1777,-2.1064,-2.0615,-2.0615,-2.0615,-2.0615,-2.0615,-2.0615,-2.0615,-2.0615,-2.0615,-2.0615,-2.0615,-2.0615,-2.0615,-2.0615,-2.0615,-2.0615,-2.0615,-2.0615,-2.0615,-2.0615,-2.0615,-2.0615,-2.0615,-2.0615,-2.0615,-2.0615,-2.0615,-2.0615,-2.0615,-2.0615,-2.0615,-2.0615,-2.0615,-2.0615,-2.0615,-2.0615,-2.0615,-2.0615,-2.0615,-2.0615,-2.0615,-2.0615,-2.0615,-2.0615,-2.0615,-2.0566,-2.0323,-2.0245,-1.9872,-2.0126,-2.0547,-2.0066,-1.9091,-1.8829,-1.8661,-1.79,-1.7172,-1.6314,-1.5379,-1.5012,-1.4692,-1.4573,-1.4088,-1.4088,-1.4088,-1.4088,-1.4088,-1.4088,-1.4088,-1.4088,-1.4088,-1.4088,-1.4088,-1.4088,-1.4039,-1.3955,-1.3288,-1.2766,-1.1649,-2.5684,-2.5684,-2.5674,-2.5664,-2.5635,-2.5684,-2.5654,-2.5547,-2.5195,-2.46,-2.3906,-2.376,-2.3525,-2.3159,-2.3101,-2.3101,-2.3101,-2.3101,-2.3101,-2.3101,-2.3101,-2.3101,-2.3101,-2.3101,-2.3101,-2.3101,-2.3101,-2.3101,-2.3101,-2.3101,-2.3101,-2.3023,-2.2838,-2.2539,-2.1887,-2.1045,-2.0635,-2.0615,-2.0615,-2.0615,-2.0615,-2.0615,-2.0615,-2.0615,-2.0615,-2.0615,-2.0615,-2.0615,-2.0615,-2.0615,-2.0615,-2.0615,-2.0615,-2.0615,-2.0615,-2.0615,-2.0615,-2.0615,-2.0615,-2.0615,-2.0615,-2.0615,-2.0615,-2.0615,-2.0615,-2.0615,-2.0615,-2.0615,-2.0615,-2.0615,-2.0615,-2.0615,-2.0615,-2.0615,-2.0615,-2.0615,-2.0615,-2.0615,-2.0615,-2.0615,-2.0615,-2.0527,-2.0167,-1.9756,-1.9155,-1.9283,-2.005,-1.9599,-1.843,-1.7698,-1.7568,-1.7041,-1.6198,-1.5511,-1.4776,-1.4454,-1.4166,-1.4088,-1.4088,-1.4088,-1.4088,-1.4088,-1.4088,-1.4088,-1.4088,-1.4088,-1.4088,-1.4088,-1.3913,-1.3737,-1.3822,-1.3603,-1.2851,-1.1895,-1.074,-2.5684,-2.5664,-2.542,-2.5283,-2.5283,-2.5303,-2.5293,-2.5166,-2.456,-2.4043,-2.376,-2.3506,-2.3266,-2.312,-2.3101,-2.3101,-2.3101,-2.3101,-2.3101,-2.3101,-2.3101,-2.3101,-2.3101,-2.3101,-2.3101,-2.3101,-2.3101,-2.3101,-2.3101,-2.3101,-2.3101,-2.3033,-2.2637,-2.2178,-2.1719,-2.1114,-2.0615,-2.0615,-2.0615,-2.0615,-2.0615,-2.0615,-2.0615,-2.0615,-2.0615,-2.0615,-2.0615,-2.0615,-2.0615,-2.0615,-2.0615,-2.0615,-2.0615,-2.0615,-2.0615,-2.0615,-2.0615,-2.0615,-2.0615,-2.0615,-2.0615,-2.0615,-2.0615,-2.0615,-2.0615,-2.0615,-2.0615,-2.0615,-2.0615,-2.0615,-2.0615,-2.0615,-2.0615,-2.0615,-2.0615,-2.0615,-2.0615,-2.0615,-2.0615,-2.0615,-2.0615,-1.9971,-1.952,-1.8868,-1.8261,-1.7738,-1.8221,-1.8829,-1.8069,-1.6879,-1.6306,-1.5944,-1.5338,-1.4741,-1.4215,-1.413,-1.4088,-1.4088,-1.4088,-1.4088,-1.4088,-1.4088,-1.4088,-1.4088,-1.4088,-1.4088,-1.4046,-1.3913,-1.3519,-1.3343,-1.2991,-1.2729,-1.212,-1.0999,-0.9666,-2.5235,-2.5244,-2.4971,-2.4844,-2.4844,-2.4844,-2.4822,-2.4551,-2.4023,-2.3711,-2.3516,-2.3208,-2.3101,-2.3101,-2.3101,-2.3101,-2.3101,-2.3101,-2.3101,-2.3101,-2.3101,-2.3101,-2.3101,-2.3101,-2.3101,-2.3101,-2.3101,-2.3101,-2.3101,-2.3101,-2.2994,-2.2711,-2.2246,-2.1885,-2.1484,-2.0967,-2.0615,-2.0615,-2.0615,-2.0615,-2.0615,-2.0615,-2.0615,-2.0615,-2.0615,-2.0615,-2.0615,-2.0615,-2.0615,-2.0615,-2.0615,-2.0615,-2.0615,-2.0615,-2.0615,-2.0615,-2.0615,-2.0615,-2.0615,-2.0615,-2.0615,-2.0615,-2.0615,-2.0615,-2.0615,-2.0615,-2.0615,-2.0615,-2.0615,-2.0615,-2.0615,-2.0615,-2.0615,-2.0615,-2.0615,-2.0615,-2.0527,-2.0489,-2.0167,-2.0245,-1.9923,-1.9323,-1.8638,-1.798,-1.7285,-1.6764,-1.6322,-1.6935,-1.7464,-1.6437,-1.5421,-1.5054,-1.481,-1.4412,-1.4173,-1.413,-1.4088,-1.4088,-1.4088,-1.4088,-1.4088,-1.4088,-1.4088,-1.4088,-1.4088,-1.4088,-1.3955,-1.3695,-1.3118,-1.2297,-1.152,-1.13,-1.1171,-1.0139,-0.8846,-2.4516,-2.4506,-2.445,-2.4523,-2.4523,-2.4575,-2.4222,-2.3789,-2.376,-2.3516,-2.311,-2.312,-2.3101,-2.3101,-2.3101,-2.3101,-2.3101,-2.3101,-2.3101,-2.3101,-2.3101,-2.3101,-2.3101,-2.3101,-2.3101,-2.3101,-2.3101,-2.3101,-2.3101,-2.3101,-2.2906,-2.2607,-2.2168,-2.1797,-2.1377,-2.0928,-2.0674,-2.0615,-2.0615,-2.0615,-2.0615,-2.0615,-2.0615,-2.0615,-2.0615,-2.0615,-2.0615,-2.0615,-2.0615,-2.0615,-2.0615,-2.0615,-2.0615,-2.0615,-2.0615,-2.0615,-2.0615,-2.0615,-2.0615,-2.0615,-2.0615,-2.0615,-2.0615,-2.0615,-2.0615,-2.0615,-2.0615,-2.0615,-2.0615,-2.0615,-2.0615,-2.0615,-2.0615,-2.0615,-2.0615,-2.0527,-2.0401,-2.0128,-1.9678,-1.9402,-1.9036,-1.839,-1.7455,-1.6764,-1.6437,-1.591,-1.5387,-1.5144,-1.5636,-1.5876,-1.4977,-1.4489,-1.4286,-1.4208,-1.4088,-1.4088,-1.4088,-1.4088,-1.4088,-1.4088,-1.4088,-1.4088,-1.4088,-1.4088,-1.4088,-1.4046,-1.3997,-1.3379,-1.2456,-1.1595,-1.0654,-1.0096,-1.0053,-0.9362,-0.8237,-2.6048,-2.661,-2.556,-2.5557,-2.6097,-2.5169,-2.4179,-2.3374,-2.332,-2.3188,-2.3101,-2.3101,-2.3178,-2.3101,-2.3101,-2.3101,-2.3135,-2.3101,-2.3101,-2.3135,-2.3222,-2.3135,-2.3135,-2.3222,-2.3135,-2.3135,-2.3135,-2.3101,-2.3101,-2.3101,-2.3071,-2.29,-2.2197,-2.1836,-2.1435,-2.0977,-2.0742,-2.0615,-2.0615,-2.0615,-2.0615,-2.0615,-2.0615,-2.0615,-2.0615,-2.0615,-2.0615,-2.0615,-2.0615,-2.0615,-2.0615,-2.0615,-2.0615,-2.0615,-2.0615,-2.0615,-2.0615,-2.0615,-2.0615,-2.0615,-2.0615,-2.0615,-2.0615,-2.0615,-2.0615,-2.0615,-2.0615,-2.0615,-2.0615,-2.0615,-2.0615,-2.0615,-2.045,-2.0323,-2.0245,-2.0001,-1.9795,-1.9313,-1.8868,-1.8141,-1.7779,-1.7172,-1.6239,-1.5992,-1.5662,-1.5103,-1.4657,-1.4292,-1.4208,-1.4573,-1.4657,-1.4208,-1.4088,-1.4088,-1.4088,-1.4088,-1.4088,-1.4088,-1.4088,-1.4088,-1.4088,-1.4088,-1.4088,-1.4039,-1.3906,-1.3955,-1.4088,-1.3075,-1.1509,-1.0864,-1.0009,-0.941,-0.8803,-0.8281,-0.7841,-2.6639,-2.7045,-2.6237,-2.6245,-2.6643,-2.5844,-2.501,-2.4349,-2.3517,-2.3299,-2.3681,-2.3299,-2.3594,-2.4307,-2.3681,-2.3353,-2.38,-2.3309,-2.3091,-2.3178,-2.3594,-2.38,-2.38,-2.3757,-2.3833,-2.3671,-2.3343,-2.3101,-2.3135,-2.3071,-2.3042,-2.2783,-2.2168,-2.1855,-2.1455,-2.0928,-2.0664,-2.0615,-2.0615,-2.0615,-2.0615,-2.0615,-2.0615,-2.0615,-2.0615,-2.0615,-2.0615,-2.0615,-2.0615,-2.0615,-2.0615,-2.0615,-2.0615,-2.0615,-2.0615,-2.0615,-2.0615,-2.0615,-2.0615,-2.0615,-2.0615,-2.0615,-2.0615,-2.0615,-2.0615,-2.0615,-2.0615,-2.0615,-2.0615,-2.0615,-2.0615,-2.0566,-2.0245,-1.9962,-1.9678,-1.9402,-1.8957,-1.843,-1.7698,-1.6846,-1.6281,-1.5752,-1.5345,-1.522,-1.5012,-1.4573,-1.437,-1.425,-1.4088,-1.425,-1.437,-1.4166,-1.4088,-1.4088,-1.4088,-1.4088,-1.4088,-1.4088,-1.4088,-1.4088,-1.4088,-1.4082,-1.4082,-1.3864,-1.3603,-1.3512,-1.3294,-1.1778,-1.0351,-0.9836,-0.9226,-0.8448,-0.7973,-0.7709,-0.7356,-2.67,-2.6887,-2.676,-2.6805,-2.6637,-2.6637,-2.6595,-2.6348,-2.4425,-2.3973,-2.4628,-2.3877,-2.4606,-2.5515,-2.4606,-2.4349,-2.4563,-2.4221,-2.3973,-2.3474,-2.451,-2.484,-2.4628,-2.4755,-2.4457,-2.4296,-2.4006,-2.3594,-2.3299,-2.3193,-2.2916,-2.2529,-2.21,-2.1787,-2.1455,-2.0869,-2.0625,-2.0615,-2.0615,-2.0615,-2.0615,-2.0615,-2.0615,-2.0615,-2.0615,-2.0615,-2.0615,-2.0615,-2.0615,-2.0615,-2.0615,-2.0615,-2.0615,-2.0615,-2.0615,-2.0615,-2.0615,-2.0615,-2.0615,-2.0615,-2.0615,-2.0615,-2.0615,-2.0615,-2.0615,-2.0615,-2.0615,-2.0615,-2.0615,-2.0294,-2.0167,-2.0001,-1.9717,-1.9195,-1.8718,-1.8189,-1.7577,-1.7009,-1.6281,-1.5628,-1.5228,-1.4776,-1.4692,-1.4573,-1.4608,-1.4208,-1.4088,-1.4088,-1.4088,-1.4088,-1.4088,-1.4088,-1.4088,-1.4088,-1.4088,-1.4088,-1.4088,-1.4088,-1.4088,-1.4088,-1.4088,-1.4082,-1.4039,-1.3597,-1.3027,-1.2553,-1.1986,-1.0611,-0.9618,-0.9187,-0.8492,-0.7533,-0.7139,-0.7136,-0.7139,-2.8239,-2.9013,-2.9,-2.8542,-2.7775,-2.7723,-2.7723,-2.7614,-2.6295,-2.585,-2.6005,-2.585,-2.5975,-2.6431,-2.5902,-2.5683,-2.5808,-2.5515,-2.5641,-2.5515,-2.5922,-2.5703,-2.5083,-2.521,-2.5041,-2.4745,-2.45,-2.4211,-2.392,-2.3487,-2.3042,-2.2847,-2.2314,-2.1777,-2.1621,-2.1045,-2.0625,-2.0615,-2.0615,-2.0615,-2.0615,-2.0615,-2.0615,-2.0615,-2.0615,-2.0615,-2.0615,-2.0615,-2.0615,-2.0615,-2.0615,-2.0615,-2.0615,-2.0615,-2.0615,-2.0615,-2.0615,-2.0615,-2.0615,-2.0615,-2.0615,-2.0615,-2.0615,-2.0615,-2.0615,-2.0615,-2.0615,-2.0615,-2.0411,-2.001,-1.9648,-1.9402,-1.8997,-1.831,-1.7706,-1.6976,-1.6239,-1.5587,-1.4943,-1.4615,-1.4292,-1.4166,-1.413,-1.4088,-1.4088,-1.4088,-1.4088,-1.4088,-1.4088,-1.4088,-1.4088,-1.4088,-1.4088,-1.4088,-1.4088,-1.4088,-1.4088,-1.4088,-1.4088,-1.4088,-1.4088,-1.3822,-1.3555,-1.2942,-1.2376,-1.1686,-1.0869,-0.9923,-0.9061,-0.854,-0.8105,-0.7272,-0.7095,-0.7139,-0.7139,-2.9236,-2.9779,-2.9779,-2.9443,-2.8937,-2.8858,-2.8846,-2.8727,-2.8211,-2.7959,-2.7718,-2.7098,-2.6964,-2.7424,-2.7017,-2.6964,-2.7005,-2.6648,-2.6348,-2.6442,-2.7005,-2.686,-2.6449,-2.6108,-2.6397,-2.6191,-2.5073,-2.4532,-2.4329,-2.3584,-2.3062,-2.2988,-2.2396,-2.1906,-2.1799,-2.1114,-2.0644,-2.0615,-2.0644,-2.0605,-2.0605,-2.0615,-2.0615,-2.0615,-2.0615,-2.0615,-2.0615,-2.0615,-2.0615,-2.0615,-2.0615,-2.0615,-2.0615,-2.0615,-2.0615,-2.0615,-2.0615,-2.0615,-2.0615,-2.0615,-2.0615,-2.0615,-2.0615,-2.0615,-2.0615,-2.0615,-2.0615,-2.0527,-1.9844,-1.9402,-1.9036,-1.8758,-1.7779,-1.6968,-1.6601,-1.6075,-1.5379,-1.4734,-1.4454,-1.4328,-1.4166,-1.4124,-1.4088,-1.4088,-1.4088,-1.4088,-1.4088,-1.4088,-1.4088,-1.4088,-1.4088,-1.4088,-1.4088,-1.4088,-1.4088,-1.4088,-1.4088,-1.4088,-1.4088,-1.4039,-1.3955,-1.3464,-1.2984,-1.2291,-1.1429,-1.0443,-0.9623,-0.8886,-0.8364,-0.7797,-0.7492,-0.7139,-0.7095,-0.7095,-0.7095,-2.9895,-2.9818,-2.9779,-2.9779,-2.9779,-2.9779,-2.974,-2.974,-2.974,-2.9702,-2.9417,-2.7758,-2.8291,-2.8502,-2.8039,-2.7988,-2.7907,-2.7747,-2.7261,-2.7383,-2.7988,-2.7815,-2.7804,-2.7884,-2.7711,-2.7215,-2.6273,-2.5284,-2.4542,-2.393,-2.3501,-2.3156,-2.2546,-2.1958,-2.1774,-2.1332,-2.0934,-2.0972,-2.0972,-2.075,-2.0683,-2.0615,-2.0615,-2.0615,-2.0615,-2.0615,-2.0615,-2.0615,-2.0615,-2.0615,-2.0615,-2.0615,-2.0615,-2.0615,-2.0615,-2.0615,-2.0615,-2.0615,-2.0615,-2.0615,-2.0615,-2.0615,-2.0615,-2.0615,-2.0615,-2.0566,-2.0566,-2.0001,-1.9313,-1.8669,-1.831,-1.7738,-1.6683,-1.5827,-1.5504,-1.5296,-1.465,-1.4124,-1.4124,-1.4088,-1.4088,-1.4088,-1.4088,-1.4088,-1.4088,-1.4088,-1.4088,-1.4088,-1.4088,-1.4088,-1.4088,-1.4088,-1.4088,-1.4088,-1.4088,-1.4088,-1.4088,-1.4088,-1.4088,-1.3997,-1.3864,-1.3555,-1.2772,-1.1429,-1.0524,-0.9749,-0.8794,-0.7969,-0.7489,-0.7272,-0.7183,-0.7095,-0.7095,-0.7095,-0.7095,-3.0495,-2.9779,-2.9779,-2.9779,-2.9779,-2.9779,-2.9779,-2.9779,-2.9779,-2.9779,-2.9663,-2.9585,-2.9585,-2.9779,-2.9507,-2.9287,-2.9028,-2.8819,-2.9118,-2.9326,-2.9106,-2.8727,-2.8478,-2.8426,-2.8176,-2.7763,-2.747,-2.7308,-2.5786,-2.4882,-2.4447,-2.4395,-2.2683,-2.239,-2.2886,-2.2387,-2.1869,-2.1783,-2.1561,-2.1407,-2.0683,-2.0615,-2.0615,-2.0615,-2.0615,-2.0615,-2.0615,-2.0615,-2.0615,-2.0615,-2.0615,-2.0615,-2.0615,-2.0615,-2.0615,-2.0615,-2.0615,-2.0615,-2.0615,-2.0615,-2.0615,-2.0615,-2.0615,-2.0615,-2.0566,-2.044,-2.0118,-1.9274,-1.855,-1.769,-1.7172,-1.6519,-1.5587,-1.4977,-1.4531,-1.4531,-1.4208,-1.4124,-1.4088,-1.4088,-1.4088,-1.4088,-1.4088,-1.4088,-1.4088,-1.4088,-1.4088,-1.4088,-1.4088,-1.4088,-1.4088,-1.4088,-1.4088,-1.4088,-1.4088,-1.4088,-1.4088,-1.4088,-1.3906,-1.3555,-1.347,-1.3737,-1.282,-1.0869,-1.0091,-0.9483,-0.8488,-0.7401,-0.7316,-0.7183,-0.7139,-0.7095,-0.7095,-0.7095,-0.7095]}]]